GFSNGP_850_thetae_000.txt.gz
Theta_e
311 311 311 313 313 313 312 312 315 314 312 312 310 307 311 313 312 312 311 310 309 310 307 304 305 304 301 303 301 299 298 297 297 297 296 295 294 294 293 293 294 293 292 292
311 311 311 311 311 312 312 312 311 312 312 310 309 312 312 312 311 312 311 309 308 304 303 303 302 301 302 302 299 298 298 298 296 295 295 295 293 292 292 291 291 291 290 289
308 308 307 307 308 310 311 310 310 310 309 308 310 311 310 310 311 311 309 306 306 304 302 301 302 303 300 298 297 297 297 295 292 292 292 291 290 290 290 290 289 288 288 287
306 311 313 310 310 309 309 308 308 307 306 308 311 310 310 310 310 309 306 304 301 301 302 303 302 299 298 298 297 296 296 294 292 292 290 290 288 287 287 286 286 286 286 285
313 313 309 312 310 310 309 308 308 308 310 311 310 309 309 310 307 305 303 300 300 302 303 301 298 298 298 297 295 294 293 292 291 290 289 288 286 286 286 286 285 285 284 284
308 312 313 309 307 308 310 309 310 311 310 310 309 308 309 305 305 302 299 299 301 302 299 297 297 298 297 295 293 292 292 292 290 288 287 286 286 285 285 285 284 284 284 283
312 310 307 306 307 309 312 310 310 310 310 308 306 306 302 301 300 299 299 301 301 298 296 296 297 296 295 294 293 292 292 290 288 286 286 285 285 285 284 284 284 283 282 282
304 307 307 307 309 310 310 311 310 310 308 309 306 304 301 299 299 298 299 301 300 297 296 296 297 296 294 293 292 292 290 288 287 286 286 286 285 285 284 284 283 282 282 282
310 306 307 309 310 310 309 309 308 309 306 305 303 301 300 298 299 299 300 301 299 298 296 297 295 293 292 292 291 290 289 287 286 287 286 286 285 285 284 284 283 282 281 280
309 309 311 312 311 310 310 309 307 305 303 301 298 298 299 299 300 299 301 300 300 298 296 294 292 291 291 291 290 289 287 287 287 287 287 286 286 285 284 283 281 280 279 279
309 311 311 311 310 310 307 307 306 302 299 298 299 298 298 299 297 297 299 298 299 297 295 293 291 292 292 291 290 288 287 287 287 287 287 286 285 285 283 282 280 279 279 278
311 311 311 310 310 308 307 304 302 297 297 297 296 298 298 296 295 295 296 296 297 296 295 294 293 292 291 290 289 288 288 287 287 287 287 286 285 284 283 281 280 279 278 277
311 310 309 309 306 304 302 297 297 297 296 297 297 297 297 295 295 295 295 296 295 294 293 292 292 292 290 289 289 288 287 288 288 288 286 285 284 282 281 281 279 278 277 277
307 307 307 304 301 298 297 296 294 295 294 293 293 293 294 294 294 293 295 295 294 294 291 290 290 289 288 287 287 287 287 288 287 287 285 284 283 282 280 279 278 278 277 277
306 305 305 301 299 296 296 296 294 293 292 292 292 293 294 294 292 292 292 292 293 290 289 290 289 288 287 287 288 288 288 287 286 285 284 283 282 280 279 278 278 277 277 276
303 301 299 297 297 297 297 295 294 292 292 292 293 293 292 292 292 291 292 292 289 289 290 289 288 288 287 286 287 285 286 286 285 284 283 282 281 280 279 278 278 277 276 276
300 297 298 297 297 297 296 295 294 293 292 293 292 294 294 293 292 291 291 289 289 290 288 288 288 287 285 285 285 286 286 286 285 284 283 282 280 280 279 278 277 277 276 275
298 297 296 296 296 295 295 295 294 293 293 293 294 294 294 294 292 291 290 289 290 288 288 288 287 286 285 284 284 284 285 285 284 284 283 281 280 279 278 277 277 276 275 275
296 294 293 292 293 294 294 295 294 294 293 293 294 294 294 293 292 290 289 289 289 288 288 287 285 285 284 284 284 284 284 284 283 283 282 281 280 279 278 277 277 276 275 274
292 292 292 293 293 292 292 292 292 293 293 293 293 293 293 291 290 290 289 289 289 288 286 286 285 284 283 283 285 284 283 283 282 282 281 281 280 279 278 277 276 276 275 274
293 293 292 292 292 292 293 293 293 293 293 293 293 293 291 291 291 289 289 289 289 288 286 285 284 283 284 282 284 284 283 282 282 281 281 281 280 279 279 278 277 276 275 274
293 292 292 292 292 292 292 293 293 293 293 292 293 292 292 292 290 289 289 289 288 287 285 284 283 283 282 282 284 283 282 282 281 281 281 281 281 280 279 278 277 276 275 274
292 292 292 292 292 292 292 292 292 292 292 292 293 292 292 291 290 289 289 289 288 286 284 284 283 283 282 282 281 282 282 282 281 280 282 282 281 280 279 279 277 277 275 274
293 292 292 292 292 292 292 291 291 291 292 292 292 292 292 290 290 289 290 290 288 286 284 284 283 283 283 282 281 281 281 281 281 281 283 283 282 281 281 279 278 277 276 274
293 292 292 292 291 291 291 290 290 291 291 291 291 291 291 290 289 290 290 289 288 286 284 284 283 283 283 282 282 282 283 282 281 282 282 282 282 282 281 280 279 278 277 275
292 291 291 291 291 290 290 290 290 290 290 290 290 291 290 290 290 289 288 288 288 286 284 284 283 283 282 282 282 283 283 282 282 282 282 282 281 281 281 281 280 279 278 276
292 291 291 291 291 290 290 290 290 290 290 290 290 291 290 290 290 289 289 288 287 285 284 283 283 282 282 281 282 282 282 283 283 282 282 281 281 281 281 280 280 279 278 278

GFSNGP_850_thetae_003.txt.gz
Theta_e
312 313 312 313 314 314 315 315 316 316 315 314 313 312 310 311 310 310 310 311 310 308 306 304 302 302 302 303 301 298 296 297 297 296 295 296 294 293 291 290 289 290 290 290
312 310 310 311 312 312 313 314 314 314 315 312 311 309 311 310 310 310 309 309 306 304 302 302 301 302 302 299 297 297 296 296 295 294 292 291 290 289 288 287 287 287 287 287
313 309 310 312 309 312 312 312 312 313 312 308 310 311 311 310 309 308 306 304 303 303 300 300 303 302 298 297 298 296 294 294 292 291 290 290 289 288 286 286 285 285 285 285
314 312 315 313 309 310 311 311 310 309 309 309 310 310 309 307 306 305 304 302 300 299 300 303 301 297 297 298 297 295 293 292 292 291 289 288 287 286 285 285 285 285 284 284
313 314 312 313 311 310 311 311 309 311 310 310 311 310 308 305 305 305 303 300 299 300 302 300 297 296 297 297 296 294 292 292 292 290 288 286 286 286 285 285 285 284 284 283
311 314 315 312 308 308 309 313 310 310 311 311 310 310 311 304 303 301 299 299 299 301 300 298 297 296 297 296 295 293 292 292 290 288 286 287 286 286 285 285 284 284 283 282
312 312 312 308 307 308 314 314 310 309 310 308 308 305 304 303 300 299 299 299 300 301 300 299 297 297 296 296 294 294 291 291 289 287 287 286 286 286 285 285 284 283 283 282
306 309 311 306 308 313 311 310 309 308 307 305 305 303 301 299 299 299 298 297 300 301 300 299 297 295 293 290 291 291 291 290 288 287 286 287 287 286 286 285 284 283 282 281
310 311 307 307 309 309 309 309 308 308 306 305 302 299 299 298 298 298 296 295 295 298 298 298 296 293 290 290 291 291 290 289 287 286 286 287 287 286 285 284 283 281 280 279
310 311 309 310 310 309 309 308 306 305 303 299 298 298 297 296 297 297 296 294 295 296 297 297 294 291 291 292 291 291 289 287 287 287 287 287 287 285 284 283 281 280 279 278
309 311 310 310 310 309 308 306 304 300 297 297 296 296 296 296 297 295 294 294 294 295 296 297 295 293 293 292 291 290 289 288 287 287 287 287 286 284 283 282 280 279 278 277
312 310 310 309 308 308 306 302 297 297 295 294 294 293 295 294 293 293 293 293 292 294 295 295 293 293 291 290 290 289 289 288 287 287 287 286 284 283 282 281 279 278 277 277
310 307 306 306 306 303 300 298 296 295 295 293 293 292 292 292 292 292 292 292 292 292 292 292 292 290 290 289 288 287 288 287 287 287 286 285 284 283 281 280 279 278 277 276
307 306 304 303 301 299 296 296 296 297 296 293 292 291 292 292 292 293 293 293 291 292 291 292 289 289 289 287 287 287 287 287 287 286 285 284 283 282 280 279 278 278 277 276
305 305 304 300 297 296 297 297 297 296 294 294 293 292 292 293 293 293 293 292 291 291 290 289 289 288 288 288 286 286 286 286 286 285 284 284 283 281 280 279 278 277 277 276
300 300 299 298 298 296 296 296 295 295 295 294 293 293 292 293 294 294 293 292 291 289 289 289 288 288 288 286 285 285 285 286 285 285 284 283 282 281 280 278 277 277 276 275
300 298 297 296 295 294 293 294 295 295 295 295 293 293 292 292 294 294 293 291 290 289 289 289 289 288 286 285 285 284 285 285 285 284 283 282 281 280 279 278 277 276 275 275
296 295 293 292 292 292 292 292 292 292 291 291 292 292 293 293 292 292 290 290 289 289 289 289 288 287 285 284 284 283 283 283 284 283 282 281 281 280 279 278 277 276 275 275
293 292 291 292 292 292 292 291 292 292 292 292 293 293 293 292 292 291 291 290 289 289 289 288 287 286 284 283 283 284 283 283 283 281 282 281 280 280 280 278 277 276 275 275
291 291 292 292 292 292 292 292 292 292 292 292 293 293 292 292 292 292 291 289 289 289 289 288 286 284 283 283 282 283 282 282 282 282 281 281 281 280 280 279 278 277 276 275
292 292 293 292 292 292 292 292 292 292 292 292 291 291 292 292 292 292 291 289 289 289 288 286 284 283 283 282 282 283 282 282 282 281 281 281 281 281 280 280 278 277 276 275
292 292 292 292 292 292 291 291 291 291 291 291 291 291 292 292 292 292 291 290 289 289 288 286 284 283 283 282 282 282 282 282 281 281 281 281 282 282 281 280 279 278 277 275
293 293 293 293 292 292 291 291 291 291 290 290 290 290 290 292 292 292 291 290 290 290 288 286 285 283 283 282 282 282 282 282 281 281 281 282 282 282 281 281 280 278 277 276
293 293 293 292 291 291 291 291 291 290 290 290 290 290 290 290 291 291 290 290 291 290 288 286 285 284 283 283 282 281 282 282 282 282 282 282 282 282 281 281 280 280 278 277
293 293 293 292 291 291 291 291 290 290 290 290 290 289 290 290 291 290 290 290 290 289 288 287 285 284 283 283 282 282 282 282 282 282 282 282 281 281 281 281 280 280 279 278
293 292 292 292 291 290 290 290 289 289 290 290 290 289 289 290 291 290 289 289 288 289 288 287 285 284 283 282 282 282 282 283 283 283 282 282 281 281 281 281 280 280 279 279
292 291 292 292 291 290 290 289 289 289 289 289 289 289 289 290 290 290 289 289 289 289 288 286 284 283 282 282 282 282 282 282 282 282 282 282 282 281 281 281 280 280 280 279

GFSNGP_850_thetae_006.txt.gz
Theta_e
316 315 315 315 315 315 315 316 318 317 316 316 315 314 313 313 313 313 312 311 310 309 307 305 304 303 303 302 300 298 299 297 296 295 294 294 293 292 291 290 289 288 288 288
315 314 314 315 315 315 315 316 316 316 316 313 312 313 313 312 312 311 311 308 306 305 302 302 302 303 302 300 299 299 297 295 294 294 293 292 291 290 289 288 288 288 287 287
320 313 314 318 316 315 315 315 315 315 314 313 314 313 313 312 311 309 307 305 303 302 301 302 303 303 300 299 298 298 296 294 294 294 291 290 289 288 288 288 287 287 287 287
318 316 321 315 313 313 314 314 314 313 313 313 313 312 312 309 308 304 303 302 301 301 301 302 303 301 299 298 297 296 295 294 294 292 290 289 288 288 287 287 287 286 286 286
316 315 315 314 313 313 313 314 313 314 313 313 312 311 310 306 305 304 302 301 301 301 300 301 302 300 299 298 296 295 295 294 293 291 290 288 288 287 287 287 286 286 285 285
314 316 317 315 312 310 312 315 313 312 312 310 311 313 309 305 304 301 301 301 300 298 299 301 302 299 299 298 297 295 293 293 292 290 289 288 288 287 287 287 286 286 285 284
314 316 315 313 310 310 316 317 312 310 309 309 309 307 305 303 301 300 300 299 298 297 297 299 299 299 299 297 294 293 293 292 291 290 288 288 287 287 287 286 286 284 283 282
313 313 315 310 311 314 314 311 309 308 308 307 306 304 302 300 299 298 299 298 297 296 296 297 297 298 297 295 294 293 293 292 291 289 288 288 288 287 287 286 285 284 283 283
313 316 313 312 311 311 310 309 309 308 306 304 303 301 299 298 298 298 298 297 296 296 295 295 296 297 296 294 294 293 292 291 290 289 288 288 288 287 286 286 284 283 283 282
313 313 313 313 312 311 310 308 307 305 303 301 300 298 298 298 297 297 296 295 295 294 294 294 295 296 295 294 293 292 291 290 290 289 288 288 287 287 286 285 283 282 282 281
314 313 313 312 311 309 308 307 304 303 301 299 298 297 297 296 295 295 294 294 294 293 293 293 293 294 293 292 290 290 289 289 289 288 288 288 287 285 284 283 281 280 280 279
314 312 312 310 308 306 307 304 302 300 298 297 297 297 295 294 294 294 293 293 293 293 293 292 292 292 291 289 289 288 288 288 288 288 288 286 286 285 284 282 280 278 278 277
312 309 308 307 307 304 302 300 299 298 298 298 297 295 294 294 294 293 294 294 293 293 292 292 291 290 289 289 288 287 287 287 287 287 286 286 285 284 283 282 281 279 278 276
308 307 305 304 304 301 299 298 298 298 297 296 295 294 294 294 294 293 293 294 294 293 292 290 289 289 289 288 287 287 286 286 286 286 285 284 284 283 282 281 281 280 278 276
305 305 305 302 300 299 299 298 297 296 295 295 295 294 294 294 293 293 293 292 292 290 291 290 289 289 288 287 286 285 285 285 286 285 284 284 283 282 282 281 281 280 278 277
302 301 300 299 298 297 296 295 294 294 294 293 293 293 293 293 292 292 292 292 291 289 289 289 289 289 288 287 285 285 284 285 285 284 283 283 282 282 281 281 280 279 278 276
300 299 298 297 295 294 294 294 294 293 292 292 292 292 292 292 293 292 292 292 291 290 289 289 289 287 287 285 285 285 284 284 284 284 283 282 281 281 280 280 279 279 278 276
297 295 294 293 293 294 294 293 291 291 292 292 292 292 292 292 292 292 292 291 291 290 289 289 288 287 286 284 283 283 284 283 283 283 282 282 281 280 280 279 279 278 278 276
292 293 292 292 292 292 292 291 291 292 291 291 291 292 291 291 291 291 291 291 291 290 289 289 288 287 284 283 283 283 283 283 283 283 282 282 282 281 280 279 279 278 277 276
292 291 291 292 292 292 292 292 292 291 291 291 291 291 291 290 291 291 291 291 291 289 289 289 287 285 283 283 282 282 283 282 282 282 282 282 281 281 280 280 279 278 278 277
291 291 292 292 292 292 292 292 292 291 291 291 290 290 290 289 289 291 291 291 290 290 289 288 286 285 284 283 282 283 282 282 283 282 282 282 282 281 281 280 279 279 278 277
291 291 292 293 292 292 292 291 291 291 291 291 290 290 290 289 290 290 291 291 290 289 289 289 287 286 284 283 283 283 282 282 282 282 282 281 282 282 281 281 280 279 278 277
291 292 293 293 293 293 292 291 290 290 291 290 290 290 290 289 290 290 290 290 290 290 290 289 287 285 284 283 283 283 283 282 282 282 282 282 282 282 282 281 281 280 279 277
292 293 293 293 293 292 292 291 290 290 290 290 289 290 289 289 289 290 290 290 290 290 290 289 287 286 285 284 283 283 283 283 283 282 282 282 282 282 282 281 281 280 280 279
292 292 293 293 292 292 291 291 290 290 289 289 289 289 289 289 290 289 289 290 290 290 290 289 288 286 285 284 283 283 283 283 283 283 282 282 282 282 281 281 281 281 280 280
292 293 293 292 291 291 291 290 289 289 289 289 289 288 289 289 289 289 290 289 289 289 289 288 288 286 285 284 283 282 282 282 283 283 283 282 282 282 282 281 281 281 280 280
292 292 291 291 291 291 290 289 289 288 288 288 288 288 288 289 289 289 289 289 289 289 288 289 288 286 284 284 283 282 282 282 282 282 282 282 282 282 282 281 281 281 281 280

GFSNGP_850_thetae_009.txt.gz
Theta_e
317 316 315 315 316 316 316 316 318 318 318 317 317 315 315 314 314 313 312 313 311 309 308 306 304 303 303 304 303 301 301 299 298 297 296 295 294 293 292 291 290 290 289 289
317 316 315 315 315 315 316 316 316 317 317 316 315 314 314 313 313 313 312 310 308 306 304 303 303 303 303 303 301 300 300 298 297 296 295 294 293 292 290 290 289 289 289 288
320 318 317 320 318 315 316 315 316 317 316 315 315 314 313 312 313 311 308 307 307 305 303 303 302 302 303 302 301 300 299 298 297 296 295 293 292 290 290 289 289 289 288 288
320 317 323 318 316 315 315 315 315 315 315 315 314 313 312 311 309 308 306 306 304 304 302 301 300 301 301 302 300 300 298 297 296 295 294 292 291 290 289 289 289 288 288 288
318 318 316 316 315 315 315 315 315 316 316 314 313 312 311 309 308 306 305 304 303 302 300 299 299 300 301 300 299 299 299 297 295 294 294 292 290 289 289 289 289 288 288 287
318 317 319 317 315 313 314 317 315 315 313 311 311 313 311 307 306 304 303 302 301 300 299 298 298 298 298 298 298 298 297 295 294 293 293 291 290 289 289 289 288 288 287 286
316 318 316 315 313 313 316 318 315 312 311 310 310 308 307 305 303 302 300 300 300 299 298 297 297 296 296 296 297 297 296 294 294 294 292 290 289 289 289 289 288 287 286 285
315 317 316 313 313 316 315 313 313 311 310 309 307 306 304 302 300 300 299 299 298 297 296 296 295 295 295 295 296 296 295 295 294 293 291 290 289 289 289 288 288 286 285 284
317 317 314 313 314 314 313 312 311 309 308 307 304 303 301 300 299 299 298 297 296 296 295 294 294 294 293 295 296 295 294 293 292 292 291 290 289 289 288 287 287 285 284 284
316 314 313 313 313 313 312 310 308 307 307 304 302 300 299 299 298 297 296 295 295 294 294 294 294 294 293 294 294 293 292 292 291 290 290 289 289 288 287 286 285 284 283 282
317 315 313 313 313 311 309 308 307 306 303 302 300 299 299 298 296 296 295 295 294 294 294 294 294 293 293 293 291 291 290 290 289 289 289 289 288 287 286 285 284 282 281 279
318 314 314 313 311 309 309 308 305 302 301 300 299 298 297 296 295 295 295 294 294 294 294 294 294 293 292 291 290 289 289 289 289 289 288 288 287 287 286 285 284 282 281 280
314 313 312 310 308 308 306 303 302 300 300 299 297 297 296 296 295 295 294 294 294 294 294 293 292 291 290 290 288 288 287 288 288 288 288 287 286 285 285 285 283 282 281 280
311 309 307 306 307 304 302 301 300 299 297 297 296 296 295 294 294 294 294 294 294 293 293 292 292 291 289 289 288 287 286 287 287 287 287 286 285 284 283 283 283 283 281 280
307 307 306 305 304 302 301 299 297 296 296 295 294 294 294 293 294 294 294 293 293 291 292 291 291 290 289 288 287 287 286 286 286 286 286 284 284 283 283 283 283 282 281 280
306 305 304 302 301 299 297 296 296 295 294 293 293 293 293 293 293 293 293 293 292 291 291 290 289 289 288 287 287 287 287 285 285 285 285 284 284 283 283 282 282 282 281 280
304 303 301 299 297 296 296 296 295 294 293 293 293 292 291 291 291 291 291 291 291 291 291 290 289 288 288 287 286 286 286 285 285 284 284 284 284 283 283 282 282 281 281 279
302 299 296 296 295 295 295 295 294 293 293 292 291 291 291 291 291 291 291 290 291 291 291 290 289 289 288 286 285 284 284 285 285 284 284 284 283 283 282 282 281 281 280 280
296 295 295 295 295 295 294 294 293 292 292 291 291 291 291 291 290 290 289 290 291 291 291 289 289 289 288 284 284 284 284 284 284 284 284 283 283 283 282 282 281 280 280 279
295 294 294 294 292 292 292 292 292 292 291 291 291 291 291 291 290 290 290 290 291 291 290 289 289 288 286 284 284 283 284 283 284 284 283 283 283 283 283 282 281 281 280 280
293 292 291 291 291 292 292 292 292 292 291 291 290 291 291 290 290 290 290 290 290 290 290 289 289 287 287 286 284 284 283 283 283 283 284 283 283 283 283 282 282 281 280 280
293 292 291 291 292 293 292 292 292 292 291 290 290 290 290 289 289 289 289 290 290 290 290 289 289 288 287 286 284 284 283 283 283 283 283 283 283 283 283 282 282 281 280 280
291 290 291 292 292 292 293 292 292 291 291 290 290 289 289 289 289 289 289 290 289 289 290 289 289 288 286 285 285 284 284 283 283 283 283 283 282 282 282 282 281 281 280 280
291 291 292 292 292 292 292 292 292 291 291 290 289 290 289 289 289 289 290 290 289 290 289 290 290 288 287 286 285 284 284 284 284 283 283 283 283 282 281 282 282 281 281 280
291 291 292 292 293 293 293 293 292 292 291 290 290 290 289 288 288 289 289 289 289 289 290 290 290 289 288 287 285 284 283 283 283 283 283 283 283 283 282 282 282 282 281 280
292 293 293 293 293 293 293 293 292 292 290 289 289 289 288 288 288 288 289 289 289 289 289 290 289 288 288 287 285 284 283 282 282 283 283 283 283 283 283 282 282 282 281 281
293 293 293 294 293 293 293 293 291 290 289 288 289 288 288 288 288 288 288 288 288 289 289 289 288 288 288 287 286 285 283 282 282 282 282 282 282 282 282 282 282 281 281 281

GFSNGP_850_thetae_012.txt.gz
Theta_e
317 316 316 316 316 316 316 317 318 318 316 317 317 316 315 314 314 314 313 312 310 309 308 306 305 304 304 303 303 304 303 301 300 299 298 297 296 295 293 292 290 290 289 289
319 317 316 316 315 315 316 316 316 317 317 317 316 315 314 314 313 313 312 309 308 308 306 305 304 303 302 301 302 303 302 301 300 299 297 296 295 294 292 291 290 289 289 289
322 317 318 323 320 316 316 316 316 318 317 316 316 315 314 313 313 311 309 307 306 305 305 303 302 300 300 300 301 302 301 301 300 299 297 296 295 293 292 290 289 289 289 289
320 318 323 318 316 316 316 316 315 315 316 316 314 313 312 311 310 308 307 306 305 304 302 301 300 299 299 298 298 298 298 299 299 297 296 295 294 293 291 290 289 289 289 288
321 318 316 317 316 315 315 315 315 317 316 314 312 312 311 309 307 306 305 304 302 301 301 300 299 298 297 296 296 297 296 298 298 296 295 294 293 292 290 289 289 289 289 288
316 318 318 318 316 314 314 317 316 315 314 313 311 313 310 307 305 304 302 301 300 300 299 298 297 296 295 295 295 295 296 296 296 295 294 294 293 290 289 289 289 289 288 288
318 316 317 315 314 314 316 318 315 314 312 311 311 309 306 305 303 301 300 300 299 298 297 296 296 295 295 294 294 295 295 295 295 295 294 293 291 290 289 289 289 288 288 286
316 317 317 314 314 315 317 315 314 312 311 310 309 307 304 303 301 300 299 298 297 296 296 295 295 295 294 294 294 294 294 293 293 293 293 292 290 290 289 289 288 287 287 284
318 318 316 315 314 314 314 314 312 310 309 307 307 304 303 301 300 299 298 297 296 295 295 295 295 295 295 294 294 293 292 292 292 292 291 290 290 289 288 288 287 286 284 283
319 316 315 314 314 314 313 312 310 308 307 307 304 302 301 300 299 298 297 296 295 295 295 295 294 295 294 293 293 292 291 290 290 290 290 289 289 288 288 287 286 285 284 282
317 316 315 315 314 312 310 310 308 307 305 303 302 301 300 298 297 297 296 296 295 295 294 294 294 294 293 292 291 290 290 289 289 290 290 289 288 288 287 286 286 284 283 282
318 316 316 315 311 310 309 309 308 304 303 301 300 299 297 297 296 296 295 294 294 294 294 294 294 293 292 291 290 289 288 288 288 288 288 288 288 287 286 285 285 283 283 282
314 315 314 312 309 309 308 306 303 302 301 299 297 297 296 295 294 294 294 294 294 294 294 294 293 292 292 291 290 289 288 287 287 287 288 287 287 286 285 284 284 283 283 282
313 311 310 308 308 306 304 303 301 300 298 297 296 295 294 294 294 294 293 294 293 294 293 292 292 292 291 290 289 288 287 287 286 287 286 286 285 285 284 284 283 283 283 281
310 309 309 307 305 305 302 300 298 297 297 296 294 294 294 294 293 293 293 292 293 292 292 291 291 291 290 289 288 288 288 287 287 285 286 285 284 284 284 283 283 283 282 281
308 307 307 306 303 301 299 297 297 297 295 294 294 293 293 291 291 291 291 291 290 290 290 290 290 291 289 288 288 287 287 287 287 284 285 284 284 284 283 283 282 282 282 281
308 306 304 302 300 298 297 297 296 295 293 293 292 292 291 291 291 291 291 290 290 289 290 290 290 290 288 288 288 287 287 287 286 285 284 284 284 283 283 283 282 282 282 281
306 304 300 298 297 296 296 296 294 293 293 292 292 291 291 291 291 291 291 290 290 289 290 291 290 290 289 288 287 286 286 284 284 284 284 284 283 283 283 283 282 282 281 281
300 297 296 296 296 296 294 292 292 292 292 291 291 291 291 290 290 291 290 290 290 289 290 290 290 290 289 288 286 284 284 284 283 284 284 284 283 283 283 283 283 282 281 281
296 296 295 294 292 291 290 291 292 292 292 292 292 291 290 290 290 290 288 289 289 290 290 290 290 290 289 288 285 284 283 284 283 283 284 284 284 283 283 283 282 282 282 281
294 293 294 293 291 290 290 292 292 292 292 292 292 291 291 290 290 289 289 289 289 290 290 290 290 290 289 287 287 286 285 284 284 284 284 284 284 283 283 282 283 282 282 281
294 293 292 290 290 291 291 292 292 292 292 291 291 291 290 289 289 289 288 289 289 290 290 289 289 289 289 288 287 286 285 284 284 284 284 284 284 284 283 282 282 282 282 281
293 292 291 291 291 291 292 292 292 292 291 292 291 291 289 289 289 289 288 289 289 290 289 289 289 288 288 288 287 286 285 284 284 283 283 283 283 283 283 282 282 281 281 281
293 292 292 291 291 292 292 292 293 293 293 292 292 291 290 289 289 289 288 288 288 288 288 289 289 289 289 289 288 287 286 285 284 284 283 283 283 283 283 282 282 281 281 281
291 291 291 292 293 293 293 294 294 293 292 292 291 290 290 289 289 288 288 287 287 288 288 288 289 289 289 289 289 288 287 285 284 283 283 283 283 283 283 283 282 282 281 281
292 292 293 293 293 293 293 293 292 292 293 291 291 290 289 288 288 288 288 287 287 288 288 288 288 289 289 289 289 288 287 286 285 283 282 282 282 282 282 282 282 282 281 281
292 292 293 293 292 292 292 292 292 292 292 291 290 289 288 287 287 287 287 287 287 287 288 288 289 288 289 288 288 288 287 286 285 283 282 282 282 282 282 282 282 282 282 281

GFSNGP_850_thetae_015.txt.gz
Theta_e
316 315 315 315 314 314 314 314 313 313 316 316 313 313 313 313 313 312 311 310 307 306 306 304 304 303 301 300 300 299 300 299 301 301 300 299 299 297 295 293 291 290 290 289
316 316 315 315 314 314 313 314 314 315 315 315 314 313 313 312 311 309 308 307 305 305 305 304 302 301 300 299 298 297 296 296 297 299 299 298 298 296 294 292 290 290 289 289
315 313 313 311 316 315 315 315 314 313 315 313 312 311 311 310 309 307 306 305 304 303 303 301 300 299 298 297 296 296 295 295 297 296 296 296 296 294 294 292 290 289 289 289
307 306 308 317 314 314 314 314 313 315 313 312 311 311 310 309 307 305 304 303 302 301 300 299 298 297 297 296 295 295 294 294 295 295 294 295 295 294 292 291 289 289 289 289
310 310 311 316 315 314 314 313 315 314 313 312 311 310 308 306 305 303 302 301 300 299 298 297 296 296 295 295 295 294 294 294 294 293 294 295 294 293 293 289 289 289 289 288
305 306 305 312 314 314 313 310 315 314 312 311 310 304 307 307 304 302 301 300 299 297 296 296 295 295 294 294 294 294 294 294 293 292 293 293 292 291 290 289 289 289 288 287
312 302 308 312 314 313 312 310 314 313 311 310 308 309 308 304 302 301 300 299 297 296 296 295 295 295 295 295 294 294 294 293 292 291 292 292 291 290 290 289 288 288 287 287
312 310 309 313 313 310 311 314 314 311 310 310 308 307 306 302 301 300 299 297 296 296 295 295 295 295 295 294 294 294 293 292 291 290 291 291 290 289 289 288 288 288 287 285
309 308 310 314 314 313 314 314 312 311 309 307 306 307 302 301 300 298 297 296 296 296 295 295 294 294 294 294 294 293 292 291 290 290 289 289 289 289 288 288 287 287 285 284
312 314 315 315 314 314 313 313 311 309 306 306 306 302 301 299 297 297 296 296 295 294 294 294 294 294 294 294 293 292 290 290 289 289 289 289 289 288 287 287 287 285 284 283
310 314 314 314 314 313 311 310 310 307 307 303 302 300 298 297 296 295 295 294 294 294 294 294 294 294 293 292 291 291 290 289 288 288 288 287 288 287 287 286 285 284 283 283
309 314 314 313 312 311 310 309 308 306 303 301 300 297 296 296 295 294 294 294 293 293 293 293 293 293 292 292 291 291 290 288 287 286 287 288 288 287 286 285 284 283 283 282
313 314 314 312 312 310 309 308 304 303 301 298 297 296 296 295 294 294 292 291 291 292 292 292 292 292 291 291 291 290 289 288 287 287 286 286 286 286 285 284 283 283 283 282
313 313 311 310 309 308 305 304 302 300 297 297 296 296 295 294 293 291 290 291 291 291 290 290 290 290 290 291 290 290 289 287 287 287 287 285 285 284 284 283 283 283 282 282
312 312 311 309 307 305 303 301 298 297 297 296 296 294 292 291 291 291 290 290 290 290 290 290 289 290 290 290 288 288 288 287 287 287 286 284 284 284 283 283 283 282 282 282
310 308 307 306 305 302 298 297 297 297 296 295 292 291 291 291 291 290 290 290 290 290 290 290 289 290 290 290 288 288 287 287 287 287 286 284 284 283 283 283 282 282 282 282
308 307 306 304 300 298 297 297 296 296 295 292 291 291 291 291 290 290 290 290 290 290 290 289 289 290 290 289 287 288 287 286 286 286 285 284 284 283 283 282 282 282 282 281
307 305 303 300 297 297 296 296 295 292 291 292 292 291 291 291 291 290 290 290 290 289 289 289 290 289 289 290 288 288 287 286 286 285 283 283 284 283 283 282 282 282 282 281
302 298 297 297 296 295 293 291 290 291 292 292 291 291 291 291 291 290 290 289 289 289 289 289 290 290 290 290 289 288 286 284 283 283 283 283 283 283 283 283 282 282 282 282
296 296 296 295 293 291 290 290 290 291 292 292 292 291 291 291 291 290 289 288 288 288 289 289 289 289 289 289 289 287 286 285 284 283 283 283 283 283 283 283 282 282 282 282
296 294 294 293 291 290 290 291 291 291 291 292 292 291 291 291 290 289 289 288 289 288 289 289 289 289 289 289 289 287 287 286 285 284 284 284 283 284 283 283 283 282 282 282
295 294 293 291 290 291 291 291 291 291 291 291 291 291 291 291 290 289 289 289 288 288 288 288 288 288 289 289 288 287 286 286 285 284 283 283 283 283 283 283 282 282 281 281
294 294 292 291 291 291 291 291 291 293 292 292 292 292 292 291 290 289 289 289 288 287 287 287 287 288 288 288 288 287 287 287 286 285 284 283 283 283 283 283 283 282 281 281
294 292 291 291 291 291 291 291 292 293 294 293 293 292 292 291 290 289 289 288 288 287 287 287 287 288 288 288 288 288 288 288 287 286 285 284 283 283 283 283 283 283 282 281
291 291 291 291 291 291 291 291 292 291 292 292 292 292 292 290 289 288 288 287 287 287 287 287 287 287 288 288 288 288 288 288 288 287 286 284 284 283 283 282 282 282 282 282
291 291 291 291 291 291 291 291 292 292 292 292 292 292 291 290 288 287 287 287 286 286 286 287 287 287 287 287 288 288 288 288 288 288 287 285 284 282 282 282 282 282 282 282
292 291 291 291 290 290 291 292 292 292 291 292 292 291 289 288 287 287 286 286 286 286 286 286 286 287 287 287 287 288 288 288 288 287 287 285 285 283 282 281 281 281 281 281

GFSNGP_850_thetae_021.txt.gz
Theta_e
312 312 312 313 313 312 313 312 312 311 311 311 311 309 310 311 310 309 308 306 303 303 303 302 301 301 300 299 298 297 296 295 294 294 294 294 294 293 291 294 294 294 293 289
314 312 312 313 310 310 310 310 311 311 313 311 311 311 311 310 310 309 307 304 302 302 301 300 300 299 298 297 296 295 295 294 294 294 294 294 293 291 292 292 292 293 291 289
306 308 310 305 310 313 312 312 311 311 311 310 309 310 310 310 309 308 305 302 302 301 299 298 298 297 296 295 295 295 294 294 294 294 293 293 291 291 291 292 293 289 290 289
303 301 303 308 310 311 311 312 312 311 310 310 310 311 310 309 309 307 303 301 300 299 298 297 296 295 295 295 294 294 294 294 293 293 293 292 291 291 291 291 290 290 289 288
302 304 305 310 312 311 312 310 310 310 309 310 310 309 308 309 307 304 302 300 299 298 297 296 295 295 295 295 294 294 294 293 293 292 291 290 291 291 290 290 289 289 289 288
303 300 300 305 311 312 310 310 311 311 309 309 308 304 304 308 305 303 301 300 299 297 296 296 295 295 294 294 294 293 293 293 292 291 290 289 290 291 290 289 289 289 288 287
294 299 304 304 311 311 311 307 313 313 312 309 306 308 309 307 304 301 300 298 297 297 296 295 295 294 294 293 293 293 293 292 291 290 290 289 289 289 289 289 288 287 287 286
303 301 307 307 310 310 310 310 313 313 313 312 310 309 308 305 301 300 298 297 297 296 295 294 293 293 292 292 292 292 292 291 291 290 289 289 289 289 288 288 287 286 286 284
307 308 307 309 311 312 312 312 313 314 314 312 310 307 306 301 300 298 297 297 296 295 293 293 291 291 291 291 291 291 291 291 291 290 288 288 288 288 287 287 286 286 285 283
308 309 309 310 312 312 312 312 313 314 313 310 307 306 305 300 298 297 296 295 294 293 292 290 290 290 290 290 290 290 290 291 291 290 288 287 287 287 287 287 286 285 284 283
306 308 311 313 313 312 313 313 313 312 311 308 308 307 301 298 297 296 295 294 293 291 290 290 290 290 290 290 289 290 289 289 290 289 288 286 286 286 286 286 285 284 283 283
308 311 312 312 313 313 313 313 312 310 308 307 306 300 298 296 296 294 293 292 291 290 290 290 290 290 290 290 289 289 289 289 289 289 288 287 286 286 285 285 284 283 283 282
311 312 312 313 313 313 312 311 310 308 307 302 298 297 296 295 294 292 291 290 290 290 290 290 289 289 289 289 289 288 288 288 289 288 287 287 286 286 283 283 283 283 282 282
313 312 312 313 313 312 311 310 308 303 301 299 298 296 295 293 291 290 290 290 290 290 290 290 289 289 289 289 288 288 288 288 288 287 287 287 286 285 284 283 283 282 282 282
313 312 312 312 311 310 309 308 301 300 299 296 296 295 294 291 290 290 290 290 290 290 290 290 290 289 289 288 288 288 288 288 287 286 286 286 285 284 284 283 282 282 282 282
313 312 312 311 309 306 302 300 301 298 296 296 295 293 291 290 290 290 290 291 290 290 290 289 289 288 288 288 288 288 288 288 287 286 286 285 284 284 284 283 282 282 281 282
311 308 307 304 302 301 302 299 297 296 296 293 292 291 290 291 290 290 290 290 290 290 289 289 288 288 287 288 288 289 288 288 288 286 285 284 284 283 283 283 282 282 282 282
308 307 304 302 301 298 296 298 298 293 291 290 290 290 291 291 290 290 290 290 290 290 289 289 288 287 287 288 287 287 288 288 288 286 285 284 283 282 283 283 282 283 281 282
303 301 298 296 297 298 296 292 291 290 290 290 291 291 290 290 290 290 290 290 290 290 290 289 288 287 287 287 287 287 287 287 288 288 285 284 283 283 282 283 282 282 282 282
299 299 297 294 293 294 292 290 290 290 290 290 291 290 291 291 291 290 291 291 290 290 290 289 287 287 286 286 286 286 286 287 288 288 286 286 285 284 283 283 283 282 283 283
296 294 293 292 291 290 290 290 290 290 290 290 291 292 291 291 291 291 291 291 291 291 290 289 288 287 287 286 286 286 287 287 287 287 287 286 286 285 284 284 283 283 282 282
295 295 294 293 291 290 290 290 291 291 291 291 291 291 292 292 292 292 293 292 292 291 290 288 287 287 286 286 286 286 286 287 287 287 286 286 286 286 286 285 284 282 282 282
295 294 292 291 291 290 290 290 290 290 290 290 290 291 292 292 291 292 292 292 291 290 289 287 286 286 286 286 286 286 286 287 287 287 287 288 287 287 287 286 285 284 282 282
291 291 291 291 290 290 290 290 290 290 290 289 290 290 290 290 290 290 291 291 290 288 286 286 286 286 286 285 285 286 286 286 287 287 287 287 287 287 287 287 287 286 284 283
292 292 291 291 291 291 292 292 291 291 291 290 290 290 290 289 289 290 290 289 288 286 286 285 285 285 285 285 285 285 285 285 285 285 286 286 287 287 287 287 287 286 285 284
292 293 292 292 292 292 292 292 291 291 291 290 290 289 289 288 288 289 289 288 287 286 286 284 283 284 284 284 284 285 284 284 284 284 285 285 286 286 286 286 286 286 285 283
292 291 291 291 291 291 290 290 289 289 289 289 289 289 288 287 287 287 288 287 286 286 285 284 284 283 283 283 283 284 284 284 284 284 284 285 285 286 286 286 286 285 284 283

GFSNGP_850_thetae_024.txt.gz
Theta_e
312 311 312 312 311 312 312 310 311 310 309 309 310 309 310 311 310 309 309 308 305 303 303 303 302 301 300 299 297 296 295 294 294 294 294 293 293 292 291 290 292 293 292 292
314 311 310 312 309 308 309 310 310 310 309 307 311 311 310 310 309 309 309 307 303 303 302 301 300 299 298 297 295 295 294 294 294 294 293 292 292 291 290 291 291 291 292 290
305 306 306 306 308 309 310 309 308 310 309 309 309 309 309 309 309 310 309 306 303 302 301 300 299 297 296 295 295 294 294 293 294 293 292 291 291 290 290 291 291 290 290 290
302 301 303 308 308 309 310 310 308 310 309 309 310 310 311 311 311 310 308 305 302 301 300 298 297 296 295 295 294 294 293 293 293 292 291 290 290 289 291 290 290 290 289 289
302 303 305 308 308 310 311 310 309 309 309 309 310 310 310 311 310 309 307 303 301 300 298 297 296 295 295 294 294 293 293 292 292 291 290 290 290 289 290 290 290 289 289 288
299 301 301 305 308 310 310 310 309 310 308 308 308 306 309 311 310 308 304 302 301 298 297 296 295 295 294 293 293 292 292 292 291 291 290 290 290 289 289 289 289 289 288 287
293 298 303 304 310 310 311 308 309 312 312 309 306 310 311 312 310 306 304 301 299 297 296 296 295 293 292 292 291 291 291 290 290 291 291 290 289 288 289 289 288 288 287 286
301 298 308 306 310 310 309 309 311 312 312 312 312 311 309 308 306 304 302 298 297 296 296 294 293 292 290 290 291 290 290 289 290 291 291 290 288 288 288 288 287 287 286 285
306 307 306 308 310 312 311 310 311 312 312 313 311 309 308 307 301 302 299 297 296 295 294 292 291 290 290 290 290 289 289 289 289 290 290 289 287 287 287 287 286 286 286 285
307 308 307 309 310 311 311 312 311 312 312 313 312 309 308 302 306 299 296 296 295 294 292 291 290 290 290 290 289 289 289 289 289 289 289 289 287 286 286 286 286 285 285 284
305 307 310 311 312 312 312 311 311 312 312 313 311 307 306 305 297 297 296 295 293 292 290 290 290 290 289 289 289 289 289 289 288 289 289 289 287 286 286 285 285 284 284 283
307 310 309 310 311 312 313 313 313 312 311 310 307 306 303 300 297 295 294 293 291 290 290 290 290 289 289 289 289 289 289 288 288 288 288 288 287 286 286 285 284 283 283 283
310 310 311 312 312 313 313 312 312 311 309 306 303 302 301 297 295 294 292 291 290 290 290 290 290 290 289 289 289 288 288 288 288 288 288 287 287 286 286 285 284 283 283 282
312 312 312 312 312 312 312 311 309 308 305 300 301 299 295 295 293 292 290 290 290 290 290 290 290 290 289 289 288 288 288 288 288 287 287 286 286 286 286 284 283 283 282 282
313 312 312 311 311 310 309 308 302 297 300 300 295 294 294 293 291 290 290 290 290 290 290 290 290 289 289 288 287 288 287 288 288 288 287 286 286 286 284 283 283 283 282 282
311 311 310 309 306 301 300 297 299 300 296 295 296 294 292 291 290 290 290 290 290 290 290 290 289 289 288 287 287 287 287 288 288 287 288 287 285 285 284 283 283 283 282 281
308 305 304 300 299 299 300 299 297 297 298 296 293 291 290 290 291 290 290 290 290 290 290 290 290 289 289 287 287 287 286 286 287 287 287 287 286 284 283 283 282 282 282 282
305 303 300 300 299 297 297 296 295 294 292 291 290 290 290 291 290 290 290 290 290 290 290 290 290 289 288 287 286 286 286 287 287 286 287 287 286 284 283 282 282 282 282 282
299 298 298 297 295 294 294 295 294 292 290 290 290 291 290 290 290 290 290 290 290 290 291 291 290 290 288 287 286 286 285 286 286 286 286 287 286 285 284 283 283 282 282 282
299 298 297 296 295 295 294 291 290 290 290 290 290 290 291 291 291 291 291 290 291 291 292 291 291 290 289 288 287 286 285 285 286 286 287 287 287 286 285 285 284 284 283 283
293 293 293 292 291 290 290 290 290 290 290 290 290 291 291 290 291 291 291 292 291 292 292 292 291 290 288 287 286 285 285 285 285 286 286 286 287 286 286 286 285 285 284 283
295 294 294 292 290 290 290 291 291 290 290 290 290 289 289 290 290 290 290 290 290 291 291 291 290 288 287 286 285 286 286 286 286 286 286 287 287 287 287 286 286 286 286 285
293 292 291 291 291 290 290 290 290 290 291 291 291 290 290 290 290 290 289 289 289 290 289 289 287 286 286 285 285 285 286 286 285 284 285 285 286 286 286 287 287 287 287 287
291 291 291 291 291 292 291 291 291 291 291 291 291 291 290 290 290 289 288 287 288 289 289 287 286 285 285 284 284 285 285 284 284 284 284 284 284 285 285 286 286 286 286 286
292 292 292 292 292 291 291 291 291 291 290 288 288 287 288 288 289 288 287 287 288 288 288 286 286 285 284 283 282 282 282 283 284 284 283 284 284 284 284 285 285 286 286 286
292 292 291 291 290 290 288 287 286 285 285 285 285 285 286 287 287 287 287 287 287 287 287 286 286 285 284 284 283 283 283 283 283 283 283 283 284 284 284 285 285 286 286 285
289 289 288 287 286 285 284 284 284 283 283 283 283 284 284 284 284 285 285 286 286 286 286 286 285 284 284 283 282 282 282 282 283 283 283 283 283 283 284 285 285 285 285 284

GFSNGP_850_thetae_027.txt.gz
Theta_e
312 312 312 311 312 313 314 313 317 313 312 312 312 315 312 310 310 310 309 309 308 306 304 303 303 304 301 300 298 296 295 295 294 294 294 293 292 290 290 290 290 290 292 290
313 311 311 313 311 311 312 312 312 311 313 311 310 310 310 310 310 309 309 309 308 305 304 303 304 301 300 298 296 295 295 294 293 293 293 292 290 290 290 290 290 291 290 290
312 307 308 311 311 312 311 310 313 314 314 311 311 310 311 310 309 309 310 309 307 304 303 303 301 299 297 296 296 295 294 293 293 293 292 291 290 290 290 289 290 290 290 290
310 305 312 311 310 310 311 311 310 310 310 311 311 311 311 311 311 310 310 309 307 303 302 301 299 297 296 296 295 293 293 293 292 291 290 290 290 290 290 289 290 290 290 289
313 310 308 309 306 310 312 313 311 310 310 309 309 310 311 311 311 311 311 310 306 303 301 299 297 296 296 295 293 292 292 291 291 290 290 290 290 290 289 289 289 289 289 289
305 310 311 309 306 310 310 315 310 310 310 309 309 315 313 311 312 311 310 307 303 301 298 297 296 296 295 293 292 291 291 291 290 290 290 290 290 290 288 288 289 289 289 288
302 312 309 306 307 309 313 314 307 311 311 309 311 313 311 312 311 310 308 303 301 297 298 296 296 295 293 291 290 290 290 290 289 289 289 290 290 289 288 288 288 288 288 287
304 309 314 305 310 314 312 310 309 311 312 311 311 311 311 311 310 308 304 301 299 299 298 296 295 293 291 290 290 290 290 289 289 289 289 289 289 289 288 287 287 287 287 286
310 313 307 308 311 312 311 310 309 311 311 311 310 310 309 308 306 303 299 303 299 298 295 294 292 290 290 290 289 289 289 289 289 289 289 289 289 289 288 286 287 286 286 285
309 310 307 308 309 310 310 310 310 311 311 311 311 309 307 306 302 302 304 298 298 296 294 292 290 290 290 289 289 289 289 289 289 289 288 288 289 289 288 286 286 286 285 285
308 308 309 310 310 310 311 311 311 311 311 311 311 308 306 300 303 300 297 297 295 294 291 290 290 290 290 289 289 289 289 289 288 288 288 288 288 288 287 286 286 285 284 284
313 310 309 309 310 312 312 312 313 312 312 311 310 307 301 301 301 299 297 295 293 291 290 290 290 290 290 289 289 289 289 288 287 288 287 288 288 288 287 286 286 285 284 283
309 310 310 311 312 312 312 312 311 310 309 308 303 302 302 299 297 295 295 293 291 290 290 290 290 290 290 289 289 289 288 287 287 287 287 287 287 287 286 286 286 285 284 283
311 311 312 310 310 311 310 309 308 306 304 301 301 298 296 296 296 294 292 291 290 290 290 290 290 290 290 289 289 288 287 287 287 287 287 288 288 287 286 285 286 285 283 282
309 310 309 309 308 307 304 302 300 299 299 297 296 296 295 294 292 293 291 290 290 290 290 290 290 289 289 289 289 288 287 287 287 287 288 287 287 287 286 286 285 284 283 282
306 307 305 304 300 298 299 299 299 298 297 295 296 294 292 293 294 291 290 290 290 290 290 290 290 290 290 289 288 288 287 286 286 286 286 286 287 287 287 285 284 284 283 282
305 299 299 299 298 298 297 296 295 294 294 293 294 294 293 291 291 291 290 290 290 290 290 290 290 290 290 289 289 288 286 286 285 286 287 286 286 286 286 285 284 283 283 283
301 299 297 297 296 296 296 296 295 294 294 294 292 290 291 291 291 290 290 290 290 290 290 290 290 291 291 290 289 288 287 287 286 285 285 285 286 286 286 286 284 283 283 283
298 298 297 295 294 294 294 292 291 291 290 290 290 290 290 290 291 291 291 291 290 290 290 291 291 291 291 291 289 288 287 287 286 285 285 285 286 286 287 286 285 284 284 284
295 295 294 294 294 292 291 291 290 290 290 290 290 290 290 290 290 290 290 290 291 291 290 291 292 291 290 290 288 287 287 286 285 285 285 285 286 286 287 287 286 286 285 285
294 293 293 292 291 290 290 290 290 290 290 290 290 290 290 290 290 290 290 290 289 289 289 289 290 289 289 288 287 286 286 286 285 285 285 285 286 286 287 287 286 286 286 286
294 294 292 291 291 291 290 290 290 290 291 291 291 291 291 291 290 290 290 290 289 288 288 288 288 288 288 287 286 285 285 284 285 285 285 284 284 285 285 286 286 286 286 286
291 291 291 291 291 291 291 291 291 291 291 291 290 290 289 289 289 288 288 288 288 287 287 288 288 288 287 286 285 284 283 284 284 284 284 284 284 284 284 284 284 285 285 286
292 292 292 292 292 291 291 290 289 288 287 286 285 285 285 285 285 285 285 287 287 287 287 287 287 287 286 285 285 284 283 283 283 282 282 282 283 283 284 284 283 283 284 285
292 292 292 291 290 289 287 286 285 285 284 284 283 283 283 283 283 284 284 284 285 285 286 286 286 286 286 285 284 284 283 283 282 282 282 282 283 283 283 283 284 284 284 285
292 290 289 287 286 285 284 283 283 282 282 282 281 281 281 280 280 281 282 282 284 285 285 286 285 285 285 284 284 283 282 281 281 281 281 282 282 282 283 282 282 283 284 284
288 287 286 284 283 283 282 281 280 279 279 278 278 278 279 279 279 280 280 281 282 282 283 283 283 283 283 282 281 281 280 280 280 280 280 280 281 281 282 282 283 283 283 284

GFSNGP_850_thetae_030.txt.gz
Theta_e
317 316 316 317 318 318 318 318 318 315 316 315 315 316 316 318 318 318 315 314 313 312 310 307 306 305 304 302 300 299 297 297 297 296 296 296 295 294 293 293 293 293 293 292
318 316 315 317 317 317 318 318 318 317 317 317 315 315 315 316 316 316 315 313 312 311 309 307 305 305 305 300 299 297 296 296 295 295 295 295 294 293 293 293 293 293 292 291
318 313 314 319 317 317 316 317 317 317 317 316 315 315 315 316 315 315 314 313 311 309 308 306 304 303 301 298 297 296 296 295 294 294 294 294 293 292 292 292 293 292 292 291
319 312 325 315 313 314 316 316 316 315 315 314 315 315 315 315 315 314 314 312 311 309 306 305 302 300 299 297 296 296 294 294 294 294 293 293 292 292 292 292 292 292 291 290
324 316 314 312 311 312 314 314 315 315 315 314 314 314 315 313 313 314 313 312 311 308 305 301 301 300 297 296 296 294 294 294 294 293 293 292 292 292 292 291 291 291 291 290
315 328 329 315 312 312 314 315 312 314 315 314 314 317 314 312 311 312 312 311 308 304 303 301 298 296 299 296 295 294 293 293 293 292 292 292 292 292 291 290 290 290 290 289
317 323 317 313 310 313 315 315 314 314 315 314 316 314 314 311 312 312 311 307 303 303 299 297 298 299 296 294 293 293 291 291 292 292 291 291 291 291 291 290 290 289 288 288
315 323 323 310 313 317 316 314 313 313 315 315 314 313 311 311 311 309 305 301 299 297 300 301 298 295 294 292 292 290 290 291 291 291 291 290 291 291 290 290 289 289 287 287
317 318 313 311 314 314 313 313 313 313 313 313 313 312 310 309 307 303 299 297 298 299 301 298 295 293 290 291 290 290 289 290 290 291 290 290 291 290 290 290 289 289 288 287
314 314 313 312 312 311 311 311 312 312 312 312 312 312 309 305 302 299 297 299 301 299 295 294 292 290 290 290 290 289 289 290 291 291 291 290 290 289 290 289 289 288 287 287
315 314 312 312 311 311 312 313 313 313 312 312 312 311 306 302 299 298 302 300 296 295 293 291 290 290 290 290 290 289 289 289 290 290 290 290 289 289 289 289 288 288 287 286
317 312 312 313 312 312 312 313 312 312 311 309 310 306 301 299 299 299 298 296 294 294 294 291 290 290 290 290 290 289 289 289 290 289 289 289 289 289 288 288 287 286 286 285
313 312 312 312 311 310 309 307 307 306 304 302 300 298 299 298 297 295 295 294 294 291 290 290 290 290 290 289 289 289 289 289 289 289 289 289 289 288 287 288 287 286 286 285
309 311 313 307 305 303 303 302 301 300 299 299 298 298 296 295 294 294 294 293 291 290 290 290 290 290 289 289 289 289 289 289 288 288 288 288 288 288 287 287 287 286 286 285
304 306 304 302 301 300 299 299 299 298 296 295 295 294 293 292 293 294 293 291 290 290 290 290 290 290 290 290 290 290 290 289 288 287 287 287 286 287 287 287 287 286 286 285
303 303 301 299 298 297 298 296 296 295 295 296 295 294 294 294 294 292 291 291 290 290 290 290 290 290 290 290 290 290 289 289 288 287 287 286 286 286 286 286 286 286 286 285
300 297 298 297 297 297 297 298 297 295 295 295 294 294 293 291 291 291 291 290 290 290 290 290 290 290 290 290 291 291 289 289 288 287 287 286 286 286 286 286 286 286 286 285
301 298 298 298 297 296 295 295 295 294 293 291 290 290 290 290 290 290 291 291 290 291 290 291 291 291 291 291 291 291 289 288 288 287 287 286 285 286 286 286 286 286 286 285
298 297 296 296 296 295 292 291 291 291 291 290 290 290 290 290 290 290 290 290 290 289 291 290 289 289 290 291 291 290 289 288 287 287 287 286 285 286 285 286 286 286 286 285
295 293 292 292 291 291 291 291 291 291 290 290 290 290 290 290 290 290 290 290 289 289 289 289 289 288 288 290 290 289 288 287 286 286 286 286 286 286 286 285 286 286 286 286
293 293 292 291 291 291 291 291 290 290 290 290 291 291 291 290 290 290 290 289 289 289 289 288 288 287 288 287 288 288 287 286 285 285 285 286 286 286 285 285 285 285 286 286
294 292 291 291 291 290 290 290 291 291 291 290 289 288 286 286 285 285 286 286 286 286 286 286 287 287 286 287 287 286 286 285 284 284 285 285 285 285 285 285 285 285 285 285
291 291 291 291 291 291 292 291 289 288 286 285 285 284 283 283 284 284 284 285 283 284 284 284 285 286 286 287 287 286 285 284 284 284 284 284 284 284 284 284 285 285 284 284
292 291 291 291 291 290 288 287 286 285 284 283 282 282 281 280 281 281 281 282 282 282 283 283 284 285 285 286 286 285 285 284 283 283 283 282 282 282 282 282 283 284 284 285
292 292 291 289 288 287 286 285 284 283 282 280 280 279 278 278 278 278 279 279 280 281 281 282 283 284 284 284 284 284 283 283 282 281 281 281 281 281 282 282 282 282 283 283
290 288 287 287 286 284 283 282 281 279 279 278 278 277 277 277 277 277 277 278 278 278 279 280 281 281 281 281 281 281 280 280 280 280 280 280 280 280 280 281 281 282 282 283
287 286 285 284 283 282 280 279 278 278 277 277 277 276 276 276 276 276 276 277 276 276 277 277 277 277 278 278 278 278 278 278 278 278 278 278 278 278 278 279 279 280 281 281

GFSNGP_850_thetae_033.txt.gz
Theta_e
321 321 320 320 320 320 320 319 320 319 317 316 317 317 317 317 318 319 321 321 321 320 318 316 313 311 308 306 306 302 303 300 299 299 298 298 298 297 296 295 295 295 294 294
322 321 320 320 320 319 319 318 318 318 318 318 317 317 317 316 317 318 319 319 319 318 317 315 313 310 308 305 303 303 301 299 299 298 297 297 297 296 295 294 294 294 294 293
319 317 318 321 320 319 319 318 319 320 319 317 318 317 316 316 317 317 317 318 318 317 316 314 311 309 306 304 303 301 299 299 298 296 297 296 295 295 294 294 294 294 294 293
320 316 323 316 316 316 317 318 317 317 317 316 316 316 316 316 316 316 316 316 317 316 315 313 310 307 304 303 300 299 298 298 296 296 295 295 294 294 294 294 294 293 293 293
325 317 316 315 314 314 315 315 316 315 315 315 316 316 316 316 314 313 314 315 315 315 313 311 308 304 302 300 298 299 298 296 295 295 295 294 294 294 294 293 293 293 293 293
318 325 325 318 315 314 315 316 314 314 314 314 315 317 317 315 314 313 314 314 314 314 311 308 304 301 300 299 299 298 296 295 294 294 294 294 294 293 293 293 292 292 292 291
320 324 320 316 314 314 317 318 315 314 314 315 316 316 317 315 314 314 314 314 313 311 307 304 301 299 300 299 297 295 294 294 293 293 293 293 293 293 293 292 292 292 291 290
323 323 323 314 315 317 318 314 314 315 314 315 316 316 316 314 314 314 314 311 308 304 302 299 300 299 298 297 294 293 291 293 293 292 292 292 292 292 292 292 292 291 290 289
320 320 316 314 314 314 314 314 314 314 314 314 314 315 314 314 313 312 310 304 301 300 299 300 298 296 295 293 295 291 292 291 292 292 292 292 292 292 292 291 291 291 290 289
317 316 315 314 314 313 313 314 314 314 314 314 314 315 315 312 309 306 303 301 299 300 298 296 295 292 291 291 290 290 290 292 292 292 292 292 292 291 291 290 290 290 289 289
317 316 315 314 314 314 314 315 315 315 315 314 314 314 313 308 304 301 298 297 296 295 294 294 293 293 293 291 290 291 291 291 291 291 292 291 291 291 291 290 289 289 289 289
319 315 315 315 315 314 314 313 312 312 312 309 310 308 304 300 297 297 296 294 294 294 294 293 293 291 290 291 291 290 289 290 290 290 291 291 290 290 290 289 288 288 288 287
316 315 315 313 309 308 307 307 306 305 304 301 299 297 296 296 295 295 295 294 294 293 293 292 290 291 290 290 290 289 289 289 290 290 291 290 290 290 290 289 288 288 288 287
311 313 313 308 307 306 302 300 302 301 299 298 296 296 297 297 297 297 296 294 293 292 292 291 290 290 291 291 290 290 290 290 290 291 291 289 288 288 288 288 288 288 288 287
308 308 307 305 303 301 299 298 298 297 297 298 298 297 296 295 295 295 295 293 291 290 291 292 292 292 292 291 290 290 290 291 291 291 290 289 288 288 287 287 287 287 287 287
304 303 302 301 298 297 298 298 298 298 297 297 296 295 295 295 295 294 293 293 291 290 291 291 290 290 290 290 291 291 292 292 292 291 290 289 288 288 287 287 287 287 287 287
302 299 299 297 299 299 300 299 298 298 297 296 294 292 291 291 291 293 291 291 291 290 290 290 290 290 291 291 291 291 291 291 291 291 289 289 289 288 287 287 287 287 287 287
301 299 300 300 298 298 298 297 296 294 292 291 290 290 290 290 290 290 290 290 290 289 289 290 291 290 289 290 290 290 290 291 290 290 289 289 288 288 287 286 286 286 286 287
299 299 298 298 297 296 294 294 291 291 290 290 290 290 290 290 290 290 290 290 290 290 291 290 290 289 289 289 289 289 289 289 289 288 288 287 287 287 287 287 286 286 286 286
297 296 295 293 292 293 291 291 293 290 290 290 290 290 290 290 289 288 286 286 287 288 288 288 288 287 287 287 288 289 288 287 287 288 286 286 285 286 287 287 286 286 286 286
295 294 291 291 291 291 290 290 290 290 291 291 289 287 286 285 285 285 286 286 286 286 286 285 284 284 285 286 286 287 287 287 287 286 286 285 285 286 286 286 286 286 285 286
295 292 291 291 291 291 290 290 291 290 288 287 286 285 284 284 283 284 284 284 285 284 282 282 283 283 283 283 285 285 286 286 286 286 285 285 285 285 285 285 285 285 285 285
293 291 291 291 291 291 291 291 288 287 286 284 283 282 281 281 282 282 282 282 280 280 280 281 281 281 281 282 284 285 285 286 286 285 284 283 282 282 282 282 283 283 284 284
293 292 291 291 291 290 287 286 285 284 283 282 282 280 280 280 280 280 280 279 278 278 279 279 279 280 280 281 282 283 283 283 283 283 282 281 281 281 281 281 281 282 282 282
291 291 291 289 287 287 285 284 283 283 282 281 280 280 279 279 278 278 277 276 276 276 276 276 277 278 277 277 278 278 278 278 279 279 279 278 278 279 279 279 280 280 280 281
289 289 287 287 285 284 283 281 281 281 279 280 279 278 278 277 276 275 275 274 274 274 274 274 274 275 276 275 275 275 275 275 276 277 277 277 277 277 277 277 278 278 279 279
287 286 285 284 282 282 280 279 279 278 278 277 276 277 277 276 275 274 274 274 273 273 272 272 272 272 273 274 273 273 274 274 274 274 275 275 275 275 275 275 275 276 277 278

GFSNGP_850_thetae_039.txt.gz
Theta_e
317 319 321 321 320 319 318 318 316 317 318 317 315 314 315 317 318 318 320 323 324 323 322 321 321 321 320 319 317 315 310 308 306 303 303 301 301 300 298 298 298 297 296 294
321 321 319 318 319 318 317 319 318 317 317 315 316 316 315 316 316 316 316 316 321 322 322 322 321 320 319 318 315 311 309 307 305 302 302 299 298 298 298 297 296 295 294 294
320 314 314 312 315 316 318 318 317 316 315 314 313 313 314 316 316 316 316 316 316 319 320 321 321 320 318 315 312 309 307 305 303 301 299 299 299 297 296 295 294 294 294 294
313 311 309 314 314 314 314 313 312 312 311 313 314 315 315 315 313 313 313 313 314 315 315 319 319 318 316 312 309 307 304 301 300 299 298 296 296 295 295 294 294 294 294 294
312 313 315 315 314 315 314 314 313 312 312 314 314 315 316 314 314 314 314 314 314 315 316 317 315 314 311 307 305 303 300 299 298 295 295 295 295 294 294 293 294 294 293 294
313 314 310 314 314 315 314 314 314 314 313 314 316 311 314 316 314 315 314 314 314 314 314 312 308 308 307 302 300 299 298 296 296 295 296 294 293 293 293 293 293 293 293 293
307 308 312 316 314 314 311 313 315 315 314 315 313 315 316 316 314 313 313 313 312 311 308 304 303 303 301 299 299 298 298 297 297 296 293 292 292 293 293 292 292 292 292 292
313 313 315 314 314 313 315 314 314 314 315 315 315 315 315 312 311 310 309 308 307 307 303 301 300 300 299 298 296 298 300 300 297 293 293 292 292 292 292 292 292 292 292 292
315 314 315 314 314 315 315 315 316 316 316 316 316 315 311 309 306 305 304 304 303 303 301 301 300 300 300 301 300 299 296 294 293 292 290 291 291 291 291 292 292 291 292 292
314 316 314 316 316 316 315 315 315 315 315 315 313 311 307 305 303 302 301 301 300 300 300 301 300 299 298 296 296 295 293 292 290 290 290 290 290 290 290 291 291 291 291 290
314 316 315 314 315 315 314 312 314 312 311 309 311 305 304 302 301 300 300 300 300 299 298 297 296 295 294 293 292 292 291 290 290 290 289 289 290 290 290 290 291 291 290 290
312 315 313 310 310 311 311 308 308 309 307 305 305 303 301 300 299 299 299 299 298 295 294 294 293 292 292 291 291 291 291 291 290 290 289 289 290 290 290 290 290 289 288 288
315 315 311 309 309 308 309 306 306 305 304 302 300 300 299 298 299 297 295 295 294 294 294 292 292 292 293 293 293 292 292 292 291 291 290 290 290 291 290 290 290 289 289 288
312 311 308 308 305 306 306 303 302 301 299 299 298 297 296 296 295 295 295 294 293 291 292 292 292 292 291 290 290 290 290 291 291 291 291 291 291 291 291 291 291 289 289 288
311 312 308 305 304 301 300 299 299 298 297 296 296 296 295 295 294 294 293 293 292 290 290 289 289 289 289 290 291 291 290 290 290 291 291 291 291 291 291 291 291 289 288 288
306 305 304 303 300 299 298 298 297 297 297 296 296 295 294 293 292 292 290 290 289 288 287 287 289 289 289 289 288 288 288 287 288 288 288 288 288 289 290 289 289 288 288 288
304 301 301 300 299 299 298 298 297 297 296 293 290 290 290 290 290 289 288 287 286 286 288 288 288 287 287 285 282 282 283 284 284 284 285 286 287 288 288 287 287 288 286 286
304 303 301 300 300 299 297 297 296 293 290 290 290 290 289 288 288 287 286 285 285 285 286 286 285 285 282 281 282 283 283 283 282 281 281 282 284 286 288 287 287 287 286 286
301 300 300 299 298 298 297 292 290 290 290 290 290 288 287 287 286 285 284 283 284 285 284 284 282 280 280 280 280 280 279 280 281 282 283 284 283 285 286 287 287 286 285 286
299 299 298 297 296 295 291 292 291 290 290 289 287 287 286 285 284 283 282 283 284 283 282 279 279 279 278 278 278 278 279 279 280 280 282 283 284 285 285 286 286 285 285 285
298 297 296 295 292 292 293 292 290 290 288 287 287 287 285 283 282 282 281 282 281 280 278 277 277 277 277 277 277 277 277 277 278 278 279 280 280 281 282 281 282 283 283 283
294 291 291 291 290 290 290 290 290 288 287 287 286 285 283 282 281 280 280 280 279 278 277 276 276 276 276 276 276 276 276 276 276 276 276 276 277 277 278 278 279 278 279 280
292 291 291 291 290 290 289 289 287 287 286 285 284 283 282 280 280 279 279 278 277 276 276 275 274 275 275 275 274 275 274 274 274 274 274 274 274 274 275 275 275 276 276 277
291 292 292 291 290 289 288 286 285 285 284 282 282 281 280 279 279 278 278 276 276 275 274 274 273 273 273 273 273 273 273 273 272 272 272 272 272 272 273 273 273 274 274 275
292 291 290 289 288 287 286 285 284 283 282 281 281 280 278 278 278 277 276 275 274 274 273 272 272 271 271 271 271 271 271 271 270 271 271 271 271 271 271 271 271 271 272 272
290 289 288 288 287 286 285 284 282 281 280 280 279 278 277 277 277 276 275 274 274 273 272 271 271 270 270 270 269 270 270 270 269 270 269 269 269 269 270 270 270 270 270 271
289 288 287 286 285 285 283 282 280 279 278 278 278 277 276 276 276 275 274 273 272 272 271 270 270 270 269 269 269 269 269 269 268 269 269 268 268 269 269 269 269 269 269 270

GFSNGP_850_thetae_045.txt.gz
Theta_e
315 315 317 318 319 317 316 315 315 315 314 314 313 312 311 313 316 318 320 324 326 327 328 328 328 327 326 325 323 322 320 319 317 312 309 308 305 302 301 300 298 297 296 297
317 315 315 318 316 315 315 315 314 314 314 311 311 312 312 313 315 317 319 320 321 323 325 325 324 324 323 322 321 319 318 317 312 308 306 303 301 301 299 297 297 299 299 299
315 312 313 312 313 314 314 314 315 314 312 311 311 309 310 313 314 315 316 317 318 319 319 320 319 319 320 320 319 318 316 311 308 305 302 301 299 298 298 300 300 299 297 295
310 309 312 314 312 312 312 311 309 310 310 310 310 311 311 312 312 313 314 314 315 317 319 320 319 319 318 318 316 313 310 307 304 302 300 298 298 301 300 299 297 295 294 293
312 312 312 314 311 311 311 312 311 309 309 312 312 313 311 312 313 313 313 313 313 314 314 316 318 318 317 315 313 308 304 301 299 298 298 300 302 301 297 294 293 293 292 292
307 311 312 313 311 311 310 311 311 311 310 311 312 311 309 310 311 313 313 313 313 313 313 314 314 314 314 309 305 301 298 297 298 299 300 301 297 293 293 292 292 291 291 291
304 307 310 309 311 312 311 309 312 313 313 312 310 310 312 310 310 310 310 310 310 309 308 307 306 305 305 301 300 299 298 300 301 300 297 294 293 293 291 290 290 290 290 290
305 304 313 310 311 310 309 311 313 313 313 313 313 310 309 308 307 306 306 304 304 304 302 300 300 301 300 300 302 301 300 298 296 294 293 292 291 290 289 289 289 289 289 289
312 311 310 312 312 313 314 313 313 314 313 313 311 308 307 306 304 302 302 302 301 301 300 300 300 299 300 299 297 294 293 292 291 290 290 289 289 289 289 289 289 289 289 289
313 314 313 313 313 313 313 314 314 314 313 312 311 306 304 302 301 301 300 300 299 299 299 297 296 294 293 292 291 291 291 291 291 290 290 290 290 290 291 290 290 290 289 289
312 312 312 312 312 314 314 314 314 313 312 311 310 304 303 301 300 299 299 298 298 296 294 293 292 292 291 291 291 291 291 291 291 290 290 290 290 290 290 290 290 291 291 291
310 313 312 312 311 312 313 313 313 313 309 306 307 304 301 299 299 298 296 295 294 293 292 292 292 291 291 290 290 289 289 289 289 289 289 289 288 288 287 287 286 286 288 288
313 314 313 311 309 309 311 310 309 309 308 305 302 301 299 297 295 294 294 293 292 291 291 290 290 289 289 289 289 288 288 287 286 284 283 283 282 282 282 283 282 282 284 286
314 313 306 307 306 307 308 306 305 303 302 301 299 298 297 295 294 293 292 291 290 289 289 289 289 288 288 288 287 285 284 283 282 282 281 281 280 280 280 280 281 281 281 282
310 312 311 308 306 304 304 303 301 300 299 297 297 296 295 294 293 292 291 289 289 289 288 288 288 287 286 285 284 283 282 281 281 280 280 279 279 279 280 281 281 281 282 282
308 310 307 307 303 302 301 300 300 296 296 295 295 295 294 293 292 290 289 288 288 288 287 286 285 285 283 282 281 281 280 280 280 279 278 278 278 278 279 279 279 280 282 283
304 299 301 300 301 299 299 298 297 296 295 295 294 294 293 290 289 288 288 287 287 286 285 284 283 282 281 280 280 280 279 279 278 278 277 277 277 277 278 277 279 279 280 282
309 307 305 305 301 298 297 296 296 295 295 294 293 291 289 288 288 288 287 285 284 284 283 283 281 280 280 279 279 278 278 277 277 277 277 277 276 276 277 277 277 277 279 279
307 305 302 300 299 298 296 296 295 294 291 290 289 288 288 288 287 286 285 283 283 282 282 281 280 279 279 278 278 277 277 277 276 276 276 276 276 276 276 275 275 275 276 277
302 301 300 299 298 297 297 295 294 290 289 289 288 288 288 287 285 284 283 282 282 281 280 279 278 278 278 277 277 276 276 276 275 275 275 275 275 275 274 274 274 274 274 274
301 300 299 298 297 296 295 294 291 289 288 287 287 287 286 285 284 282 281 281 280 279 279 278 277 277 277 276 276 275 275 275 275 274 274 274 274 274 273 273 273 273 273 273
299 299 298 296 295 292 291 290 289 289 288 287 286 286 285 283 282 281 280 280 279 278 277 277 276 276 276 275 275 274 274 274 273 273 273 273 272 272 272 272 272 272 272 271
298 297 295 294 292 291 290 289 288 287 287 286 285 284 283 282 281 280 279 279 278 277 276 275 275 274 274 274 274 274 273 273 273 273 272 271 271 271 271 271 270 270 270 270
295 293 292 292 292 291 289 286 286 285 285 285 284 283 281 280 280 279 278 277 276 275 274 274 273 273 273 273 273 273 273 272 272 272 271 271 270 270 270 270 269 269 269 269
293 291 291 291 290 288 287 286 286 285 284 283 282 281 280 279 278 278 277 276 275 274 273 273 273 273 273 273 273 273 272 271 271 271 270 270 269 269 269 269 269 269 269 268
291 290 289 288 288 287 286 285 285 284 282 281 280 279 278 278 277 276 276 275 274 273 272 272 272 272 272 272 272 271 271 270 269 269 269 269 269 269 269 268 268 268 268 268
291 290 289 287 285 284 284 283 282 281 280 279 278 278 277 276 275 275 274 273 273 272 272 271 271 271 271 271 271 270 270 269 268 269 269 268 268 268 268 268 268 268 267 267

GFSNGP_850_thetae_048.txt.gz
Theta_e
314 314 315 316 317 314 315 314 316 316 313 313 312 309 310 312 313 316 317 321 324 326 326 327 327 328 327 326 326 325 323 323 321 317 315 313 308 307 302 302 302 298 296 299
316 314 315 317 316 315 315 314 313 313 313 310 310 311 311 312 316 318 319 319 320 322 323 324 324 323 324 325 324 322 321 320 317 314 311 308 305 302 301 299 297 296 301 300
315 311 313 312 313 314 313 313 313 314 312 309 310 309 309 311 313 314 315 317 317 317 318 318 319 319 318 319 320 320 317 314 312 307 305 302 300 299 298 298 299 300 300 298
309 309 312 314 312 312 312 311 310 310 309 308 308 309 309 311 312 313 313 314 315 315 316 317 318 318 317 317 315 314 312 310 306 303 300 298 298 299 301 301 300 298 295 293
312 312 312 314 310 311 311 310 309 308 309 309 310 310 308 310 311 311 312 313 313 313 313 314 316 316 315 313 311 310 307 304 300 298 299 299 300 301 300 297 293 293 292 292
306 311 312 312 311 310 309 310 308 309 309 309 310 307 307 308 309 309 311 312 312 312 313 313 313 311 311 309 306 304 300 299 298 299 299 301 299 294 293 293 292 291 290 290
302 307 310 310 310 311 311 311 310 311 311 311 309 307 309 307 308 309 309 309 309 309 309 308 306 306 306 302 301 299 299 299 300 300 297 294 293 292 291 290 289 289 289 289
305 306 316 309 310 310 309 310 312 312 312 311 311 310 308 308 308 306 306 305 304 305 302 300 300 301 300 300 300 300 299 298 295 293 291 290 290 289 289 289 289 289 289 289
313 313 311 310 310 311 312 311 312 313 312 313 311 309 307 306 305 303 303 302 301 301 299 299 299 299 300 297 295 294 292 291 291 290 290 290 290 290 290 290 290 290 290 290
312 312 311 313 313 312 312 313 312 313 313 312 312 309 306 304 302 301 300 300 299 299 299 297 296 296 294 292 291 291 291 291 290 290 290 289 289 289 288 288 287 287 286 285
310 311 311 312 312 312 312 313 313 313 312 312 311 306 305 302 300 299 299 298 298 298 296 294 293 292 292 291 291 290 290 289 289 289 288 287 286 284 284 283 282 281 281 281
313 312 312 312 312 312 313 313 313 313 310 309 309 307 303 301 299 298 298 297 296 295 293 292 291 291 290 289 289 289 288 287 286 285 284 283 283 283 282 282 281 281 280 281
313 314 312 312 312 312 313 313 312 311 310 309 305 305 302 299 298 298 296 295 293 292 291 291 290 289 289 288 288 286 285 284 283 283 282 282 281 281 281 282 280 280 280 281
314 313 307 309 309 310 311 310 309 308 307 306 304 301 300 298 296 295 294 292 291 290 289 289 288 288 287 286 285 284 283 282 282 281 281 280 280 279 279 278 279 279 279 280
310 311 313 310 308 307 308 307 306 304 303 301 300 299 298 296 294 292 291 289 289 289 288 288 287 286 285 284 283 282 282 281 281 280 279 279 278 278 278 277 277 277 278 279
308 310 308 308 306 305 305 303 304 300 300 299 297 296 295 294 292 291 289 288 288 288 287 286 285 284 283 282 281 281 280 280 279 279 278 278 278 277 277 277 276 276 276 277
307 300 302 302 302 301 302 302 303 300 298 297 296 294 293 292 290 288 287 287 287 286 285 284 283 282 281 281 280 280 279 279 278 278 277 277 277 276 276 276 276 275 275 275
309 307 305 307 304 302 300 299 299 297 296 295 294 293 292 289 288 287 287 286 285 285 284 283 282 281 280 279 279 278 278 278 277 277 276 276 276 275 275 275 275 275 275 275
308 308 305 304 302 301 299 298 297 296 295 294 293 291 288 287 287 287 286 285 284 283 282 281 280 279 279 279 278 278 277 277 276 276 276 275 275 275 274 274 274 274 274 274
304 303 302 300 299 299 297 296 295 294 294 292 290 288 287 287 286 285 284 283 282 282 281 280 279 279 278 277 277 277 276 276 276 275 275 275 274 274 273 273 273 273 273 272
302 300 300 299 297 297 296 294 295 292 289 288 289 289 287 286 285 284 283 282 282 281 280 279 278 277 277 277 276 276 276 275 275 275 274 274 273 273 273 272 272 272 272 271
300 300 298 297 296 295 294 294 290 289 290 289 287 286 286 285 284 283 282 281 280 279 279 278 277 276 276 276 275 275 274 274 274 274 273 273 273 272 272 271 271 270 270 270
298 297 297 296 295 293 291 289 290 290 289 286 286 285 284 283 282 281 281 280 279 278 278 277 276 275 275 274 274 274 273 273 273 272 272 272 271 271 270 270 270 270 269 269
296 295 294 293 291 290 290 289 287 285 285 285 284 283 283 282 281 280 279 278 278 277 276 275 274 273 273 273 273 272 272 272 272 271 271 270 270 270 270 269 269 269 269 269
294 293 292 291 291 290 289 287 285 284 284 284 283 282 281 280 279 278 278 277 276 276 275 274 273 272 272 271 271 271 271 271 271 270 270 270 270 270 269 269 269 268 268 268
292 291 290 290 290 288 287 285 284 284 283 282 281 280 279 278 278 277 276 276 275 274 273 272 271 271 270 270 270 270 270 270 270 269 269 269 269 269 269 269 268 268 268 268
290 289 288 287 286 285 284 283 283 283 282 281 280 278 277 277 276 276 275 274 273 272 271 271 270 270 269 269 269 270 269 269 268 268 268 268 268 268 268 268 268 268 267 267

GFSNGP_850_thetae_051.txt.gz
Theta_e
314 313 316 318 318 317 318 319 322 320 316 318 317 315 313 311 312 314 316 319 323 324 325 326 327 327 327 327 327 326 326 324 322 320 319 317 315 312 309 306 304 302 301 301
316 314 315 317 316 317 317 316 316 315 316 314 312 310 311 312 316 316 318 318 320 321 322 322 322 322 322 323 323 323 322 319 318 318 314 311 307 305 303 302 301 301 301 300
318 313 314 317 316 317 316 316 318 318 318 312 312 311 311 311 314 314 315 316 317 317 317 317 318 318 318 318 319 319 317 315 313 311 308 305 303 301 300 299 300 300 300 298
316 312 320 317 312 314 316 315 313 313 313 312 311 308 308 311 312 312 314 315 315 315 315 315 316 316 317 316 315 313 311 309 305 304 303 300 299 299 299 300 300 300 297 294
319 318 316 314 313 314 315 317 313 313 311 309 308 308 307 308 309 310 311 312 313 313 313 314 314 314 314 313 311 309 306 303 301 300 300 299 299 300 300 298 294 293 292 292
311 318 321 318 313 310 311 316 312 310 311 310 309 316 313 307 308 309 311 311 312 312 312 312 311 311 311 308 306 304 302 300 299 299 300 300 301 297 293 292 292 290 290 289
312 319 317 312 310 310 318 319 310 310 311 311 312 310 310 307 307 308 308 309 309 309 310 309 307 307 306 303 301 299 299 299 300 300 300 297 293 292 290 290 289 289 289 289
312 317 320 310 309 315 317 311 311 310 310 310 310 308 308 307 306 306 306 306 306 306 305 303 302 303 301 301 300 300 300 299 296 293 292 291 290 290 290 290 289 289 289 288
318 320 315 310 314 312 312 312 311 311 311 311 309 306 306 305 304 304 304 304 303 303 301 300 300 300 301 298 296 295 293 292 291 291 290 290 289 289 288 286 285 284 283 283
316 315 313 311 311 311 311 312 312 311 312 312 310 307 305 303 302 302 301 301 300 300 300 299 298 298 297 293 292 291 291 290 290 289 288 287 285 284 284 283 283 282 281 281
314 313 312 313 313 312 312 312 312 311 312 312 310 306 306 303 301 300 300 299 299 299 297 295 294 293 292 291 291 290 289 289 288 286 285 285 284 283 282 282 281 280 280 280
317 315 316 316 316 315 312 312 312 312 310 309 309 308 304 301 300 299 298 297 297 296 295 293 292 291 290 289 289 288 287 286 285 284 284 283 283 282 281 281 280 279 279 278
314 314 313 313 313 313 312 312 312 311 311 310 306 306 303 301 299 298 297 296 296 294 293 291 290 289 288 288 287 286 285 284 283 283 282 282 281 280 280 279 279 279 278 278
313 314 310 311 310 311 311 311 310 309 308 308 307 303 302 300 297 297 296 294 293 292 290 289 288 288 287 286 285 284 283 283 282 281 281 280 280 279 279 278 278 278 278 277
312 312 312 311 311 308 309 309 308 307 306 304 303 302 300 298 296 295 293 292 291 289 289 288 287 286 285 284 283 282 282 281 281 280 279 279 279 278 278 278 277 277 277 277
312 310 310 309 309 308 308 306 308 305 303 302 301 299 298 297 295 293 291 289 289 288 287 286 285 284 283 283 282 281 281 280 280 279 279 278 278 278 277 277 277 276 276 276
307 303 305 306 306 306 305 305 306 305 302 300 298 297 295 294 292 291 289 288 287 287 286 285 284 283 282 282 281 280 280 279 279 278 278 277 277 277 276 276 276 275 275 275
308 308 307 306 303 302 301 302 302 300 297 297 295 293 293 293 291 288 288 287 286 285 284 284 283 282 281 280 280 279 278 278 278 277 277 277 276 276 275 275 275 274 274 274
307 308 305 304 303 303 301 299 298 298 297 296 294 293 292 290 288 287 287 286 285 284 284 283 282 281 280 279 278 278 277 277 277 276 276 276 275 275 274 274 274 273 273 273
305 302 303 303 301 300 298 296 296 296 295 294 293 291 288 287 287 287 286 285 284 283 282 281 280 279 279 278 277 277 277 276 276 275 275 275 274 274 273 273 272 272 271 271
302 300 299 299 297 297 297 297 296 295 293 293 291 288 287 288 288 285 284 283 282 281 280 279 279 278 278 277 277 276 276 275 275 274 274 274 273 273 272 271 271 271 271 271
298 299 297 297 296 296 295 295 294 293 291 288 288 289 289 288 284 283 282 281 280 280 279 278 278 277 276 276 276 275 275 274 274 273 273 272 272 271 270 270 270 270 270 270
297 296 295 295 295 293 293 292 289 288 288 290 289 288 285 284 283 281 281 280 279 278 278 277 276 275 275 275 274 274 273 273 273 272 272 271 270 270 270 269 269 269 269 269
294 294 293 293 292 291 289 288 289 289 288 286 284 283 282 282 281 280 279 278 278 277 276 276 275 274 274 273 273 273 272 272 271 271 270 269 269 269 269 269 269 269 269 269
292 292 291 291 290 289 289 288 286 284 283 283 282 281 281 280 279 278 278 277 276 276 275 274 274 273 273 272 272 271 271 271 270 270 269 268 268 268 268 268 268 268 269 268
290 290 289 289 288 287 286 285 284 283 282 282 281 281 280 280 279 278 277 276 275 275 274 273 273 272 271 271 270 270 269 269 268 268 267 267 268 268 268 268 268 268 268 268
287 287 286 285 284 284 284 283 283 282 282 281 280 280 279 278 277 276 276 275 274 273 273 272 271 270 270 269 269 268 268 268 267 267 267 267 267 267 267 267 267 267 268 268

GFSNGP_850_thetae_054.txt.gz
Theta_e
319 318 318 318 318 320 320 321 321 321 320 321 321 321 321 318 316 317 318 322 326 327 328 328 328 327 326 326 326 326 326 325 324 321 320 319 318 317 315 314 312 307 306 303
320 319 318 318 318 319 320 319 321 321 321 321 321 319 318 317 318 319 320 320 321 323 325 324 323 324 324 325 324 324 322 320 319 318 317 315 313 311 308 307 305 302 302 301
320 319 319 320 320 319 320 321 321 321 321 321 321 319 318 318 319 319 317 317 317 318 319 318 319 319 319 319 319 319 318 316 315 313 311 308 307 305 304 302 301 301 302 301
320 318 327 320 319 320 320 321 321 320 320 320 319 318 315 316 317 315 314 313 313 314 315 316 316 316 316 315 315 315 314 313 309 307 305 302 304 303 302 302 301 301 300 298
327 322 320 318 317 319 320 321 321 320 320 319 315 313 312 311 313 313 311 310 310 311 312 313 313 313 313 311 310 310 308 306 304 303 303 302 301 301 301 300 298 297 295 294
319 323 329 320 320 318 318 322 320 318 318 317 314 319 319 309 308 307 307 308 308 309 308 309 309 308 307 306 305 303 302 301 301 300 300 300 300 298 296 294 293 292 291 291
324 325 323 320 318 315 320 323 319 318 317 316 317 317 314 308 307 306 306 307 307 306 306 305 305 305 304 304 302 301 300 300 300 300 300 298 294 292 291 291 290 290 289 289
323 327 327 316 314 319 321 320 318 317 317 316 315 311 309 307 305 305 304 304 304 304 304 304 304 304 303 301 299 300 300 300 298 295 292 291 290 290 290 289 288 286 286 286
321 323 321 315 319 317 319 319 316 317 316 315 311 309 307 305 304 304 304 304 303 303 301 301 300 300 299 298 298 298 296 293 292 291 290 290 289 288 286 286 285 285 285 285
319 320 319 318 317 316 315 316 315 315 315 313 310 308 306 305 303 303 303 302 301 299 298 297 297 297 299 297 295 293 292 291 290 289 288 286 285 285 284 284 283 283 284 283
320 320 318 317 317 317 315 313 312 313 313 312 309 307 305 304 302 302 301 299 299 298 297 297 298 297 295 293 291 290 289 289 288 286 285 284 284 283 282 282 282 281 281 280
322 319 320 321 319 318 316 314 312 312 311 310 308 306 304 302 301 300 299 298 297 296 296 296 295 293 292 290 289 289 288 286 285 285 284 283 283 283 282 281 280 280 279 279
319 317 316 316 314 315 315 313 312 311 310 308 306 304 303 301 300 299 297 297 295 296 296 294 292 291 289 288 288 286 286 285 284 283 282 282 281 281 281 281 280 279 279 278
314 314 313 313 314 314 312 311 310 309 307 306 305 302 301 299 297 297 296 294 295 295 293 291 289 288 287 286 286 285 285 284 283 282 281 280 280 279 279 279 279 279 278 278
313 313 313 313 312 310 310 308 306 306 305 303 302 301 299 297 296 295 293 295 294 292 290 288 288 287 286 285 284 284 283 282 281 281 280 280 279 279 278 278 278 277 277 276
312 310 312 312 313 310 308 307 305 304 303 301 299 298 297 296 294 293 292 291 291 289 287 287 286 285 284 284 283 282 282 281 280 280 279 279 278 278 277 277 276 276 276 275
308 308 306 306 305 305 304 303 302 300 299 298 297 296 294 292 290 288 287 289 289 288 286 285 285 284 283 282 281 281 280 280 279 279 278 278 277 277 277 276 275 275 274 274
308 308 308 307 306 303 301 300 300 299 298 295 293 293 291 289 289 290 290 287 286 286 284 284 284 283 282 281 280 280 279 279 278 278 277 277 277 276 276 276 275 274 273 273
305 306 307 305 303 300 299 298 297 295 294 294 292 291 291 292 292 289 288 286 284 284 284 283 282 281 281 280 279 279 278 278 277 277 276 276 276 276 275 275 274 273 272 272
304 303 300 298 297 298 297 296 295 294 292 292 293 293 292 290 289 286 285 284 285 284 282 281 280 280 279 279 278 278 277 276 276 276 275 275 275 274 274 273 273 272 272 271
299 299 298 296 295 295 295 295 295 293 293 293 293 290 289 287 285 287 287 286 284 281 280 280 279 279 279 278 277 276 276 275 275 274 274 274 274 273 272 272 271 271 270 270
295 295 294 294 294 292 292 293 294 292 291 290 289 288 287 288 287 286 284 282 281 280 279 279 278 278 277 276 275 275 275 274 273 273 273 273 272 272 271 271 271 270 270 270
293 293 293 293 293 292 292 292 291 290 289 287 287 288 288 286 284 282 281 280 280 279 278 278 277 276 275 274 274 273 273 273 272 272 272 272 271 270 270 270 269 269 269 269
291 291 291 291 291 291 290 288 287 287 287 287 286 285 284 283 283 281 280 279 278 278 277 277 276 275 274 273 272 272 272 271 271 271 270 270 269 269 268 269 269 268 268 268
288 289 289 290 289 287 287 286 286 285 285 284 283 282 282 281 280 280 279 278 278 277 277 276 275 274 272 272 271 271 270 270 270 269 269 268 267 268 268 268 268 267 267 268
288 287 286 286 285 285 285 285 284 283 283 282 282 281 281 281 280 279 278 277 277 276 275 274 273 272 271 271 270 270 269 268 268 267 268 267 267 267 267 267 267 267 267 267
284 284 284 283 283 283 283 282 282 281 281 280 280 279 279 278 277 277 276 275 274 274 273 272 271 271 270 269 269 268 267 267 267 268 267 266 266 267 267 267 267 267 267 267

GFSNGP_850_thetae_057.txt.gz
Theta_e
320 320 320 320 321 321 321 321 323 322 322 322 321 321 321 321 321 320 320 323 325 325 327 329 330 331 329 328 328 326 324 323 324 323 321 320 319 319 318 316 316 314 312 309
320 320 319 319 319 319 320 320 320 320 320 321 320 320 322 321 320 321 320 321 325 328 330 331 329 328 324 321 324 323 323 322 321 320 318 316 316 314 314 313 311 309 306 304
323 320 320 323 319 319 319 319 320 320 321 321 321 321 321 320 321 321 322 322 324 327 328 326 324 323 321 317 319 320 318 317 315 312 312 311 309 307 307 307 305 304 303 303
326 322 327 321 320 320 320 320 320 320 320 321 320 319 320 320 321 322 321 321 322 323 322 320 319 317 316 314 312 311 310 311 310 308 307 305 305 304 303 302 302 302 301 299
327 324 321 320 320 321 320 320 320 321 321 320 319 320 319 318 320 320 319 318 318 318 317 315 315 314 312 311 309 309 308 307 306 305 305 304 303 303 301 301 300 300 298 297
325 325 325 321 320 320 321 324 321 320 320 320 319 321 320 316 318 317 316 315 314 314 314 313 312 311 310 309 308 307 306 305 304 304 303 302 301 301 299 298 296 295 294 294
327 325 322 320 320 320 323 324 320 320 319 319 320 319 319 315 314 313 312 312 312 312 312 311 310 310 309 308 306 305 304 303 302 301 300 299 298 296 295 295 294 294 291 290
326 328 328 320 320 322 323 321 321 320 320 320 319 318 315 313 312 311 311 310 311 310 310 309 309 308 307 306 304 302 300 300 299 297 295 295 295 293 292 291 290 290 288 287
323 324 322 320 320 320 320 321 322 321 320 319 319 316 314 312 311 310 310 310 309 309 308 308 308 307 305 302 301 300 298 297 295 293 292 291 291 290 289 289 288 288 287 287
322 322 322 321 320 320 320 321 321 321 320 319 318 315 313 311 310 309 309 309 308 307 306 305 304 303 301 299 298 297 295 293 291 291 289 288 288 287 288 287 285 285 286 285
320 318 319 320 320 320 320 319 319 318 319 318 317 314 312 310 309 309 308 307 306 305 303 302 300 299 297 297 295 294 292 290 289 288 288 287 286 286 285 285 283 282 282 281
319 316 320 320 320 320 321 320 318 317 317 317 315 313 311 310 309 308 307 305 304 302 300 298 297 295 295 294 292 290 289 288 288 287 286 286 286 285 284 283 282 281 281 280
318 318 319 320 319 318 319 320 319 317 316 315 314 312 310 309 308 306 304 304 302 300 297 294 293 291 290 290 289 288 288 287 286 285 285 285 284 283 284 284 282 281 281 280
317 317 317 316 317 316 315 318 317 315 315 314 312 310 309 307 305 304 303 301 299 295 292 291 289 289 289 288 288 287 286 286 285 284 284 283 283 282 282 282 282 282 281 279
318 317 316 315 314 313 312 313 313 313 313 312 310 308 307 305 302 301 300 297 293 292 290 288 287 286 286 286 286 285 284 284 283 283 282 281 281 280 280 280 280 280 280 279
318 317 315 313 313 311 310 309 311 310 310 309 307 306 304 302 300 297 294 293 291 289 286 285 285 286 285 284 284 283 283 282 281 281 281 280 280 279 279 279 279 279 279 278
315 315 314 312 312 310 309 308 308 307 306 305 304 302 300 299 295 292 291 290 289 286 286 287 286 285 283 282 282 282 281 281 280 279 279 278 278 278 278 277 277 277 277 276
312 311 310 312 312 309 307 306 305 303 303 302 299 298 296 293 290 287 288 287 287 287 286 286 286 284 284 282 282 281 280 280 279 279 278 278 277 277 276 276 276 276 275 274
307 307 306 306 307 307 305 302 301 300 299 297 296 293 290 289 289 288 288 288 287 287 285 285 285 283 283 281 280 280 279 279 278 278 277 277 276 275 275 275 274 273 273 273
299 299 300 301 301 301 299 297 296 295 294 294 293 291 289 288 288 288 287 286 284 286 287 284 282 281 281 280 279 279 278 277 277 276 275 275 274 274 273 273 272 272 272 272
295 295 296 296 295 295 294 293 293 290 289 290 290 289 288 287 287 287 286 286 284 284 282 280 281 280 279 278 278 277 277 276 275 274 274 273 272 272 272 271 271 271 271 270
292 291 291 291 291 289 289 289 289 289 290 290 289 289 288 286 285 284 284 285 283 280 280 280 280 279 278 277 277 276 275 275 274 272 272 272 271 271 270 270 270 269 269 268
289 289 289 289 288 288 289 289 289 290 289 288 287 286 285 284 283 283 283 282 282 281 280 279 278 278 278 277 276 275 273 272 271 271 270 270 269 269 269 268 268 267 267 267
287 287 287 287 288 289 288 287 287 287 286 285 285 284 284 284 283 283 282 281 280 278 278 278 278 278 277 275 273 272 272 271 270 270 270 269 269 268 268 267 267 266 266 266
286 286 286 286 285 284 284 284 284 284 284 283 283 283 283 281 281 280 280 279 278 277 277 277 276 275 274 273 272 271 270 269 269 269 268 268 268 267 267 266 266 265 266 267
284 283 283 283 283 283 283 282 282 282 281 281 280 280 280 280 279 279 278 277 277 276 274 274 273 273 271 270 270 269 268 268 268 268 267 266 266 266 266 265 264 264 265 266
281 281 281 281 280 280 280 280 279 279 279 279 278 277 277 276 276 275 275 274 273 273 272 271 270 270 269 268 268 268 267 267 267 266 265 264 264 264 264 264 263 264 266 266

GFSNGP_850_thetae_060.txt.gz
Theta_e
321 320 321 322 321 320 321 326 327 326 322 322 322 322 322 322 322 321 321 323 323 326 329 330 330 331 331 331 331 331 330 330 328 327 324 323 321 320 318 317 317 316 314 313
322 320 320 321 322 321 320 321 321 322 322 322 321 321 320 322 322 321 320 320 323 325 328 329 331 331 330 330 329 329 328 327 325 323 320 319 318 315 315 313 312 312 310 308
323 321 321 320 321 321 321 321 321 322 322 321 321 321 321 321 322 321 321 321 322 326 329 331 331 329 327 326 324 324 323 322 320 317 315 313 312 310 310 309 307 306 305 304
324 321 324 321 322 320 320 320 320 320 320 320 320 320 321 321 321 321 323 323 323 327 330 328 326 323 322 318 318 318 316 313 313 312 310 308 307 307 305 304 303 303 302 300
325 324 322 321 321 321 321 321 321 320 320 320 320 321 321 320 321 322 322 323 324 326 325 323 322 319 316 314 312 311 311 310 308 308 308 306 305 303 304 302 301 300 299 298
325 324 325 323 322 320 321 321 321 321 322 322 321 323 321 320 320 322 321 321 322 321 320 318 316 315 312 311 310 309 308 308 308 306 305 304 304 302 301 300 299 296 295 295
324 325 325 321 320 320 322 323 322 321 321 321 322 322 320 319 320 320 319 319 318 317 316 315 313 312 310 310 309 308 307 306 305 304 303 302 301 299 297 296 295 294 293 292
323 325 326 321 321 321 322 321 322 321 321 320 321 320 319 318 319 317 316 315 315 314 313 313 311 310 309 308 307 306 305 304 302 301 300 299 297 295 295 294 293 291 289 288
321 323 323 321 320 320 321 322 322 322 321 321 321 319 318 317 316 315 314 314 313 313 312 311 311 310 308 306 305 304 302 300 299 297 296 295 294 292 291 290 289 289 288 286
321 320 321 321 321 321 321 320 320 321 322 321 321 318 316 315 314 313 313 312 312 311 311 310 309 308 306 304 302 301 299 298 296 294 292 291 290 289 289 289 288 286 286 286
321 321 319 317 319 320 320 320 321 320 320 320 321 318 316 314 313 312 312 311 311 310 310 309 308 306 303 301 300 298 296 294 293 291 290 289 289 288 288 287 285 284 284 283
321 318 318 318 316 316 317 318 319 321 320 318 320 318 315 314 312 311 311 311 310 309 307 306 304 301 300 298 297 295 293 291 290 289 289 288 288 287 286 285 284 283 282 282
314 313 316 317 318 319 319 318 318 321 320 318 319 318 315 313 311 311 310 309 308 306 304 301 300 298 297 296 294 291 290 290 289 288 287 287 286 286 285 285 284 283 282 282
313 313 316 317 318 317 316 316 317 319 319 318 318 316 314 312 311 310 308 306 305 303 300 298 296 294 292 291 290 289 289 287 286 286 286 285 284 284 284 284 283 282 282 281
313 316 317 318 317 316 315 314 315 316 316 316 316 314 312 311 309 307 305 304 302 299 295 293 291 289 289 289 289 287 286 285 286 285 284 284 283 282 281 281 281 281 281 280
316 317 317 318 316 314 313 312 311 313 314 314 313 312 310 308 306 304 302 300 297 292 290 288 286 286 285 285 285 287 285 284 284 283 283 282 281 281 280 280 280 280 279 279
313 315 313 314 315 314 313 311 310 310 311 311 310 309 307 304 301 297 294 293 291 289 287 286 285 283 283 284 284 285 285 285 284 282 281 281 280 279 279 279 278 278 278 277
310 310 310 309 310 312 310 308 308 307 307 306 306 304 301 299 295 292 291 290 288 286 285 284 283 283 285 286 288 288 286 283 281 280 280 279 279 278 278 277 277 277 276 276
304 304 305 305 307 308 306 305 304 304 303 302 302 299 296 292 291 289 288 288 287 286 286 287 288 287 287 286 283 282 282 281 280 279 278 278 277 277 277 276 276 276 275 274
298 298 299 300 302 303 301 300 300 299 298 299 297 293 290 289 289 288 288 288 287 287 286 286 286 284 281 282 282 281 280 279 278 278 277 277 276 275 275 274 274 273 273 273
291 292 293 293 293 293 293 293 294 292 290 291 291 290 288 287 287 287 287 286 284 284 285 285 283 283 281 279 279 279 278 278 277 276 275 275 274 274 273 273 273 272 272 271
289 288 288 288 288 288 288 289 289 289 289 288 287 286 286 284 285 285 285 286 284 283 283 282 282 281 280 278 278 277 277 276 275 274 274 273 273 272 272 271 271 271 270 270
287 287 287 287 286 286 286 287 287 287 287 286 286 285 285 284 284 285 284 282 281 280 281 280 279 278 278 278 277 276 275 274 273 273 272 272 271 271 271 270 270 269 268 268
286 286 286 286 287 287 285 285 285 285 284 284 283 283 283 283 282 282 281 280 279 278 278 278 278 277 276 275 274 273 273 272 271 271 271 271 270 270 269 269 268 268 267 266
285 285 285 285 284 283 283 283 283 282 282 282 282 282 281 281 281 279 279 278 277 276 276 275 275 274 274 273 272 271 271 270 270 269 269 269 268 268 268 267 267 266 266 265
283 282 283 283 282 282 282 282 282 281 280 280 279 279 278 278 277 277 276 276 275 275 274 273 272 271 271 271 270 269 269 269 268 268 268 267 267 266 266 266 266 265 264 264
280 280 280 280 280 280 279 279 280 279 279 278 277 277 276 276 275 275 275 274 273 272 272 271 271 270 269 269 268 268 267 267 267 267 266 265 265 265 265 264 264 264 263 264

GFSNGP_850_thetae_063.txt.gz
Theta_e
319 319 321 321 321 320 321 323 326 325 324 322 322 320 319 321 321 321 321 325 326 326 327 327 328 330 332 332 331 329 330 330 330 330 329 327 325 323 321 321 320 319 318 317
318 319 320 321 321 320 320 319 324 323 324 320 320 320 320 320 320 320 321 323 326 327 329 328 328 330 330 331 331 330 329 329 329 326 326 324 323 322 320 319 317 316 315 312
319 319 320 319 319 319 320 320 319 322 322 318 318 317 318 319 321 321 321 320 324 328 329 329 326 328 330 330 328 328 328 326 325 324 323 321 321 318 317 315 312 312 309 307
317 318 321 319 318 319 320 319 318 318 317 317 317 319 319 320 321 321 320 320 321 327 328 329 329 329 330 329 327 325 323 323 322 321 319 317 315 313 312 310 308 305 304 303
320 321 319 319 319 320 320 319 317 317 316 316 318 320 320 321 321 321 321 321 321 326 329 329 330 330 329 327 324 322 320 319 318 317 316 312 310 308 307 305 303 302 300 299
317 321 321 319 319 320 319 319 318 319 318 318 318 317 315 320 319 321 322 322 323 326 329 328 327 326 324 322 320 318 318 315 314 311 309 306 305 304 303 302 300 299 298 297
319 320 319 320 319 320 321 318 319 319 320 320 317 318 320 319 319 319 321 322 324 325 326 325 323 323 321 318 315 314 313 311 309 307 307 305 304 302 301 300 298 297 296 295
318 318 320 319 319 319 318 320 319 319 321 320 320 320 319 319 319 320 320 321 321 322 321 320 319 317 316 313 311 310 309 308 307 305 304 304 302 300 300 298 297 296 295 293
316 316 318 320 320 319 319 320 320 321 320 321 320 319 319 319 319 319 319 319 319 319 317 316 315 314 311 310 309 308 308 306 305 304 303 302 300 298 296 296 295 293 290 289
317 317 317 318 319 320 319 318 319 321 320 321 321 320 319 319 319 318 318 317 317 315 314 313 312 311 310 309 308 307 305 304 302 300 299 298 296 295 294 292 290 289 288 287
317 317 318 318 317 318 317 318 316 317 319 320 320 320 319 318 317 316 315 315 314 314 313 311 311 310 309 308 306 305 302 300 299 297 296 294 293 291 290 290 289 288 286 286
315 315 317 317 317 319 318 317 319 318 319 320 319 320 319 318 316 315 314 313 313 312 311 310 309 309 307 305 304 301 299 297 295 293 292 291 290 289 288 287 285 284 284 283
310 311 311 311 313 317 316 317 317 317 317 319 320 319 319 318 316 314 313 312 311 311 310 309 307 305 303 301 300 299 297 293 291 290 289 288 288 287 286 285 285 284 283 282
313 314 315 314 314 317 317 317 317 316 316 318 318 319 319 317 314 312 311 311 310 309 308 305 302 300 299 298 296 294 293 291 289 288 287 287 287 286 285 285 284 284 283 282
314 316 317 317 318 317 316 316 315 313 314 316 316 317 316 313 312 311 310 309 308 306 302 300 298 295 293 293 292 291 290 289 287 287 286 286 285 284 284 283 282 282 282 281
311 313 314 315 315 315 314 313 313 311 312 313 314 313 312 311 309 307 305 304 305 300 296 295 294 290 289 289 289 289 287 286 286 286 284 283 284 284 282 282 281 280 280 280
308 308 309 310 311 311 310 310 310 310 310 311 310 310 309 308 305 301 298 297 296 291 290 290 288 286 286 286 285 285 286 286 286 286 287 286 285 284 282 280 280 279 279 278
303 306 307 307 309 310 309 308 308 307 308 307 306 305 304 303 299 294 293 292 291 287 286 287 287 287 287 287 288 288 287 287 286 285 284 283 282 280 279 279 278 277 277 277
299 302 304 304 304 305 305 304 304 303 302 302 302 300 297 294 291 290 289 290 290 289 287 287 287 287 286 286 286 286 285 284 283 282 281 281 279 278 277 277 276 276 276 276
292 294 295 296 297 298 297 297 298 298 295 295 296 293 291 288 289 288 289 288 287 287 285 285 285 285 285 284 283 283 282 281 280 279 279 278 276 276 275 275 275 274 274 273
289 290 290 290 290 291 291 290 291 289 289 290 291 289 288 286 287 287 287 286 283 284 284 284 284 284 283 283 281 280 280 279 277 276 276 276 275 274 274 273 273 273 272 272
287 287 287 287 287 287 287 288 288 288 288 287 287 286 286 286 286 285 284 284 282 282 282 282 281 281 280 279 278 277 276 276 275 275 274 273 273 272 272 272 271 271 270 270
285 285 285 285 285 284 285 286 286 286 285 285 285 285 285 284 284 284 282 280 281 280 280 279 279 278 277 276 276 275 274 273 273 272 272 271 271 271 270 270 270 269 269 268
284 284 284 285 285 285 284 283 284 283 283 283 282 282 283 283 281 280 279 278 278 278 277 276 276 275 275 274 273 272 272 271 271 270 270 270 269 269 269 269 268 267 267 267
284 284 283 283 283 282 282 282 282 282 282 281 280 280 280 279 280 278 277 277 276 275 275 274 273 273 272 271 271 270 270 269 269 268 268 268 267 267 267 266 266 266 266 265
282 282 282 282 282 281 281 280 279 279 279 278 277 277 277 276 276 276 275 274 274 273 272 271 271 270 270 269 269 268 268 267 267 267 266 266 266 265 265 264 264 264 264 264
280 280 280 280 280 280 279 279 278 277 277 277 276 275 275 275 274 274 273 272 272 272 271 270 270 269 268 268 267 267 267 266 266 265 265 265 264 264 264 263 263 263 263 263

GFSNGP_850_thetae_066.txt.gz
Theta_e
316 317 317 319 319 318 318 319 321 321 322 321 320 319 319 322 320 320 322 323 324 324 325 325 326 329 328 328 328 328 328 323 322 323 323 327 325 323 325 325 322 321 320 319
318 317 318 318 318 319 318 318 319 321 321 319 320 320 319 321 320 318 321 323 323 324 324 324 323 326 331 330 330 329 329 325 324 322 327 326 327 325 324 322 321 319 319 318
321 317 318 318 318 318 318 318 320 322 320 320 320 319 318 319 319 320 320 321 324 325 324 324 323 322 325 331 332 330 328 325 324 326 324 325 322 320 320 319 318 316 315 314
317 315 320 318 317 317 317 317 317 318 319 320 320 320 320 320 320 320 320 320 322 325 324 325 325 325 327 329 330 329 327 326 326 322 322 321 319 319 317 316 314 313 311 310
319 317 318 318 317 317 318 317 316 317 315 315 317 317 319 319 319 320 320 321 320 322 325 327 327 327 328 328 328 327 326 325 322 320 320 320 318 316 314 312 310 309 307 306
315 319 319 317 316 318 319 318 316 317 317 317 316 315 314 320 320 320 320 320 320 322 326 328 328 328 328 327 326 325 325 324 321 320 319 317 315 313 311 309 306 304 303 301
316 319 317 316 318 318 320 318 318 318 319 318 315 317 320 320 320 320 320 320 320 321 324 327 328 328 327 325 324 323 321 320 319 317 315 313 311 309 307 304 302 301 300 299
315 317 316 318 319 319 316 318 320 319 319 319 319 319 319 319 319 319 319 319 319 320 324 328 329 328 326 323 321 319 317 316 315 312 309 306 307 306 303 302 301 300 298 296
315 315 315 317 319 318 319 319 318 319 318 320 319 319 319 319 319 320 318 318 319 320 323 324 324 324 323 321 318 316 314 312 310 308 307 305 304 302 301 301 300 298 296 295
315 314 314 316 318 315 316 317 318 318 316 317 318 319 319 319 319 320 320 320 320 321 322 321 321 319 318 317 314 312 310 308 307 306 305 303 302 301 301 299 297 296 295 294
314 315 316 317 317 317 317 316 316 316 317 317 318 319 320 319 319 319 319 319 319 319 319 318 316 315 314 313 311 309 308 307 305 304 303 302 299 297 296 296 295 294 292 289
313 314 315 316 313 314 316 316 316 316 317 317 317 319 319 319 319 319 318 318 318 317 316 315 313 312 311 310 309 308 307 305 303 302 300 298 296 294 292 291 290 289 288 287
311 314 315 313 313 314 314 316 317 317 316 316 316 318 319 319 317 317 316 316 315 315 313 312 311 310 309 308 308 307 306 302 299 297 296 295 293 291 290 288 287 285 283 282
311 314 314 315 315 315 317 316 315 314 315 315 316 317 318 317 316 315 314 314 313 313 311 310 309 308 306 305 305 303 301 297 295 292 290 289 288 287 286 285 285 285 284 283
308 310 311 314 314 314 314 314 315 315 314 314 314 315 316 315 313 312 312 311 310 310 308 305 305 302 299 300 300 298 295 291 290 289 288 288 287 287 287 286 284 284 284 283
306 307 310 310 310 311 311 312 312 312 312 312 312 312 311 311 309 307 304 303 309 305 299 300 299 294 294 294 294 291 290 290 289 288 286 287 287 285 284 284 285 283 282 281
302 302 304 306 307 307 307 307 309 309 309 309 307 305 304 305 303 301 298 297 298 294 291 291 289 288 289 289 290 291 290 288 287 288 288 286 285 285 284 283 281 281 280 280
299 298 300 302 304 303 303 304 304 304 304 302 302 301 300 298 296 292 290 289 289 288 289 289 290 290 290 289 288 288 287 287 286 285 285 284 283 282 281 280 279 279 278 277
295 297 297 298 299 299 299 299 298 297 296 296 296 295 293 290 288 286 287 289 289 289 285 286 286 286 286 286 286 286 285 285 284 283 282 281 280 279 278 277 277 276 276 276
289 290 291 291 291 292 290 290 291 291 290 291 290 289 288 287 288 288 288 286 285 284 283 284 285 285 285 284 284 283 282 282 281 280 279 278 277 277 276 275 275 274 274 273
286 287 287 287 287 287 287 288 289 288 288 289 289 287 286 286 286 286 286 283 281 283 283 283 283 283 282 282 281 281 280 279 278 277 276 275 275 274 273 273 273 272 272 271
285 284 284 285 285 285 285 286 286 286 286 286 285 285 285 284 284 283 282 281 280 281 281 280 280 280 280 279 278 278 277 276 275 274 274 273 272 272 271 271 271 270 270 269
284 284 284 284 284 284 284 284 284 285 284 284 284 284 283 282 281 281 280 278 279 279 279 278 277 277 276 276 276 275 274 273 273 272 271 271 270 270 270 269 269 268 268 267
283 283 283 283 284 284 283 282 283 282 282 282 281 281 281 280 279 278 278 277 277 277 277 275 275 274 274 273 273 272 271 271 270 270 269 268 268 267 267 267 266 266 266 265
282 282 282 281 281 280 280 281 281 280 280 279 279 279 279 278 278 276 276 276 275 275 274 273 272 271 271 270 270 269 269 268 268 267 267 266 266 266 265 265 264 264 264 264
282 281 281 281 280 280 280 280 279 278 278 277 277 276 276 275 275 275 274 273 273 272 271 271 270 270 269 268 268 268 267 267 266 266 265 265 265 264 264 264 264 263 263 263
280 279 279 279 279 279 278 278 278 276 276 276 275 274 274 274 273 273 272 272 271 270 270 269 268 268 267 267 267 267 266 266 266 265 265 265 265 264 264 264 264 263 264 264

GFSNGP_850_thetae_069.txt.gz
Theta_e
319 318 317 317 317 317 317 317 317 318 317 316 316 317 317 320 319 320 319 320 323 324 324 324 325 326 327 327 327 326 325 325 324 324 324 325 324 324 322 323 323 322 322 321
318 317 316 316 316 317 316 316 317 317 317 318 318 319 318 319 320 321 320 320 321 323 324 323 322 323 325 327 327 327 326 326 325 326 326 327 327 326 323 323 322 321 322 323
317 316 317 319 317 316 316 317 317 318 317 317 317 316 317 320 321 321 322 321 321 322 324 322 322 321 321 323 326 327 327 327 327 326 326 322 324 325 322 321 324 323 321 320
317 316 321 319 315 316 316 316 316 317 317 317 317 319 320 320 320 320 321 322 320 321 323 323 323 323 323 324 326 327 328 328 327 326 326 324 323 324 325 324 324 322 321 319
314 316 317 314 317 316 316 317 315 315 314 314 317 315 315 318 318 318 320 321 320 320 320 322 324 324 324 324 327 328 329 329 328 326 324 323 325 325 323 322 321 319 317 315
314 316 316 311 314 312 315 318 315 317 316 314 315 314 312 319 319 319 319 319 320 319 319 322 324 325 325 326 327 328 329 327 325 324 324 323 322 321 320 320 317 315 313 311
315 316 313 313 313 316 320 317 318 318 317 316 314 315 319 319 319 319 319 319 319 319 320 322 325 326 326 327 327 327 327 324 324 324 323 321 320 319 316 314 312 310 309 305
314 316 312 314 316 321 316 318 318 318 317 318 319 319 319 319 318 319 319 319 319 320 320 320 323 326 327 326 326 325 324 324 323 321 319 318 316 314 312 310 308 305 303 300
311 312 312 312 313 313 314 318 318 317 318 317 317 318 319 318 318 320 320 319 318 318 318 320 324 326 326 325 324 323 321 320 319 317 314 313 312 309 306 304 303 302 300 298
312 311 312 312 312 314 317 317 317 318 317 317 317 317 317 318 318 319 321 320 318 319 322 323 325 326 325 324 322 319 317 316 313 311 309 307 305 304 304 302 301 300 299 298
310 311 313 314 315 315 316 316 316 317 317 316 318 317 316 317 318 319 319 320 321 321 322 323 323 322 321 320 318 315 313 311 309 307 306 305 303 302 301 301 300 299 297 295
309 311 310 313 315 313 313 315 316 316 316 316 316 317 318 316 316 318 318 318 320 320 321 320 320 318 317 315 313 312 309 307 306 305 304 303 302 301 297 296 294 293 292 291
307 308 307 312 314 314 313 313 315 316 317 316 316 316 314 315 313 317 317 317 318 318 318 317 316 315 313 312 310 309 308 307 306 304 303 302 299 297 295 290 290 289 288 287
306 306 311 311 310 312 313 314 314 314 314 314 314 315 316 314 312 314 313 315 315 315 314 313 311 310 308 310 309 308 307 305 303 301 298 295 293 291 290 289 288 286 284 284
305 305 306 308 310 311 311 312 313 312 311 311 312 313 312 313 312 310 309 310 311 310 309 307 307 306 305 305 305 304 302 298 296 292 290 289 289 289 288 288 287 287 286 284
301 303 305 306 305 307 308 308 307 305 306 307 308 308 307 306 303 302 303 303 306 304 300 301 300 298 298 298 298 293 291 290 290 291 291 290 289 288 288 287 286 285 284 283
297 300 299 300 301 302 302 300 299 299 300 300 298 297 298 300 299 296 295 295 296 295 293 294 291 290 291 292 293 292 291 290 289 289 287 286 286 285 285 284 283 282 281 280
293 294 294 294 295 298 299 298 297 295 294 293 293 293 293 294 291 289 289 288 288 289 289 289 290 291 291 290 290 289 289 288 287 286 285 284 283 283 282 281 280 279 279 278
290 290 290 292 293 292 291 290 289 290 289 289 291 290 287 286 287 287 288 289 289 288 285 286 287 287 287 286 287 286 285 285 284 283 282 281 280 280 279 278 277 276 276 275
287 287 288 288 288 288 287 287 287 287 286 288 287 286 286 286 286 287 287 284 283 282 283 284 284 284 284 283 284 283 282 282 281 280 279 279 278 277 276 275 274 274 273 273
285 286 285 285 285 285 285 285 286 285 285 286 287 285 284 284 284 284 284 281 280 281 282 282 282 282 281 281 281 281 280 279 279 278 277 276 275 274 274 273 272 272 271 271
283 283 283 283 284 283 283 284 284 284 284 284 283 283 283 282 282 281 280 279 279 280 280 280 279 279 279 279 278 278 277 276 276 275 274 273 272 272 271 270 270 269 269 268
282 282 282 283 283 282 284 284 283 284 283 282 282 282 281 280 280 280 278 277 278 278 278 277 276 276 276 276 275 274 274 273 272 271 271 270 269 269 269 268 268 267 267 266
281 281 281 282 283 283 282 281 282 281 281 281 280 280 280 279 277 277 276 276 276 276 275 274 274 273 273 272 271 271 270 270 269 269 268 268 268 267 267 267 266 266 265 265
282 282 282 281 281 280 280 280 281 280 280 279 278 278 278 277 278 275 275 274 273 273 273 272 271 270 270 269 269 269 268 268 268 268 267 267 267 266 266 266 266 265 265 265
282 281 281 281 280 280 280 280 279 278 278 278 276 276 275 275 274 274 273 272 272 271 270 270 269 269 269 268 268 268 268 267 267 267 267 266 266 266 266 266 265 265 265 265
280 279 279 279 279 278 278 277 277 276 275 275 275 274 273 273 272 272 271 271 270 269 268 268 268 268 268 268 268 268 267 267 267 267 266 266 266 266 266 266 265 265 265 265

GFSNGP_850_thetae_072.txt.gz
Theta_e
319 319 318 318 318 316 314 315 316 316 316 315 315 315 315 319 320 318 320 319 321 320 322 323 323 324 324 324 325 325 325 325 325 325 321 319 318 318 318 320 321 321 320 320
317 317 317 317 317 315 314 314 314 314 315 314 314 315 315 317 318 319 319 320 321 320 322 322 323 323 323 322 323 325 325 326 325 325 325 324 322 321 321 321 323 323 322 321
315 317 316 314 316 315 315 314 315 316 315 315 315 316 316 319 320 320 321 320 321 321 320 321 322 322 322 321 322 323 323 325 326 325 325 325 324 324 323 323 324 324 324 323
313 314 317 312 314 313 315 315 314 313 315 315 315 317 318 319 319 319 320 320 320 321 321 321 321 323 322 322 323 323 324 325 326 326 326 325 325 324 324 324 321 322 321 320
310 314 313 312 311 316 313 313 312 314 314 313 316 314 314 317 317 318 318 318 318 320 321 321 321 323 323 323 323 323 324 325 325 326 326 326 325 325 324 324 323 321 320 320
313 314 313 309 312 313 314 312 314 315 314 313 313 314 312 318 317 319 319 319 318 318 318 320 320 321 324 324 324 324 325 325 326 326 326 324 323 322 321 320 320 319 318 317
314 314 312 310 314 315 317 312 313 316 316 315 312 314 316 317 318 318 319 319 318 319 317 317 318 319 324 325 324 325 326 326 325 324 324 322 322 321 321 320 318 316 314 313
313 314 314 311 316 319 315 312 312 314 317 316 316 316 316 317 318 319 318 318 319 319 317 317 319 322 324 324 325 325 324 325 324 324 322 322 322 320 319 315 313 312 310 309
309 310 309 311 312 313 312 312 312 313 314 316 317 316 316 316 317 318 319 320 320 320 320 322 323 324 324 324 325 325 324 324 324 323 322 318 317 318 314 311 311 310 309 307
309 307 308 309 310 311 312 312 313 313 316 317 316 317 317 317 317 316 317 320 321 322 322 321 322 323 324 324 324 324 323 322 321 318 317 316 314 310 311 310 309 308 306 303
308 307 310 310 311 312 312 313 314 315 316 316 316 317 316 317 317 317 313 317 318 320 322 322 323 324 324 323 322 322 319 318 316 314 311 310 308 307 306 305 305 305 303 301
306 307 306 308 309 310 311 312 313 313 315 315 316 315 316 316 315 316 314 315 317 318 320 321 321 321 321 320 319 318 316 314 313 310 307 306 306 304 303 302 301 301 300 299
307 305 306 308 309 309 309 309 312 314 314 314 314 314 314 315 313 313 315 314 315 315 317 317 319 318 316 315 314 312 311 310 309 308 306 305 303 303 303 299 297 295 293 292
304 304 306 305 305 306 308 307 309 309 309 311 310 311 313 313 312 310 311 312 313 313 313 312 311 310 311 310 310 309 308 308 307 306 304 302 299 297 295 293 292 291 291 290
301 301 302 304 304 304 306 304 306 306 306 309 308 307 306 306 305 302 301 304 305 306 304 306 307 307 303 304 305 305 303 301 299 297 295 293 291 291 291 291 290 289 287 286
296 300 301 303 299 301 302 302 299 299 300 300 301 300 298 297 296 296 297 297 302 299 297 298 298 295 296 297 298 297 295 293 292 291 291 291 290 289 288 287 286 285 284 283
294 297 297 297 295 296 296 295 295 294 294 295 292 292 293 293 293 292 292 292 293 292 291 291 290 290 291 292 293 292 291 290 290 290 289 288 287 286 285 284 283 282 281 280
291 292 292 292 293 294 293 292 291 289 289 290 290 291 290 289 287 286 287 288 288 288 288 288 289 290 290 290 290 289 289 288 287 286 285 284 284 283 282 281 280 280 279 278
287 287 288 289 288 289 288 287 287 287 287 288 289 287 287 286 285 285 286 287 285 285 284 286 287 287 287 286 287 286 286 285 284 283 283 282 281 280 279 279 278 277 276 276
284 284 285 285 285 285 285 284 284 284 284 285 285 285 285 284 285 285 286 284 281 281 283 284 285 285 284 284 284 284 283 283 282 281 280 280 279 278 277 276 275 274 274 273
282 282 282 282 282 283 283 283 283 283 283 284 285 283 282 282 283 282 282 280 279 281 281 282 282 282 282 282 282 281 281 280 279 278 277 276 275 274 273 273 272 271 271 270
281 281 281 281 281 281 281 282 283 283 283 282 282 282 282 281 281 280 279 278 278 279 280 279 279 278 279 279 278 277 276 275 274 273 273 272 271 271 270 270 269 269 269 268
281 281 281 281 281 281 281 282 281 281 281 281 281 281 281 279 279 279 277 276 277 278 278 276 275 274 274 274 273 273 272 271 271 270 270 269 269 269 269 269 268 268 268 267
281 281 281 281 281 282 281 280 280 280 280 279 279 279 279 278 277 276 275 274 274 274 274 272 272 271 271 271 270 270 270 269 269 269 269 269 268 268 268 268 268 268 267 267
281 281 281 282 281 280 279 279 280 279 279 278 277 277 276 275 276 273 273 272 272 272 271 270 270 270 270 269 269 269 269 269 269 269 268 268 268 268 268 267 267 267 267 267
281 280 280 280 279 279 279 279 278 277 277 276 275 274 274 273 272 272 271 271 270 269 269 269 269 269 269 269 269 269 269 268 268 268 268 268 267 267 267 267 267 267 267 267
279 279 279 278 278 277 277 276 276 275 274 274 274 272 272 271 271 270 270 269 269 269 269 269 269 269 269 268 268 268 268 268 267 267 267 267 267 267 267 267 267 266 266 266

GFSNGP_850_thetae_075.txt.gz
Theta_e
314 313 314 316 317 317 318 318 317 317 317 317 318 319 319 319 318 318 318 319 320 320 320 322 322 322 322 324 325 325 325 325 325 325 321 316 315 315 315 315 315 315 315 315
316 315 314 316 316 314 317 317 316 316 316 315 316 316 314 315 316 316 318 318 319 320 320 320 321 321 322 321 322 323 324 324 324 324 324 324 320 317 316 316 315 315 316 317
316 317 317 315 313 316 315 316 316 318 317 316 317 317 316 317 317 317 318 319 320 320 320 321 320 321 322 321 321 322 322 322 323 324 324 324 324 322 320 318 317 317 318 320
314 314 316 312 314 315 314 315 315 315 314 315 315 316 316 317 318 318 319 319 318 319 320 321 321 321 321 322 321 321 322 322 323 323 324 324 323 323 322 321 321 322 322 322
316 315 313 312 311 312 315 314 316 316 317 317 315 314 314 315 316 317 317 317 318 317 318 318 319 320 320 321 322 322 322 322 323 324 324 324 324 324 323 322 323 322 322 322
312 315 315 311 312 315 313 315 315 316 318 317 317 318 317 316 316 316 316 317 318 318 318 318 318 318 319 319 322 322 322 323 324 324 325 325 324 323 322 323 323 321 321 320
312 313 314 312 312 316 315 315 314 313 315 317 317 316 315 316 317 317 318 318 318 318 319 318 318 317 317 320 323 323 323 323 324 324 324 323 323 322 322 321 320 319 318 318
312 313 313 310 315 315 314 314 312 312 312 315 315 315 315 316 317 316 315 319 319 319 319 318 317 317 319 322 324 324 324 324 324 322 323 322 321 322 321 320 320 318 317 313
313 313 310 311 311 309 310 312 312 312 312 312 314 315 316 316 316 317 316 317 320 321 320 320 320 319 320 322 323 324 323 323 323 324 323 322 321 319 319 317 317 314 310 307
310 310 310 308 308 310 310 310 311 312 312 312 314 315 316 315 316 315 316 316 318 320 321 321 321 322 323 323 323 323 322 321 322 322 321 319 317 314 313 313 312 308 306 304
309 309 309 309 309 308 309 310 311 312 312 313 314 314 314 314 315 313 314 315 316 318 320 319 319 320 321 322 321 322 321 320 320 319 317 316 314 311 308 306 305 306 305 303
309 306 305 306 307 306 306 306 306 306 309 311 312 311 311 311 312 312 312 313 315 317 318 318 319 318 317 319 321 320 318 317 315 313 312 310 308 306 303 303 303 301 300 299
305 304 305 306 306 306 305 304 303 304 304 306 308 310 307 308 307 309 311 313 314 314 316 317 316 316 312 312 314 315 315 313 310 308 307 304 303 303 303 298 298 297 295 293
301 302 305 304 304 303 303 304 301 299 304 299 299 303 303 303 303 304 304 304 305 306 305 307 312 311 308 307 310 311 311 310 308 307 304 302 299 297 295 294 293 290 289 290
295 296 298 300 301 301 300 305 301 303 305 300 298 297 296 302 299 295 296 298 300 301 300 301 304 302 304 305 309 309 307 303 299 297 296 294 293 292 292 291 290 290 288 287
294 295 297 297 296 296 297 300 296 293 295 293 291 292 291 292 293 294 294 295 300 295 292 295 295 293 294 295 297 295 294 293 293 292 291 290 290 290 289 288 287 286 285 284
291 293 292 292 292 291 291 291 291 290 290 287 286 286 289 290 290 290 290 290 291 290 289 290 290 291 291 292 292 291 290 290 290 290 290 288 288 287 286 285 285 283 282 281
287 289 289 289 288 288 287 287 287 286 286 286 287 287 287 287 286 285 285 287 288 288 288 287 288 289 289 289 289 289 289 288 287 287 286 286 285 284 284 283 282 281 279 279
285 285 286 286 286 286 284 283 283 283 283 284 285 285 284 284 284 284 286 287 285 284 283 285 287 287 286 286 287 286 286 286 285 284 283 283 282 281 280 279 278 278 277 276
283 282 282 283 283 283 282 281 282 282 281 283 283 283 282 281 282 282 283 282 280 280 282 284 284 284 284 284 284 284 284 283 282 281 281 280 279 278 277 276 276 275 274 273
281 281 280 280 280 281 281 281 282 281 281 282 283 281 281 280 281 281 281 279 278 280 280 281 282 282 282 282 282 282 281 280 279 278 277 276 275 274 273 272 272 271 270 270
280 280 280 280 280 280 280 281 281 281 281 281 280 280 280 279 279 279 278 277 277 278 279 279 277 276 276 276 276 275 275 274 273 273 272 271 271 270 270 270 270 269 269 269
280 280 280 280 280 280 280 280 280 280 280 280 280 279 279 278 278 278 277 275 275 275 274 273 272 272 272 273 272 272 272 271 271 271 270 270 270 269 269 269 269 268 268 268
280 280 279 280 280 281 280 279 279 279 279 278 278 277 278 277 275 274 273 272 272 272 272 271 271 271 271 271 271 271 270 270 270 270 269 269 269 269 268 268 268 268 268 267
280 280 280 280 280 279 278 278 278 278 277 277 276 275 275 274 274 272 272 271 270 270 270 270 270 270 270 270 270 270 269 269 269 269 268 268 268 268 268 268 268 267 267 267
280 280 280 280 279 278 278 278 278 276 276 275 274 273 273 272 271 271 270 270 270 269 270 269 269 269 269 269 269 269 268 268 268 268 268 268 268 267 267 267 267 267 267 267
279 279 278 278 277 277 276 276 275 274 274 273 273 272 271 270 270 269 269 269 269 269 269 269 268 268 268 268 268 268 268 268 267 267 267 267 267 267 267 267 267 267 267 267

GFSNGP_850_thetae_078.txt.gz
Theta_e
317 317 315 317 317 318 318 320 322 320 319 319 318 319 319 318 319 320 320 320 320 321 325 327 327 327 326 325 324 324 324 323 324 321 318 317 317 317 317 317 318 317 317 317
312 313 313 313 314 316 317 317 318 320 320 319 318 318 318 318 318 318 318 319 320 320 320 324 326 327 326 325 323 324 324 324 324 324 323 321 319 317 318 318 318 319 319 318
314 314 313 315 315 315 316 319 320 320 316 317 317 317 318 318 319 319 319 319 320 320 319 320 322 324 323 322 324 323 323 324 324 324 324 324 322 321 319 319 318 318 318 317
314 316 315 314 314 316 318 316 317 317 316 319 319 318 318 317 318 318 318 318 319 320 319 319 319 321 322 325 322 322 322 322 322 323 323 323 322 322 322 320 319 319 319 319
315 313 312 312 312 314 315 314 318 318 318 319 319 319 319 318 318 317 317 317 316 317 317 317 318 319 322 325 324 323 322 322 322 322 322 322 323 322 321 320 320 320 320 320
314 312 313 313 314 315 314 314 315 317 316 316 317 322 321 317 318 318 318 319 319 317 318 318 317 317 319 323 325 322 321 322 323 323 322 322 322 322 321 322 321 321 322 322
312 314 314 313 312 315 315 315 313 313 312 312 315 316 316 316 317 317 317 318 318 319 319 319 318 318 317 321 323 324 324 324 323 323 323 322 322 323 323 323 323 321 321 321
311 312 313 313 313 314 313 312 313 313 313 315 315 314 315 316 317 317 317 318 317 320 321 319 318 318 321 323 324 324 324 323 323 323 323 324 322 322 323 322 322 321 320 319
312 312 313 313 312 312 313 313 313 313 313 314 315 315 315 317 317 316 316 318 318 318 321 320 319 318 320 320 320 321 322 322 322 322 322 322 322 321 321 319 318 317 316 315
312 311 311 311 311 311 311 311 311 310 310 313 313 315 316 316 316 315 316 316 317 317 319 320 319 319 318 318 319 320 321 320 321 321 321 321 320 318 318 318 317 315 313 310
309 310 310 310 310 309 308 309 309 307 306 306 305 308 308 311 312 311 310 311 313 313 317 319 318 318 317 317 318 320 320 320 320 318 319 319 316 315 312 310 309 310 308 305
309 309 308 309 308 306 307 307 306 304 303 302 301 301 301 302 302 310 303 306 311 311 313 315 317 317 318 316 316 317 318 316 315 315 314 311 310 309 304 303 303 302 301 301
306 304 305 306 307 305 303 303 302 301 299 299 298 298 298 297 299 312 300 302 304 306 308 310 309 311 309 314 310 313 312 311 309 308 307 305 305 302 302 296 296 296 295 295
298 300 304 303 301 300 301 299 298 297 297 296 294 294 300 295 296 299 301 299 299 302 303 304 304 305 309 307 308 306 306 307 307 304 302 301 299 296 294 293 292 290 289 290
295 295 297 298 299 299 298 298 296 294 295 297 290 290 297 292 293 292 291 295 296 297 297 298 300 299 298 299 302 301 303 300 299 298 295 293 292 292 292 290 289 287 286 286
292 295 296 295 294 293 294 294 292 290 290 289 289 288 290 291 290 290 291 292 295 292 291 292 293 292 294 295 296 295 294 293 293 292 290 289 289 287 286 286 284 284 283 282
291 293 291 293 292 291 289 288 287 287 286 285 285 284 286 287 287 287 286 287 288 288 288 289 288 290 291 291 291 290 290 290 289 288 288 287 287 287 285 284 283 282 282 280
288 288 288 288 288 287 286 285 284 284 283 282 283 283 284 285 283 283 284 285 286 287 286 287 287 288 288 288 289 289 288 288 288 287 287 286 285 284 283 282 280 280 279 279
285 285 285 285 284 284 283 281 282 282 282 282 282 282 282 282 282 283 284 285 285 284 283 284 286 286 286 286 287 286 286 286 285 284 283 283 283 282 281 279 278 277 275 275
283 282 282 281 281 281 280 279 280 280 280 281 281 281 281 280 281 283 283 282 280 280 282 283 284 284 284 284 284 284 284 283 282 281 281 280 279 277 277 276 273 273 272 271
280 280 279 279 279 280 280 280 280 281 281 282 282 281 281 280 280 280 280 280 279 280 281 282 282 282 281 282 282 281 280 280 279 278 276 275 274 273 272 271 271 270 270 269
279 279 279 279 279 279 279 280 280 280 280 280 279 279 279 279 279 279 278 277 277 278 277 276 275 274 275 275 275 275 274 274 273 273 272 272 271 271 270 270 269 269 268 268
279 279 279 279 279 278 279 279 279 279 279 279 279 278 278 277 275 274 274 273 273 273 273 273 272 272 272 273 273 272 272 272 272 271 271 271 270 270 270 269 269 269 269 269
279 279 279 278 279 279 279 278 278 278 278 277 277 276 274 273 273 272 271 271 271 271 272 271 271 271 272 272 271 271 271 271 270 270 270 270 269 269 269 269 269 269 269 268
279 279 278 278 278 277 277 277 276 276 276 275 274 274 273 272 272 271 270 270 270 270 270 270 270 270 270 270 270 270 269 269 269 269 269 269 269 269 269 268 268 268 268 268
279 279 279 279 277 277 276 274 273 273 273 273 273 272 271 271 270 270 269 269 270 269 270 269 269 269 269 269 269 269 269 269 269 268 268 268 268 268 268 267 268 268 268 267
278 278 277 277 277 276 275 273 272 271 271 271 271 271 270 269 269 269 269 269 269 269 269 269 269 269 269 268 268 268 268 268 268 267 267 267 267 267 267 267 267 267 267 267

GFSNGP_850_thetae_081.txt.gz
Theta_e
318 319 317 319 320 320 320 321 322 322 322 321 320 320 320 319 319 319 319 320 321 321 324 328 329 328 329 329 328 328 326 325 324 324 324 323 322 323 323 322 322 321 321 321
314 314 316 316 316 317 317 318 318 318 319 319 320 320 319 319 319 319 319 320 320 321 321 322 328 329 329 329 328 328 327 326 325 324 324 323 323 322 321 321 322 322 321 321
315 314 316 317 316 316 316 316 317 319 319 317 318 318 319 318 318 318 319 320 320 320 321 321 321 326 329 329 329 328 328 328 327 326 325 324 323 323 322 322 321 320 320 320
315 315 316 315 315 316 317 317 318 319 318 318 318 318 318 320 320 320 320 320 320 320 319 321 321 322 324 328 329 328 328 328 327 327 326 325 325 324 323 322 322 322 321 321
313 313 312 312 313 313 314 316 318 318 318 318 318 318 320 320 319 319 320 320 320 321 322 321 321 320 321 324 327 328 328 327 327 327 327 326 326 325 324 323 323 322 322 321
313 313 312 312 314 314 315 315 317 317 316 315 315 318 320 317 317 318 319 319 320 321 323 323 323 322 320 320 323 326 327 327 327 327 326 326 326 325 325 324 323 323 322 321
313 313 313 315 314 314 316 316 314 314 315 315 317 316 315 315 315 318 318 318 319 321 322 322 321 321 322 322 321 322 326 327 326 326 326 325 325 325 324 324 323 322 321 321
312 314 314 312 313 315 315 314 314 314 314 314 314 315 315 315 316 318 318 318 319 320 320 317 318 318 322 324 323 323 323 325 326 326 325 325 325 324 324 323 322 321 321 320
311 312 314 315 313 314 313 313 314 313 312 312 313 314 316 316 317 318 317 317 318 319 318 315 316 318 319 320 321 323 324 325 326 325 324 324 324 323 322 321 321 322 321 319
314 314 313 312 313 312 312 312 311 311 310 310 310 311 311 314 314 312 313 312 312 313 310 312 314 315 317 316 317 319 319 320 321 322 322 321 321 320 319 319 320 318 319 317
311 311 311 312 311 310 309 310 309 309 309 308 307 307 306 308 306 306 307 305 304 310 312 311 312 312 314 315 316 315 315 316 316 316 316 316 314 314 313 312 310 312 311 310
312 310 311 311 308 307 308 307 306 306 305 305 304 303 303 303 300 299 299 297 298 305 310 309 308 307 311 314 311 312 311 309 308 308 308 306 306 306 301 304 302 301 303 302
305 303 305 307 305 302 303 304 303 302 302 301 301 300 299 298 295 294 293 294 296 302 305 302 304 306 306 305 306 307 309 306 303 299 301 302 302 301 299 294 295 293 294 293
300 300 304 302 301 298 299 298 298 298 298 297 296 295 295 293 290 289 294 296 294 296 298 297 298 300 298 298 301 301 302 304 302 302 299 296 296 294 294 293 289 287 288 288
297 297 298 298 298 298 296 295 295 293 292 293 292 292 290 289 289 289 289 294 294 292 292 293 295 295 295 296 297 297 298 296 294 294 294 293 291 289 288 286 286 285 284 285
295 296 297 296 296 295 295 294 294 292 290 288 287 287 285 285 285 286 288 289 292 289 288 290 291 289 290 292 293 293 292 292 291 289 288 287 287 286 285 284 283 283 283 282
293 294 292 293 292 292 291 290 289 287 286 285 284 283 283 283 283 283 283 285 287 287 287 287 287 288 289 289 289 289 289 289 288 288 287 286 285 285 284 283 283 282 281 280
289 289 289 289 289 289 288 286 285 284 282 282 282 283 283 282 281 281 281 281 285 286 286 286 287 287 288 288 288 288 288 287 286 285 284 284 282 282 282 281 280 279 278 278
286 286 286 285 285 285 285 283 281 280 280 281 282 282 282 282 282 281 281 282 283 283 281 283 285 286 286 286 286 286 286 285 284 283 282 282 282 280 279 278 277 276 276 275
284 283 283 282 282 282 281 280 280 279 279 279 280 280 280 279 279 280 280 280 278 278 280 282 283 283 283 283 284 283 282 282 281 280 279 278 277 276 275 274 274 273 273 272
281 280 279 279 278 279 278 278 278 278 279 279 280 280 279 278 278 277 278 278 277 278 279 279 279 277 277 276 277 277 277 276 275 274 273 273 273 272 272 272 272 271 271 271
280 279 278 278 278 278 277 278 278 278 277 277 277 276 277 277 278 278 276 274 273 274 274 274 274 274 274 274 274 273 272 272 272 272 271 271 271 271 270 270 270 270 269 269
279 278 278 278 278 277 278 278 278 278 278 277 277 277 277 276 274 273 273 272 272 273 273 273 272 273 273 272 271 271 271 271 270 270 269 269 269 269 269 269 268 268 269 268
279 278 278 278 278 278 277 277 277 277 277 277 276 275 273 272 272 271 271 271 271 272 272 271 271 272 272 271 271 270 270 269 269 269 269 269 268 268 269 269 269 268 269 269
279 278 278 278 278 277 277 276 276 274 274 273 272 272 272 272 271 270 270 270 271 270 271 270 271 271 271 271 271 270 270 270 270 269 269 268 268 268 269 269 269 269 268 268
278 277 277 277 276 276 276 276 275 274 273 272 271 270 270 269 269 269 270 270 270 270 270 270 270 270 269 270 269 269 269 268 269 269 268 268 268 268 268 268 268 268 268 268
277 277 277 276 275 275 275 275 274 273 272 271 270 269 269 269 269 269 268 268 268 267 267 268 269 269 269 268 268 268 267 268 268 268 268 268 268 268 268 268 268 268 268 268

GFSNGP_850_thetae_084.txt.gz
Theta_e
314 318 318 320 320 320 319 321 323 322 322 323 322 322 321 320 320 319 319 319 320 320 321 327 328 329 330 330 329 329 326 324 326 326 325 325 326 325 323 323 323 323 323 322
312 315 315 315 318 316 320 321 321 320 320 322 322 319 320 319 319 319 320 320 320 320 320 321 322 328 329 329 330 330 329 327 325 326 326 325 325 325 325 323 323 323 323 323
313 313 315 318 317 316 316 316 317 318 319 319 319 318 318 319 321 320 320 320 320 320 321 320 320 321 329 329 329 330 330 329 327 325 325 326 326 324 324 324 324 324 323 322
314 313 318 316 316 316 317 316 316 317 320 318 318 318 320 320 319 320 320 320 320 321 322 323 322 320 321 322 329 329 329 330 329 328 327 326 326 326 324 323 324 324 324 324
314 313 312 312 313 313 313 314 318 319 318 317 316 316 320 318 317 317 319 320 319 320 322 324 324 323 322 320 321 328 330 329 329 329 328 328 327 326 325 325 324 324 323 323
314 313 312 311 312 314 314 314 317 316 316 316 316 319 319 315 315 315 317 319 319 321 322 321 318 320 321 323 322 322 323 329 329 329 328 328 328 327 326 325 325 324 324 324
313 314 313 312 314 314 315 318 315 315 315 315 316 316 316 316 315 316 318 318 319 321 320 319 317 319 320 323 324 323 323 322 327 328 328 328 328 328 327 327 326 325 324 324
312 313 314 313 313 315 316 314 314 314 313 313 312 313 315 316 316 317 317 317 317 318 317 314 315 317 317 319 320 321 322 323 324 328 328 327 328 327 327 327 327 326 325 324
311 311 312 315 315 314 314 314 313 312 311 311 311 312 312 313 313 312 311 309 308 307 307 312 313 314 316 317 318 319 318 319 322 324 326 326 325 326 326 326 326 325 324 323
313 313 314 313 312 311 312 311 310 310 310 309 309 309 308 310 307 307 306 303 302 303 305 307 309 311 313 314 314 315 317 316 318 318 321 322 323 323 323 324 324 323 323 319
313 312 312 310 310 309 309 308 307 307 307 306 306 305 305 305 301 300 300 297 297 297 301 304 306 308 310 310 310 309 313 313 311 309 310 312 314 313 312 310 310 315 313 305
314 307 308 307 306 306 306 306 305 304 304 303 302 302 302 301 296 295 293 292 296 298 299 301 302 304 307 309 306 306 308 311 309 306 302 301 299 299 297 296 297 297 299 300
304 303 307 305 302 301 301 301 300 299 297 297 296 296 297 295 294 291 290 292 293 293 295 297 298 299 301 302 302 304 303 303 302 304 302 299 300 298 294 289 290 290 289 291
299 301 303 301 300 299 299 298 299 296 294 293 293 293 292 293 293 293 290 288 289 290 290 292 295 297 296 296 298 298 299 299 298 296 295 292 291 290 288 286 285 285 285 286
297 299 299 299 298 298 297 297 297 294 292 290 288 287 287 287 286 287 288 287 287 288 288 289 289 290 292 293 294 294 293 292 292 291 290 289 289 286 287 285 284 284 284 284
295 297 295 295 295 294 293 292 292 290 289 288 286 284 283 282 284 284 285 285 286 284 284 284 285 286 288 289 289 289 288 287 287 286 286 285 286 285 284 283 282 282 282 282
292 292 291 291 291 291 290 288 287 286 286 284 284 283 282 281 281 281 282 283 284 283 283 283 283 285 286 288 288 287 287 286 286 286 285 285 285 284 284 283 282 281 281 280
289 288 288 288 288 288 287 285 284 282 281 281 281 281 281 280 279 280 281 282 283 284 282 282 282 283 284 285 286 286 286 286 285 284 283 283 282 282 281 281 280 280 279 278
286 285 285 285 285 285 283 282 281 280 279 280 280 280 280 280 280 280 281 283 282 282 280 281 282 282 282 282 283 283 283 283 282 281 281 280 280 279 279 278 278 277 277 276
283 282 281 281 281 281 280 280 279 279 278 279 279 279 278 277 277 279 280 279 277 277 279 281 282 281 280 280 281 281 281 280 280 279 278 277 276 276 275 275 274 274 273 272
280 279 279 279 278 278 278 278 278 278 278 278 279 278 278 278 278 278 278 278 276 276 277 278 277 276 276 276 276 276 276 276 275 275 274 274 274 273 273 273 272 272 271 271
279 279 278 278 278 277 278 278 278 278 278 277 277 277 276 276 276 277 276 274 273 273 274 274 273 273 273 274 274 274 273 273 273 272 272 272 271 271 271 271 270 270 269 269
279 278 278 278 278 278 278 278 278 278 278 277 276 276 276 275 274 273 273 272 272 273 273 272 272 272 272 272 272 271 271 271 271 270 270 270 270 269 269 269 269 269 269 268
279 278 278 277 277 277 277 277 277 277 277 276 275 275 274 273 272 271 270 270 271 271 271 271 271 271 271 271 271 271 271 270 270 269 269 269 268 268 269 269 269 268 268 268
279 279 279 278 278 277 277 276 275 275 274 273 272 272 272 272 271 270 270 270 270 270 271 271 271 271 271 271 270 269 270 269 269 269 268 268 268 268 269 269 269 268 268 268
279 278 278 278 278 277 277 277 276 275 274 273 271 271 270 270 270 270 270 270 270 270 270 270 270 270 270 270 269 269 269 269 269 269 268 268 268 268 268 268 268 268 268 268
278 278 278 277 276 277 276 276 275 274 273 272 271 271 270 270 270 269 269 269 269 268 268 268 269 269 269 269 268 268 267 268 268 268 268 268 268 268 268 268 268 268 268 268

GFSNGP_850_thetae_087.txt.gz
Theta_e
313 313 316 316 318 318 320 320 323 322 322 322 321 322 321 320 320 320 320 320 320 321 321 321 326 329 330 330 329 329 328 324 326 326 325 324 322 321 322 322 321 321 321 322
311 312 313 317 317 317 317 320 322 321 321 321 319 320 319 320 320 320 320 321 321 321 322 323 323 322 326 330 330 329 329 328 325 325 326 326 325 324 323 322 321 322 322 322
313 312 312 316 317 318 318 318 318 321 320 319 320 319 318 318 319 319 319 320 321 321 322 323 323 323 322 324 328 330 330 329 329 326 325 326 326 326 325 324 324 323 322 324
310 309 315 316 315 316 315 317 317 319 318 317 319 317 316 316 316 316 318 319 320 320 320 321 322 321 322 322 322 326 330 330 330 329 327 325 326 326 326 326 326 325 324 323
311 313 312 311 312 313 312 318 318 318 317 316 316 316 315 315 316 316 318 319 321 321 320 320 316 318 319 321 323 323 326 328 328 328 329 328 326 326 325 326 326 325 325 324
309 313 311 311 313 314 315 318 316 316 316 316 315 316 315 316 315 316 318 320 320 320 319 315 315 316 318 320 321 323 322 322 323 326 328 329 329 328 327 326 326 326 325 324
309 311 312 312 313 314 316 316 314 313 313 312 313 313 312 313 311 311 311 311 312 315 315 314 314 315 316 317 319 319 319 320 321 322 324 328 329 329 328 327 326 326 325 325
309 310 311 313 314 316 315 313 312 311 311 311 311 310 310 309 308 309 310 310 309 311 311 311 312 311 312 313 314 316 316 318 319 320 322 325 327 327 328 328 328 327 326 325
309 309 311 312 313 312 311 310 310 309 309 309 308 307 307 306 305 305 305 306 306 307 308 306 306 308 309 310 311 312 314 314 314 316 318 320 322 323 322 325 327 327 326 325
310 312 310 308 309 308 308 307 307 307 306 306 305 305 304 304 302 302 302 303 303 303 302 303 304 305 307 308 308 308 311 311 311 310 311 313 314 316 317 315 313 317 316 314
312 309 307 307 305 307 305 305 305 305 304 303 303 302 301 302 300 298 298 296 296 298 299 301 302 303 305 307 307 305 306 308 308 307 307 306 310 308 305 306 302 300 302 301
307 303 306 304 303 303 303 302 301 302 300 299 299 298 298 299 298 298 297 296 297 298 298 299 300 301 302 303 303 303 304 304 303 302 302 300 297 300 301 296 297 296 296 297
300 301 303 300 300 299 299 299 298 297 295 294 293 294 293 293 292 292 294 294 294 293 293 294 296 297 297 298 297 299 300 300 300 298 298 297 296 292 291 288 289 289 287 286
298 301 299 299 298 297 297 297 295 293 291 290 289 289 289 289 289 289 289 288 288 289 289 290 290 292 292 293 294 294 294 295 296 294 293 292 290 289 287 286 286 285 286 286
296 295 295 296 295 294 294 294 292 290 290 288 287 285 286 285 284 283 283 283 284 286 286 287 287 287 288 289 290 290 289 289 290 289 289 288 287 287 286 285 284 284 284 285
293 291 291 291 291 291 290 289 289 287 287 286 285 283 282 282 282 282 283 283 285 283 284 285 285 285 286 287 287 287 286 286 287 287 286 286 285 285 284 283 283 283 283 283
289 289 288 288 289 287 286 286 285 284 284 283 282 282 281 280 281 281 281 282 282 282 282 283 283 284 286 286 286 285 285 285 285 285 285 284 284 283 282 282 282 281 280 281
286 286 286 286 286 285 283 283 282 281 281 281 281 281 281 281 280 280 280 281 281 282 281 281 282 283 284 284 285 285 284 284 283 283 282 282 282 281 281 280 279 279 278 278
283 283 283 283 283 282 281 280 280 279 279 279 280 279 279 279 279 279 280 281 281 281 279 280 281 282 283 283 283 283 283 282 281 280 280 279 279 279 278 278 277 276 276 276
281 280 280 281 281 281 280 279 279 278 278 278 278 278 278 277 278 279 279 280 278 277 278 279 280 280 280 280 281 281 281 281 280 279 278 278 277 276 276 275 274 273 273 272
279 279 279 279 278 278 278 278 278 278 277 278 278 278 277 277 277 278 278 279 276 275 275 275 276 275 274 275 276 276 276 276 275 275 274 274 274 273 273 272 272 271 271 271
278 278 278 278 278 278 277 278 278 277 277 277 277 277 277 277 276 276 274 274 272 273 273 274 274 274 274 274 274 274 274 273 273 273 272 272 272 272 271 271 271 271 270 270
278 278 278 278 278 277 277 277 277 277 277 277 277 276 276 274 273 273 273 272 272 272 272 272 272 272 272 273 273 272 272 272 272 272 271 271 271 271 271 271 270 270 270 270
278 278 278 278 278 278 278 277 277 277 277 276 275 274 274 273 272 272 272 272 271 271 272 272 272 272 272 272 271 271 271 271 271 271 270 271 271 270 270 270 270 270 270 270
279 279 279 278 278 277 277 276 276 275 275 274 273 272 271 271 271 271 271 270 270 270 270 270 271 271 270 270 270 270 270 270 270 270 270 270 270 269 269 269 269 269 269 269
279 279 279 279 278 277 277 276 275 274 274 273 272 271 270 270 270 270 270 269 269 270 270 269 269 269 270 269 269 269 269 269 268 269 269 268 269 269 268 268 268 268 268 268
278 278 277 277 277 277 277 276 275 274 273 272 271 270 270 270 269 269 269 269 269 268 268 269 269 269 269 268 268 268 269 269 269 269 269 268 269 268 268 267 267 267 267 267

GFSNGP_850_thetae_090.txt.gz
Theta_e
312 311 315 316 316 316 318 319 323 322 322 321 321 320 322 321 319 320 320 322 323 323 322 323 326 328 328 328 328 327 327 327 326 324 321 322 321 320 321 320 321 321 321 320
310 311 311 311 316 316 317 318 320 320 321 319 319 321 319 320 319 319 320 322 322 322 322 322 322 322 325 327 328 327 327 326 326 326 324 324 324 323 322 321 321 320 320 320
311 310 308 312 315 317 315 317 316 318 318 319 320 320 319 317 317 318 320 321 320 319 317 317 318 320 322 323 323 326 328 326 325 325 325 325 325 325 325 324 323 321 321 321
309 309 308 311 311 314 317 318 316 318 319 318 316 316 316 316 318 318 320 319 317 316 315 315 317 318 320 322 322 325 326 326 325 324 324 324 325 325 325 325 325 324 323 322
308 310 310 308 310 313 315 318 317 317 317 316 316 315 313 312 312 313 314 314 316 315 313 313 314 315 317 319 321 321 321 323 323 324 326 324 324 324 325 326 326 325 325 324
306 310 309 310 312 312 315 318 316 315 315 315 315 315 313 308 309 309 310 310 312 313 314 313 313 314 314 315 315 317 318 318 319 320 321 323 326 325 324 324 325 325 325 325
307 308 310 311 313 314 315 316 312 312 312 312 312 312 307 307 306 306 307 307 308 309 311 312 312 312 312 312 313 311 313 315 316 318 318 320 322 324 325 325 325 325 325 325
306 310 310 311 314 315 312 310 310 309 309 308 308 306 304 302 304 303 303 304 305 306 307 307 309 310 310 309 308 309 311 311 311 312 314 316 317 320 322 323 323 323 324 324
307 307 310 309 308 308 308 308 307 306 306 306 305 303 303 302 302 301 302 301 301 302 302 302 303 305 307 307 308 307 308 308 309 309 310 311 314 316 318 318 319 318 317 315
310 310 307 308 306 306 305 305 304 304 303 303 302 301 300 300 300 300 300 299 298 298 299 300 301 302 303 305 306 307 305 306 306 306 306 307 308 308 309 310 310 310 310 309
311 308 305 304 304 304 303 302 302 303 301 300 300 298 298 297 297 297 297 296 297 297 298 298 300 301 302 303 304 305 305 303 303 303 303 303 304 304 303 302 302 302 301 298
304 300 303 300 300 300 301 300 298 298 298 297 298 296 295 295 294 294 296 296 296 296 297 297 298 299 300 301 302 302 301 300 299 298 299 297 297 297 295 294 293 294 294 295
298 300 299 298 298 298 298 296 295 295 293 293 293 293 293 293 292 292 292 292 292 290 290 291 293 295 296 296 296 296 297 296 296 295 293 292 291 291 289 287 288 287 287 287
296 299 296 296 294 296 295 294 293 293 292 290 289 290 289 289 289 289 288 287 287 288 288 288 289 290 290 291 293 293 292 292 292 292 291 290 289 288 288 287 286 285 285 286
292 293 292 293 293 293 292 292 291 290 288 288 287 287 286 285 285 284 284 284 285 286 286 287 287 287 287 288 289 289 289 289 288 288 288 287 287 287 286 285 285 284 285 285
290 290 290 290 290 289 289 288 287 286 285 285 284 283 282 282 283 283 283 284 285 284 284 285 285 285 286 286 287 287 287 287 287 286 286 285 285 285 284 284 284 284 284 283
288 287 287 288 287 285 284 283 284 284 283 283 281 281 281 281 281 281 281 281 282 283 283 283 283 284 285 285 285 285 285 285 285 285 285 284 284 283 283 283 282 282 281 281
284 284 284 285 284 283 281 280 280 280 281 281 281 281 280 280 280 279 280 280 281 281 282 281 282 283 283 284 284 284 284 284 284 284 283 283 282 282 282 281 281 280 280 279
282 282 281 282 282 281 279 279 279 279 279 279 279 279 279 279 279 279 279 280 281 281 279 280 280 282 282 282 283 283 283 283 282 282 282 281 280 279 279 278 278 278 277 277
280 279 279 279 279 278 278 278 278 278 278 279 279 278 278 278 278 278 279 280 278 277 277 279 280 280 280 281 281 281 281 281 280 280 279 279 278 277 277 276 275 274 273 273
279 279 279 278 278 278 278 278 278 278 277 277 278 277 277 277 277 277 277 278 276 275 275 275 275 275 275 276 276 277 277 277 277 277 276 275 274 274 273 273 273 272 272 271
278 278 278 278 278 277 277 277 277 277 277 277 277 277 277 276 276 275 274 273 273 273 273 274 274 273 273 274 274 274 274 274 274 273 273 273 272 272 272 271 271 271 271 271
279 279 278 278 278 278 277 277 277 277 277 276 276 276 274 273 272 272 273 271 271 272 272 272 272 272 272 273 272 273 272 272 272 272 272 271 271 271 270 270 270 270 270 270
279 279 279 278 278 278 278 277 277 276 276 275 274 274 273 272 272 272 271 271 270 271 271 271 271 271 271 271 271 271 271 271 271 271 270 270 270 270 270 270 269 269 269 269
279 278 278 278 278 277 277 276 276 275 274 273 272 272 271 271 270 270 270 270 270 270 270 269 270 270 270 270 270 270 270 270 270 270 270 270 270 269 269 269 268 268 268 268
279 278 278 278 278 277 277 276 275 275 274 273 272 271 270 270 270 269 269 269 269 269 269 269 269 269 269 269 270 269 269 269 269 269 269 269 269 268 268 268 268 268 268 268
278 278 278 278 277 277 276 276 275 274 273 273 271 270 270 269 269 269 269 268 268 268 268 268 268 268 268 268 269 269 269 268 268 268 268 268 268 268 268 268 267 267 268 268

GFSNGP_850_thetae_093.txt.gz
Theta_e
310 312 312 314 315 316 317 317 320 319 320 320 321 320 319 317 319 321 321 320 319 321 323 324 326 327 327 327 327 327 327 327 325 323 321 320 320 319 319 319 320 321 320 320
308 309 311 311 309 308 315 317 317 319 319 318 320 319 318 318 319 318 319 316 316 317 320 321 321 323 325 326 326 326 327 326 325 325 324 323 322 322 321 320 320 319 320 321
309 308 307 307 310 311 316 315 316 319 318 318 320 319 316 318 316 318 314 312 312 315 317 318 320 321 321 322 323 324 324 323 324 324 324 324 324 324 323 322 323 322 321 321
308 307 306 307 307 315 316 315 315 316 318 316 315 313 312 314 313 310 308 309 309 311 313 315 316 318 320 321 322 323 324 324 323 323 323 323 324 324 324 324 324 324 323 323
306 307 305 306 310 311 311 314 317 318 316 315 313 311 309 307 307 305 305 306 308 310 311 312 313 313 315 316 318 319 321 322 322 322 322 323 323 323 323 323 324 324 324 324
304 307 305 308 312 312 313 317 315 316 317 316 315 314 308 304 304 306 303 304 306 307 308 310 310 310 312 312 312 313 313 315 317 319 319 320 321 322 323 323 323 323 323 324
306 308 306 308 310 312 313 312 312 313 313 313 310 309 303 302 301 303 307 304 304 305 307 307 308 309 310 309 309 308 309 310 311 312 313 315 317 318 320 320 321 322 323 323
306 308 307 308 311 313 310 308 308 307 307 306 304 302 300 300 300 301 301 304 304 302 302 304 305 306 306 306 306 306 308 308 308 309 309 310 312 314 316 318 318 318 320 321
305 305 308 307 307 306 305 303 302 303 304 303 301 298 297 296 296 296 297 298 298 300 300 300 302 303 304 304 304 304 305 307 307 306 307 308 308 309 310 312 313 313 313 312
309 309 308 306 304 302 302 302 302 300 301 299 298 298 296 295 295 295 295 296 297 298 299 300 301 301 302 303 303 303 304 304 305 306 306 305 306 305 305 306 305 304 304 304
307 305 303 301 301 300 300 297 299 300 299 296 294 293 295 294 293 293 294 295 296 296 297 297 298 299 300 301 301 302 302 300 299 302 303 303 302 302 302 301 299 299 298 297
303 298 301 299 298 298 297 296 296 297 296 295 294 293 292 289 289 291 292 292 292 292 292 293 294 295 297 297 298 298 298 297 296 296 296 296 293 293 294 295 293 291 292 291
297 297 296 295 296 296 295 293 293 293 292 291 290 289 289 288 287 287 289 289 289 288 288 289 290 291 292 293 294 295 295 294 293 293 293 292 291 290 290 289 291 289 287 287
295 297 295 293 292 293 293 292 291 291 290 288 288 288 287 284 284 284 285 285 286 287 287 287 288 288 288 288 289 290 291 291 290 289 289 288 287 287 287 287 287 286 286 286
290 291 291 291 292 292 291 291 289 287 286 286 285 284 283 284 284 284 284 284 284 285 285 286 286 286 286 287 288 288 288 288 288 287 287 287 286 286 286 286 285 285 285 285
289 289 289 289 289 288 288 287 285 283 283 283 282 282 282 282 282 282 283 283 285 284 284 284 285 284 285 285 286 287 287 286 286 286 285 285 285 285 285 285 284 284 284 283
288 286 286 287 286 285 284 282 282 281 282 282 281 281 281 281 281 281 281 281 282 282 283 283 283 283 284 284 285 285 285 285 284 285 285 284 284 284 284 283 283 283 282 281
284 283 284 284 283 282 281 280 281 281 281 281 280 280 280 280 280 279 280 280 280 281 282 281 281 282 283 283 283 284 284 284 284 284 283 283 283 282 282 282 281 281 280 280
281 281 281 282 282 281 280 280 280 280 280 280 280 280 279 279 279 279 279 279 280 280 280 280 280 281 282 282 282 282 282 282 282 282 282 281 281 281 281 280 280 278 277 277
279 279 279 279 279 278 278 278 278 278 278 278 278 278 278 278 277 277 278 279 278 277 278 278 279 280 280 280 280 280 280 280 280 280 279 279 279 279 278 277 275 274 274 273
280 279 279 279 279 279 278 278 278 278 277 277 277 277 277 277 277 276 277 277 275 274 274 274 274 275 275 275 276 276 277 277 277 277 276 276 275 274 274 273 273 273 272 272
279 279 279 279 279 278 277 277 277 277 277 277 277 276 276 276 275 274 274 274 273 273 273 273 274 273 273 273 274 274 274 274 274 274 273 273 273 273 272 272 272 271 271 271
279 279 278 278 278 278 277 277 277 277 277 276 276 276 274 273 273 272 272 272 271 272 272 272 272 272 272 272 272 272 272 272 272 272 272 271 271 271 271 271 270 270 270 270
279 278 278 278 278 277 277 277 276 276 275 274 273 273 272 272 272 271 271 271 271 271 271 271 271 271 271 271 271 271 271 271 271 270 270 270 270 270 270 270 269 269 269 269
279 278 278 277 277 277 276 276 276 275 274 274 273 272 271 271 270 270 270 270 270 270 270 270 270 270 270 270 270 270 270 270 270 270 269 269 269 269 269 269 269 269 268 268
278 278 278 277 277 277 276 276 275 275 274 273 272 271 270 270 270 269 269 269 269 269 269 269 269 269 269 269 269 269 269 269 269 269 269 269 269 269 269 268 268 268 268 268
278 277 277 277 277 276 276 276 275 274 273 272 271 270 269 269 269 269 268 268 268 268 268 268 268 268 268 268 268 268 268 268 268 268 268 268 268 268 268 268 268 268 267 267

GFSNGP_850_thetae_096.txt.gz
Theta_e
309 309 311 311 312 313 315 315 317 315 317 316 318 319 318 318 319 317 313 312 313 315 318 321 323 324 325 326 326 326 325 325 325 325 324 322 319 319 319 318 318 319 320 320
308 307 310 310 308 307 307 309 311 316 317 316 317 319 318 319 318 314 310 308 307 310 314 315 320 320 322 324 325 326 325 325 324 324 324 324 323 322 321 321 320 320 319 319
308 307 306 304 306 313 314 315 315 316 316 315 318 318 317 317 314 310 307 308 308 307 309 312 317 317 318 322 322 324 323 322 322 321 322 323 324 323 323 324 323 323 323 322
307 306 304 302 304 312 313 315 315 314 314 316 312 309 307 308 307 305 304 307 310 310 310 311 311 312 317 319 320 321 320 321 320 321 322 322 322 322 322 322 323 323 323 323
306 307 304 305 309 311 312 313 316 317 315 312 311 309 305 303 303 304 303 304 305 307 309 311 309 307 310 311 313 317 318 319 319 319 321 321 322 322 322 322 321 321 323 323
304 306 303 303 310 309 311 314 311 316 315 315 311 313 306 300 300 300 302 304 305 305 306 308 307 306 308 309 310 311 311 312 313 315 316 317 317 318 319 320 321 322 321 321
306 308 306 306 307 309 312 311 308 311 313 311 306 303 299 299 298 297 300 302 299 302 303 303 304 304 304 304 305 305 307 308 309 310 310 310 311 313 315 317 318 319 319 319
306 307 306 307 308 309 307 303 304 305 305 303 301 298 296 296 294 295 297 298 298 300 300 301 302 303 303 303 302 303 305 306 307 308 308 308 308 309 310 312 313 314 314 313
306 305 306 305 305 303 301 299 299 300 300 298 297 295 294 293 294 296 296 296 296 297 297 299 299 301 302 301 302 301 302 303 304 305 305 306 306 307 307 306 307 307 307 307
305 307 305 303 300 299 299 298 298 298 297 296 295 294 292 292 293 294 294 294 295 296 296 297 298 299 300 300 301 301 301 300 300 303 303 303 303 303 303 303 302 301 300 299
305 301 300 298 298 296 296 295 296 295 294 293 293 292 292 291 289 290 291 291 292 292 293 295 296 297 298 299 299 300 300 300 298 299 299 300 299 297 296 296 296 297 295 294
301 296 298 296 295 295 294 293 293 293 291 291 291 290 290 290 288 288 288 289 289 289 290 290 292 293 294 296 296 296 296 296 296 295 295 296 294 293 291 288 288 290 289 290
294 295 294 293 293 292 292 291 290 291 290 289 288 287 288 287 285 286 288 287 287 287 288 288 289 289 289 290 291 292 292 292 292 292 291 291 291 291 290 288 290 288 287 288
293 295 295 291 289 290 290 289 288 288 287 286 285 285 285 284 285 285 285 284 285 286 286 287 287 288 288 289 289 289 290 290 289 289 288 288 288 288 287 287 287 286 286 286
289 290 291 290 289 288 288 287 286 284 283 283 284 283 283 283 283 282 282 283 283 284 284 285 285 286 286 286 286 287 287 287 287 287 287 286 286 286 286 286 286 285 285 285
288 288 288 287 286 286 285 284 283 281 281 281 282 281 281 281 281 281 281 282 283 283 283 283 283 283 284 284 284 285 285 284 285 285 284 284 284 284 284 284 284 284 284 283
287 286 285 286 283 283 281 280 279 280 281 281 280 280 280 280 280 280 280 280 280 281 281 282 281 282 282 283 283 284 284 284 284 284 284 283 283 283 283 283 283 283 283 282
283 282 282 282 281 281 280 279 280 280 280 279 280 279 279 280 279 279 279 279 279 280 281 280 280 280 281 281 282 282 283 283 283 283 282 282 282 282 281 281 281 281 280 279
281 281 281 280 281 280 280 279 279 279 278 278 278 279 278 278 278 278 278 278 279 280 279 279 279 279 280 280 280 281 281 281 281 281 281 280 280 280 279 279 278 277 276 275
282 282 281 281 280 280 279 279 279 279 278 278 278 278 278 277 277 277 277 278 277 276 274 275 275 276 276 277 278 279 279 279 279 279 279 278 278 277 276 275 274 273 273 273
280 280 280 280 280 280 279 279 279 279 279 278 278 278 278 278 278 277 276 276 274 274 273 274 274 274 274 274 275 275 276 276 276 276 275 275 274 274 273 273 272 272 272 272
279 279 278 278 278 278 278 277 277 277 277 277 277 276 275 274 273 273 273 273 272 272 272 273 273 273 273 273 273 273 273 273 273 273 273 273 272 272 272 271 271 271 271 271
279 279 278 278 278 278 278 277 276 276 276 275 274 274 273 272 272 271 272 272 271 271 272 272 272 272 272 272 272 272 272 272 272 272 271 271 271 271 271 270 270 270 270 270
279 279 278 278 278 277 277 277 276 276 275 274 273 272 272 271 271 271 271 270 270 270 270 270 270 270 270 271 270 270 270 271 271 270 270 270 270 270 270 270 270 269 269 269
279 278 278 278 277 277 276 276 276 275 275 274 273 272 271 270 270 270 270 269 269 269 269 269 269 269 270 270 270 270 270 270 270 270 270 269 269 269 269 269 269 269 269 268
278 278 277 277 277 276 276 275 275 275 274 273 272 271 270 270 269 269 269 269 269 269 269 268 269 269 269 269 269 269 269 269 269 269 269 269 269 269 269 269 268 268 268 268
278 277 277 276 276 276 275 275 274 274 273 272 271 270 270 269 269 268 268 268 268 268 268 268 268 268 268 268 268 268 268 268 268 268 268 268 268 268 268 268 268 268 267 267

GFSNGP_850_thetae_099.txt.gz
Theta_e
309 309 311 311 311 310 310 312 314 313 313 312 314 317 319 319 314 312 309 306 305 307 309 312 319 320 321 322 324 325 325 325 325 325 324 323 319 319 319 318 319 320 320 320
308 308 309 308 308 306 307 310 311 311 311 312 315 315 319 318 312 310 307 305 303 306 308 309 313 318 321 321 322 323 323 324 324 324 324 324 323 320 319 319 319 318 318 318
305 307 307 305 305 306 312 314 315 316 315 315 315 312 313 310 308 306 303 303 303 304 306 305 309 314 318 319 321 321 321 321 322 322 321 321 322 322 322 322 321 321 321 320
307 307 304 304 305 307 309 311 314 316 316 313 309 304 302 302 302 301 301 303 303 302 306 307 307 311 317 318 317 318 318 320 320 320 320 320 320 320 321 320 321 322 322 321
307 307 305 306 310 309 310 308 312 316 314 310 309 307 299 298 299 300 299 301 303 306 307 306 309 310 314 315 312 317 317 313 316 318 318 318 319 319 319 320 320 321 320 320
307 306 306 306 307 308 309 311 308 310 314 310 310 309 302 296 296 296 297 298 300 303 306 307 306 306 307 306 307 308 308 308 311 313 314 314 314 316 317 318 318 318 318 319
307 307 307 307 307 307 305 308 306 305 307 307 304 300 295 296 296 294 293 295 298 300 301 301 303 305 305 304 305 304 304 304 306 307 308 308 309 310 311 313 314 315 315 314
306 307 307 306 307 309 305 301 301 300 299 297 296 295 294 294 293 293 295 296 296 298 298 299 300 301 301 302 301 302 304 305 306 306 306 306 306 307 308 308 309 310 310 310
307 308 304 303 301 299 299 297 297 297 297 296 295 293 294 296 294 291 292 293 295 296 296 297 298 298 298 298 299 300 301 303 304 304 305 304 304 304 304 304 304 304 304 305
304 302 299 298 297 296 295 293 294 294 294 294 292 292 292 292 293 292 291 292 292 294 295 295 295 296 296 296 296 298 299 300 300 301 301 301 302 302 302 301 300 300 299 297
302 299 298 295 295 294 293 292 292 292 292 291 290 288 289 288 288 290 290 290 291 291 291 292 293 294 295 295 295 295 296 296 297 297 297 297 298 298 297 296 295 295 293 291
299 295 296 293 293 292 291 290 291 289 288 288 287 285 286 286 285 285 285 287 289 289 289 289 290 291 292 292 293 294 294 294 294 294 293 293 292 291 290 289 289 289 289 291
294 294 292 291 291 290 289 288 288 288 286 285 285 284 284 285 284 285 284 285 286 286 287 287 288 289 289 290 291 291 292 292 292 292 291 291 290 289 289 288 289 289 288 288
292 293 292 290 287 287 287 286 286 285 284 283 283 283 284 284 284 285 285 284 284 285 286 286 286 286 287 287 288 289 289 289 290 290 289 289 288 288 287 287 287 287 287 287
289 290 289 287 286 286 285 285 284 283 281 283 283 283 283 283 283 282 282 282 283 283 284 284 285 285 285 285 286 286 286 286 286 286 286 286 286 286 286 286 286 286 285 285
287 287 287 286 284 283 282 282 282 281 280 279 281 281 281 281 281 281 281 282 283 283 282 283 283 283 283 284 284 284 285 284 285 285 284 284 284 285 285 285 285 284 284 284
288 286 286 285 283 281 280 279 279 278 280 280 280 280 280 280 280 280 280 280 280 281 281 282 282 282 282 283 283 283 283 283 283 284 284 283 283 284 283 283 283 283 282 281
283 282 282 282 281 280 279 278 279 279 279 279 279 279 279 279 279 279 278 278 279 279 280 280 281 281 281 282 282 282 282 282 282 282 282 282 281 281 281 281 280 280 280 279
281 280 280 279 280 280 280 279 279 278 278 278 278 279 278 278 278 278 278 278 279 279 278 278 278 279 280 280 280 280 280 280 280 280 280 280 279 279 279 278 277 276 275 274
281 280 280 280 279 279 279 278 278 278 278 277 277 277 277 277 277 277 276 277 275 275 274 274 275 275 276 276 277 278 278 279 279 279 278 278 277 276 275 274 274 273 273 272
281 280 280 279 279 278 278 277 277 277 277 276 276 276 275 274 273 273 273 274 273 273 273 273 273 274 274 274 275 275 275 275 276 275 275 274 274 273 273 272 272 272 271 271
280 280 280 279 279 279 279 278 278 277 277 277 276 275 274 273 273 272 272 272 272 271 272 272 272 273 273 273 273 273 273 273 273 273 273 272 272 272 271 271 271 271 270 270
280 280 280 279 279 279 278 278 278 277 276 275 275 274 273 273 272 272 271 271 271 271 271 271 271 271 271 272 272 272 272 272 271 271 271 271 271 270 270 270 270 270 269 269
279 279 278 278 278 277 277 277 276 276 275 275 274 273 272 271 271 271 270 270 270 270 270 270 270 270 270 270 270 270 270 270 270 270 270 270 270 269 269 269 269 269 269 269
278 278 278 277 277 276 276 276 275 275 274 273 273 272 271 270 270 270 269 269 269 269 269 269 269 269 269 269 269 269 269 269 269 269 269 269 269 269 269 268 268 268 268 268
278 278 277 277 277 276 276 275 275 274 273 272 272 271 270 269 269 269 268 268 268 268 268 268 268 268 268 268 268 268 268 268 268 268 268 268 268 268 268 268 268 268 267 267
278 277 277 276 275 275 275 274 274 273 273 272 271 270 269 269 268 268 268 268 268 268 268 267 267 267 268 268 268 268 268 268 268 268 268 268 268 268 267 267 267 267 267 267

GFSNGP_850_thetae_102.txt.gz
Theta_e
310 311 311 311 311 311 310 311 314 313 315 315 316 318 317 317 312 310 308 308 305 300 302 311 318 320 321 321 322 322 325 324 323 322 321 320 318 319 319 320 320 320 319 319
307 309 310 309 308 307 307 311 314 315 316 316 312 311 310 309 307 306 304 301 306 299 299 303 310 315 321 322 321 321 322 321 322 323 323 323 319 319 319 319 319 319 319 319
308 306 306 306 307 308 310 311 314 316 317 314 304 301 299 300 301 300 299 301 301 301 297 300 303 308 313 319 319 321 320 320 321 320 321 322 323 321 320 319 319 319 319 318
307 307 305 306 309 309 309 312 314 315 312 306 303 298 297 296 296 296 297 298 301 302 301 299 300 306 310 313 314 317 318 318 319 319 321 322 321 321 320 320 320 319 319 319
307 306 307 311 310 310 310 311 309 310 311 309 306 304 297 296 296 294 295 295 297 298 299 302 303 304 308 308 310 312 314 314 314 315 318 319 318 319 319 320 320 320 320 319
308 306 307 310 309 308 310 312 307 306 306 310 306 313 300 293 295 296 296 295 297 299 300 302 302 303 305 307 309 310 311 311 310 312 315 314 315 316 317 317 317 317 318 318
308 309 309 308 308 308 310 309 304 302 300 299 298 297 293 294 294 295 295 295 296 298 298 299 300 301 304 304 305 303 305 309 308 307 307 309 309 310 313 313 312 313 312 312
308 309 311 302 308 309 305 299 299 299 299 298 295 293 292 292 293 295 295 292 293 295 297 297 298 299 300 299 299 301 303 304 304 304 305 306 307 305 306 307 308 307 307 307
305 305 299 297 297 296 296 295 295 296 296 295 294 292 290 290 291 291 294 293 292 293 294 295 296 297 298 298 298 299 300 300 301 300 300 301 302 303 301 302 302 302 302 302
306 300 298 296 295 294 293 293 292 292 293 294 293 291 289 288 288 288 288 289 290 289 288 291 293 294 294 295 296 297 298 298 298 299 299 299 299 297 298 296 296 296 296 295
304 300 298 295 294 293 292 292 292 291 290 291 291 289 288 287 286 286 286 286 286 287 286 286 287 289 292 293 293 294 294 295 295 296 296 295 296 295 294 294 293 293 292 292
301 296 297 295 292 291 290 289 289 289 289 288 288 287 287 285 285 284 284 285 284 284 284 284 286 288 289 290 290 289 291 292 292 292 289 288 289 290 291 290 290 290 290 290
296 293 292 291 290 289 289 288 287 287 286 286 285 285 284 284 283 282 282 283 284 284 283 283 283 286 288 289 289 290 289 287 287 286 285 285 284 285 287 287 289 289 288 288
292 292 292 291 290 289 288 287 286 285 284 284 284 283 282 282 281 281 280 280 280 281 283 284 285 286 286 286 287 287 287 287 287 287 287 287 286 285 284 283 285 286 286 287
290 291 289 287 287 286 287 286 286 285 283 282 282 281 281 281 279 279 280 279 280 281 282 284 284 284 285 285 285 286 286 286 285 285 285 285 284 283 283 282 282 282 282 284
289 288 287 286 286 285 284 285 284 283 282 281 280 279 279 279 278 278 281 282 282 282 282 282 283 283 283 284 283 283 284 284 284 284 284 284 284 283 283 283 283 284 284 283
289 289 288 286 284 283 282 282 281 280 280 279 278 278 278 277 279 280 280 280 280 280 280 281 281 282 282 282 282 282 282 283 283 283 283 283 283 283 282 282 282 283 282 282
286 285 284 284 283 282 281 280 279 278 278 279 279 279 279 279 279 278 278 279 279 279 279 280 280 280 281 281 281 281 281 281 282 281 281 282 282 281 281 281 281 280 280 279
283 283 282 281 281 280 279 278 279 279 279 279 279 279 279 278 278 278 277 277 276 276 276 276 276 276 278 279 280 280 280 279 279 280 280 280 280 280 279 279 278 277 275 275
281 280 280 279 279 278 278 278 278 278 278 278 278 278 278 277 276 276 275 275 275 274 274 274 274 274 275 275 276 276 277 277 277 278 278 276 276 277 275 274 274 273 273 273
280 280 280 279 279 279 279 278 278 278 278 277 276 276 275 275 274 273 273 274 273 273 273 273 273 274 274 274 274 274 274 274 274 274 273 273 272 272 272 272 272 271 271 271
280 280 279 279 279 278 278 278 277 277 275 275 274 273 273 272 272 272 272 272 271 271 271 271 272 272 272 272 272 273 272 272 272 271 271 271 271 271 270 270 270 270 270 270
280 279 279 279 279 279 278 277 276 276 276 275 275 274 273 272 271 272 272 270 269 270 269 271 271 271 271 271 271 271 271 271 271 271 271 270 270 269 269 269 270 270 270 270
280 280 279 279 278 278 277 277 276 276 275 275 274 273 272 272 271 270 269 269 270 269 270 270 270 270 270 270 270 270 270 270 270 270 270 270 270 270 269 269 269 269 269 269
280 279 279 278 278 277 277 276 276 275 274 273 273 272 271 270 270 269 269 268 269 268 268 269 269 269 269 269 269 269 269 269 269 269 269 269 269 269 269 269 269 268 268 268
279 278 277 277 276 276 275 275 275 275 273 273 272 271 270 269 269 269 268 269 268 268 267 267 268 268 268 268 268 269 268 268 268 268 268 268 268 268 268 268 268 268 268 268
277 277 277 276 276 275 275 275 274 275 273 272 272 270 269 269 269 268 268 268 268 268 267 267 267 267 268 268 267 268 268 268 268 268 268 268 268 267 267 267 267 267 267 267

GFSNGP_850_thetae_105.txt.gz
Theta_e
315 315 316 315 316 315 316 314 314 315 318 320 316 312 308 306 305 304 304 303 302 302 304 300 302 310 321 322 322 323 323 324 325 325 325 324 324 322 322 322 323 321 320 321
311 312 313 313 311 309 308 310 314 314 319 314 309 306 301 300 300 300 299 299 297 298 304 299 299 302 310 319 322 322 323 323 323 324 323 321 322 321 321 321 323 320 321 320
309 308 308 308 309 310 311 314 316 319 316 314 308 302 298 297 296 296 295 295 297 298 300 301 297 299 302 309 314 320 321 322 322 321 321 321 320 321 321 320 320 320 319 320
308 308 308 310 311 310 314 312 311 311 310 306 300 297 295 295 294 294 294 295 296 298 299 303 301 300 301 304 306 312 315 315 317 319 320 320 320 320 320 320 319 319 320 319
308 309 309 312 310 310 311 311 309 309 308 308 302 303 299 294 293 293 294 295 295 297 299 300 303 302 301 303 303 305 306 303 305 312 315 316 318 318 318 320 320 320 320 319
309 308 312 311 310 309 310 312 306 306 305 305 304 311 301 294 293 293 294 296 296 298 299 302 301 302 305 303 301 306 304 303 301 305 309 309 311 312 313 316 314 314 316 316
309 310 311 304 305 307 314 307 302 302 302 301 300 296 294 292 292 292 293 293 293 296 298 297 299 301 303 302 302 301 301 301 299 302 305 306 305 309 308 308 308 308 308 307
311 310 313 299 306 308 302 298 299 299 300 299 297 294 292 291 291 290 293 293 292 292 293 296 297 298 299 299 299 300 300 301 303 305 305 305 306 306 303 302 304 304 305 304
305 304 299 298 297 296 299 298 297 298 298 297 296 294 292 291 291 290 290 290 291 292 291 290 292 293 295 293 295 298 299 299 299 302 301 302 302 302 302 301 301 301 302 301
304 300 299 298 297 296 296 296 295 295 296 296 295 294 293 291 290 289 289 289 290 290 290 289 288 287 288 290 290 292 292 295 295 298 299 299 299 297 298 296 295 294 294 295
302 299 298 296 295 295 294 294 294 294 293 293 294 293 292 290 289 288 288 288 287 288 288 287 287 286 287 288 289 289 289 290 290 290 292 293 294 294 293 293 293 292 292 292
303 298 298 295 294 293 293 292 292 292 292 290 290 290 290 288 287 287 286 286 286 286 286 286 285 284 286 287 288 287 287 287 287 287 287 286 287 289 290 290 290 290 290 290
297 295 294 293 292 292 291 290 290 289 289 289 288 288 287 286 285 285 285 284 284 284 284 283 283 285 285 285 286 288 287 286 286 285 285 285 285 284 286 286 288 289 289 289
295 295 294 294 292 291 290 290 289 288 287 286 286 286 285 285 284 283 283 283 282 282 281 281 281 285 285 284 285 284 285 286 285 285 284 284 284 284 283 283 285 286 286 286
293 293 291 290 290 289 289 289 289 287 286 285 284 284 284 283 282 281 280 281 281 280 280 280 281 283 283 282 282 284 284 283 283 284 285 284 284 283 282 282 281 281 281 283
292 291 289 289 288 287 287 287 287 285 284 284 283 282 282 281 281 279 278 278 280 279 280 282 282 282 283 283 281 281 282 283 281 281 282 281 281 281 281 280 280 280 281 280
293 292 290 289 287 286 285 284 284 283 282 281 280 279 280 280 279 277 277 278 279 279 279 281 281 281 282 282 280 280 281 280 280 280 280 280 280 280 279 279 278 278 281 280
290 289 288 288 287 285 283 282 282 280 279 278 280 280 280 280 279 279 279 278 277 276 277 277 278 279 280 281 281 279 279 279 279 279 279 279 278 278 278 278 277 276 275 276
286 285 285 284 284 283 282 280 278 278 279 279 279 279 279 279 278 278 277 277 277 275 276 275 275 275 276 276 278 277 278 278 278 278 277 277 277 277 277 276 275 275 274 273
284 283 283 282 281 281 279 279 280 280 279 279 279 278 277 276 276 275 275 276 275 274 274 274 274 274 274 275 276 276 276 276 276 276 276 276 276 275 275 274 274 274 273 272
282 281 280 281 281 280 280 279 279 278 278 277 276 276 275 275 275 274 275 278 273 273 273 272 273 274 273 274 275 274 274 275 275 275 275 275 274 274 273 273 272 272 272 271
280 281 280 280 280 279 279 278 277 277 276 276 276 275 275 275 275 275 274 273 273 272 272 271 272 272 272 273 273 272 273 273 273 273 273 273 273 272 272 271 271 270 270 270
280 280 280 279 278 278 278 278 277 277 276 276 275 274 274 274 274 274 275 272 271 271 271 270 271 271 271 270 271 271 271 271 271 271 271 271 271 271 270 270 270 269 269 269
279 278 279 278 278 277 277 276 276 276 276 275 274 274 273 274 274 273 272 270 270 270 270 270 270 270 270 269 269 269 270 270 269 269 269 269 269 269 269 268 268 268 268 268
279 279 279 278 278 279 277 276 276 276 275 275 274 273 272 272 272 272 270 270 269 269 270 269 269 269 268 268 268 268 268 268 269 268 268 268 268 268 268 267 268 267 267 267
279 280 280 278 279 279 278 278 278 278 277 276 276 274 273 271 271 270 270 270 269 269 269 268 268 268 268 268 267 267 267 268 267 267 268 267 267 267 266 267 267 266 266 266
279 279 279 279 278 278 277 277 276 277 277 276 275 274 272 271 271 270 270 270 270 269 269 269 268 268 267 268 267 267 267 267 267 266 267 266 266 266 266 266 266 266 267 267

GFSNGP_850_thetae_108.txt.gz
Theta_e
315 317 315 316 316 316 316 314 315 318 317 312 308 305 302 301 300 300 299 298 297 298 298 299 304 304 307 313 320 323 324 325 326 327 329 328 326 326 323 321 321 321 320 321
313 316 315 315 310 310 315 317 317 319 316 308 303 301 300 299 298 297 296 296 296 298 299 298 302 304 301 304 311 318 322 324 325 327 326 326 325 324 322 321 320 320 320 320
309 309 310 311 311 314 312 312 312 315 312 306 301 299 296 296 295 295 295 295 296 297 298 298 298 304 300 301 304 310 315 319 322 323 324 324 323 322 321 321 320 320 319 320
308 308 315 312 313 311 310 309 310 309 308 303 299 296 295 294 293 293 293 294 295 297 298 299 300 301 303 303 303 304 306 309 313 317 320 321 321 321 320 320 320 319 320 319
311 310 312 312 310 309 312 308 306 307 306 305 299 301 296 293 292 293 293 294 294 295 297 298 299 300 302 303 304 303 302 303 305 305 308 312 314 318 319 319 319 319 319 319
312 310 314 307 304 306 309 308 303 304 304 304 304 307 298 293 292 293 294 294 294 293 294 298 297 300 302 301 303 302 300 301 302 303 303 303 304 301 307 313 314 314 315 314
312 313 309 302 304 306 311 305 301 301 301 299 298 295 293 292 292 292 293 293 294 292 291 291 295 298 299 299 299 297 300 299 301 300 302 303 302 300 299 304 303 305 308 307
311 311 309 299 303 304 300 299 299 299 299 298 296 294 293 292 292 291 291 292 293 292 290 290 293 295 295 294 294 295 298 300 300 299 300 301 301 300 298 299 302 301 304 308
304 303 300 298 298 298 298 298 297 298 298 298 296 295 293 292 292 291 290 290 291 290 290 288 289 291 292 291 292 294 296 296 297 298 299 300 300 299 300 301 299 299 300 299
304 301 299 298 297 296 296 296 296 295 295 296 295 294 293 292 291 290 290 289 289 289 288 287 286 286 288 290 290 291 292 293 294 294 296 297 298 298 298 296 295 297 296 295
301 300 298 296 296 295 295 295 295 295 293 293 293 293 292 290 289 289 288 288 287 287 286 285 284 284 285 287 289 289 290 289 289 291 291 292 294 293 293 292 291 291 290 292
301 299 298 296 294 294 294 293 292 292 292 291 291 290 290 288 287 287 286 286 285 285 284 283 283 285 284 285 286 287 287 287 287 287 287 288 288 288 288 289 290 290 290 289
297 296 295 294 293 293 292 291 291 290 289 289 288 288 288 286 285 285 285 284 283 282 282 281 283 284 284 284 284 284 285 285 286 286 286 286 285 285 286 286 287 288 287 286
295 295 295 295 293 292 292 291 290 289 288 287 287 286 285 284 283 282 282 282 281 280 279 279 282 283 283 283 284 284 284 283 284 284 284 284 284 284 283 283 284 284 284 285
294 293 293 292 291 291 291 291 290 288 286 285 285 284 284 283 282 280 279 280 279 278 279 280 281 283 283 282 282 282 283 283 283 283 283 283 283 282 282 282 282 281 281 282
293 292 291 290 289 289 288 288 287 285 284 283 283 282 282 281 280 279 277 279 280 279 280 281 281 281 281 281 281 281 281 282 282 282 282 282 282 282 281 281 282 282 281 280
294 293 292 290 288 286 285 285 284 283 282 281 279 281 281 280 279 278 278 278 278 278 278 278 279 280 281 281 280 280 280 281 281 281 280 280 280 280 280 279 280 281 280 279
291 290 290 289 287 285 284 283 282 280 281 281 281 281 281 280 280 279 278 277 277 277 277 276 277 276 277 279 279 279 279 279 279 279 279 279 279 279 278 278 277 277 277 276
288 287 286 286 285 284 282 281 280 281 280 280 280 280 279 279 278 277 277 277 277 275 275 275 275 275 275 277 278 277 277 278 278 278 278 277 277 277 277 276 276 275 275 274
285 284 284 283 282 281 280 279 281 280 280 280 279 278 278 277 276 276 277 276 276 275 274 274 275 274 274 275 276 276 276 276 276 276 276 276 276 276 275 275 274 274 273 273
283 283 283 282 282 281 281 281 280 280 279 278 277 277 276 276 276 276 276 277 275 274 273 273 274 273 273 274 274 274 275 275 275 275 275 275 275 274 274 273 273 273 272 272
282 282 282 281 281 281 280 279 279 278 278 277 276 276 276 276 276 276 276 274 273 273 273 273 272 272 272 273 272 272 272 273 273 273 273 273 273 273 273 272 272 271 271 270
282 281 281 280 280 280 279 279 278 277 277 276 276 275 274 275 275 274 274 273 272 271 271 271 271 271 271 271 271 271 271 271 271 271 271 271 271 271 271 271 270 270 270 269
281 280 280 280 279 279 279 278 277 277 276 276 275 275 274 274 274 274 273 272 271 270 271 271 270 270 270 270 270 270 270 270 270 270 270 270 270 269 269 269 269 268 268 268
279 279 279 279 279 279 279 278 278 278 278 277 276 275 274 273 273 272 272 271 271 270 270 270 270 269 269 269 269 269 269 269 269 269 269 269 268 268 268 268 268 268 268 267
280 280 280 280 280 280 279 279 279 279 279 278 278 276 275 274 272 272 272 271 271 271 270 270 270 269 269 268 268 268 268 268 268 268 268 268 268 267 267 267 267 266 266 266
281 281 280 280 280 279 279 278 277 277 277 277 277 276 274 273 272 272 271 271 271 271 270 270 270 269 269 268 268 268 268 268 268 267 267 267 267 266 266 266 266 266 266 266

GFSNGP_850_thetae_111.txt.gz
Theta_e
313 314 314 313 314 314 315 316 317 313 310 307 303 302 300 299 298 297 296 296 296 297 298 300 300 301 304 307 311 317 322 324 325 325 329 329 330 329 328 326 324 323 321 321
312 312 314 314 312 312 313 315 315 312 308 304 300 297 297 296 296 295 294 294 296 297 298 299 300 300 300 304 306 309 314 320 323 325 327 328 327 326 326 324 322 321 321 320
311 311 313 314 311 310 309 309 310 310 309 303 299 296 295 294 294 294 294 294 294 295 296 297 299 299 300 302 304 304 306 308 315 320 324 325 325 325 323 322 322 321 320 320
309 309 316 309 307 306 306 306 306 306 304 299 297 294 293 292 293 293 294 294 293 294 295 297 297 299 300 302 303 304 303 304 307 310 312 315 321 322 322 321 321 320 320 320
310 313 313 308 304 304 308 305 303 303 302 300 297 299 294 292 292 293 294 294 293 293 293 295 297 297 299 300 300 303 302 301 303 305 305 306 307 310 314 320 319 319 320 320
310 312 312 304 301 302 305 303 301 301 299 298 300 300 294 292 292 293 293 293 292 292 293 294 293 294 296 297 299 300 300 300 302 304 303 302 302 303 302 300 306 301 307 308
310 310 306 299 300 302 307 302 300 299 298 296 295 293 292 292 291 291 291 292 291 290 290 290 292 293 292 293 294 295 298 300 301 301 301 300 300 302 301 301 303 302 303 302
306 307 304 298 300 302 301 298 298 298 298 296 294 293 292 291 291 290 290 290 289 288 288 289 290 291 291 290 290 293 295 297 299 300 300 300 300 299 300 300 300 301 302 302
302 301 298 298 297 297 296 296 296 296 296 295 295 293 292 290 290 289 289 289 288 287 287 287 288 289 290 289 289 290 293 294 295 296 297 297 298 300 300 299 299 300 300 301
302 300 298 297 296 295 296 296 295 294 294 294 293 292 290 289 288 288 287 287 287 286 285 285 285 286 288 289 289 289 288 290 291 293 293 294 295 295 296 296 295 295 296 296
300 298 297 296 295 295 294 293 293 292 291 291 291 289 288 287 286 286 285 285 285 284 283 284 283 284 285 287 288 288 288 287 287 288 288 290 291 291 291 291 291 291 290 291
299 299 297 295 294 294 292 291 291 290 289 289 289 287 287 285 285 284 283 283 283 283 283 283 283 284 284 284 285 286 287 286 286 286 286 286 286 287 287 287 287 287 287 288
297 296 296 294 293 293 291 290 289 288 288 287 286 286 285 284 283 283 282 281 281 282 283 284 284 283 284 284 283 284 284 285 285 285 285 285 285 285 286 285 286 286 286 285
294 294 294 294 293 292 292 290 288 287 286 286 285 284 283 283 282 282 281 280 281 282 282 283 283 283 283 283 282 283 283 283 283 283 284 284 283 283 283 284 284 283 283 283
294 294 293 292 291 290 290 289 287 286 284 284 283 282 282 281 281 280 280 280 280 281 281 282 282 282 282 282 282 281 282 282 282 282 282 282 282 282 282 282 282 281 281 282
293 292 291 289 289 288 288 287 286 284 283 283 282 282 280 281 280 280 280 280 280 279 278 279 280 281 281 281 281 281 280 280 281 281 281 281 281 281 281 282 281 281 280 281
293 292 290 289 287 286 285 284 284 283 282 282 282 281 281 281 280 279 278 278 278 277 277 277 278 277 279 279 279 280 280 280 279 280 280 280 279 279 279 279 280 279 279 278
292 291 291 289 287 284 283 283 282 282 282 281 281 280 280 279 278 277 277 276 276 276 276 276 276 276 277 278 278 277 278 278 278 278 278 278 278 278 277 277 277 277 277 276
289 288 287 286 285 284 283 282 282 281 281 280 280 280 279 278 277 277 277 277 277 276 275 276 275 275 276 277 277 276 277 277 276 277 277 277 277 277 276 276 275 275 274 274
286 285 285 285 284 283 283 282 281 281 281 280 279 278 278 277 277 275 276 276 275 274 274 274 274 273 275 275 275 275 276 276 276 276 275 275 275 275 275 275 274 273 273 272
284 284 284 283 283 282 282 281 281 280 280 279 279 278 277 277 276 275 275 275 274 274 273 273 273 272 273 273 273 273 274 274 274 274 274 274 274 274 273 273 273 272 272 271
284 283 283 282 282 282 281 281 280 279 279 278 277 276 276 275 275 274 274 274 273 272 272 271 271 271 271 272 272 272 272 272 272 272 273 273 273 272 272 272 271 271 271 270
283 283 283 282 282 281 280 279 279 278 278 277 276 276 275 275 275 274 273 273 273 272 271 271 271 270 270 271 270 270 270 270 270 270 270 271 271 271 271 270 270 270 270 269
283 282 282 281 280 280 279 279 278 278 278 278 277 276 276 275 274 274 273 272 272 271 271 270 270 270 270 270 269 269 269 269 269 269 269 269 269 269 269 269 269 269 268 268
282 282 281 280 280 280 280 279 279 279 279 278 278 277 276 275 274 273 272 272 271 271 270 270 270 270 269 269 269 269 268 268 268 268 268 268 268 268 268 268 267 267 267 267
282 281 280 280 280 280 279 279 279 278 278 278 278 277 276 275 274 273 272 271 271 271 271 270 270 269 269 269 269 268 268 268 268 267 267 267 267 267 267 266 266 267 267 266
281 281 281 280 280 279 279 279 278 277 277 276 276 276 275 274 273 272 272 271 271 271 270 270 270 269 269 269 268 268 268 267 267 267 267 267 266 266 266 266 266 266 266 266

GFSNGP_850_thetae_114.txt.gz
Theta_e
313 313 313 311 316 315 316 313 312 309 305 302 299 298 297 296 296 295 294 294 295 296 297 299 301 301 302 303 304 308 313 317 322 324 328 328 328 327 328 329 329 328 327 326
311 311 311 310 309 310 312 311 308 305 303 299 297 295 295 295 295 295 294 293 293 295 297 297 298 299 301 301 303 304 307 309 313 318 323 326 327 326 328 328 327 326 325 323
312 311 311 308 307 307 307 306 308 309 304 298 295 294 293 293 293 294 294 292 293 293 295 296 297 298 299 300 302 302 303 305 306 310 312 321 322 324 324 323 322 324 322 322
311 310 308 306 305 304 303 305 303 303 300 296 294 293 292 293 293 293 293 291 291 292 294 295 296 297 298 299 300 301 301 302 304 304 305 308 308 318 319 322 322 321 321 321
312 311 308 304 302 301 304 303 303 301 301 297 295 297 292 291 292 292 292 291 290 291 292 294 295 295 296 298 298 299 299 299 300 303 302 303 305 306 304 306 312 315 319 320
311 309 307 302 299 300 302 302 300 299 297 296 299 296 293 291 291 291 291 290 290 290 292 294 293 293 294 295 296 296 296 297 299 299 301 300 300 301 302 304 302 303 303 310
309 307 304 298 299 302 305 301 298 298 296 294 293 292 291 290 289 290 289 288 289 289 289 290 291 292 292 291 290 292 295 297 298 298 299 298 300 301 302 301 301 301 302 303
305 303 303 297 298 302 299 297 297 297 296 294 293 292 290 289 288 288 288 288 287 287 287 288 289 290 290 290 289 290 292 294 296 297 297 296 298 300 300 300 301 300 301 301
302 300 297 296 297 296 296 295 294 294 295 294 292 290 289 288 288 287 287 286 286 286 287 286 286 288 289 288 289 289 289 291 292 293 294 295 297 297 297 298 299 299 300 300
299 299 297 296 295 294 294 293 293 293 293 292 290 289 287 287 286 286 285 285 285 286 286 286 286 286 287 288 288 288 288 288 289 290 291 292 292 293 293 294 295 294 295 295
299 297 296 295 295 293 292 291 291 291 290 289 289 287 287 285 284 284 284 283 284 284 284 284 285 285 286 286 286 287 286 287 287 287 288 289 289 289 289 287 288 289 288 289
299 298 296 295 294 291 291 290 289 289 288 287 288 287 286 285 284 283 283 283 283 283 283 284 284 284 284 285 285 285 285 285 285 285 286 286 286 287 287 286 286 286 286 287
297 297 295 294 293 291 290 289 288 288 287 286 285 285 284 283 282 282 283 283 282 282 283 283 283 283 283 283 284 283 284 284 284 284 284 284 285 285 286 284 284 284 284 285
295 294 293 293 292 291 289 289 288 287 285 285 284 283 283 282 282 282 282 281 281 281 281 282 282 282 282 282 282 282 282 282 282 283 283 283 283 283 283 284 284 284 283 283
294 295 293 292 291 290 289 288 288 286 284 284 283 283 282 282 281 281 281 281 280 280 280 279 280 281 281 281 281 281 281 281 281 281 281 282 282 282 282 282 282 282 282 283
293 293 291 290 289 288 288 287 287 284 283 283 283 282 282 281 280 280 280 280 280 280 279 278 278 278 279 280 280 280 280 280 280 280 280 280 280 280 281 281 281 280 281 281
291 290 289 288 288 287 287 286 285 284 283 282 282 281 281 280 280 279 279 278 278 278 277 277 277 277 277 278 278 278 279 278 278 279 279 279 279 279 278 279 279 279 279 278
292 291 290 290 288 286 285 284 284 283 283 282 281 280 280 279 278 277 277 277 277 277 276 275 276 276 276 277 277 277 277 277 277 277 277 277 277 277 277 277 276 276 276 276
292 291 289 288 287 286 284 284 283 282 282 281 279 278 278 278 277 276 276 276 276 276 275 274 274 274 274 275 276 276 276 276 276 276 276 276 276 276 276 275 275 274 274 273
288 288 287 286 285 285 284 283 282 281 281 280 279 278 278 277 277 276 276 275 275 275 274 273 273 273 273 274 274 274 274 275 275 275 274 275 274 274 274 274 273 273 272 272
287 286 286 285 284 283 282 282 281 281 280 279 278 278 277 277 276 275 275 274 274 273 272 272 272 272 272 272 272 272 272 273 273 273 273 273 273 273 273 272 272 272 271 271
285 285 284 284 283 283 282 281 280 280 279 278 277 276 276 275 275 275 274 274 273 273 272 271 272 271 271 271 271 271 271 271 271 271 272 272 271 271 271 271 271 270 270 270
285 284 283 283 282 282 281 280 279 279 278 277 277 277 276 275 275 274 274 273 272 271 271 271 270 270 270 270 270 270 270 270 270 270 270 270 270 270 270 269 269 269 269 269
284 283 283 282 281 281 280 279 278 278 278 278 277 277 276 275 275 274 273 272 272 271 271 270 270 270 269 269 269 269 269 269 269 268 268 268 268 268 268 268 268 268 268 267
283 283 282 281 280 280 280 279 279 278 278 278 278 277 277 276 275 274 273 272 271 271 271 270 270 270 269 269 269 268 268 268 268 268 268 267 267 267 267 267 267 267 267 267
283 282 282 281 281 280 280 279 279 278 278 278 277 277 276 275 274 274 273 272 271 271 271 270 270 269 269 269 268 268 268 267 267 267 267 267 267 267 266 266 266 266 266 266
281 281 280 280 280 280 279 279 279 278 277 276 276 275 275 274 273 273 272 272 271 271 270 270 270 270 269 269 268 268 268 267 267 267 267 266 266 266 266 266 265 265 265 265

GFSNGP_850_thetae_117.txt.gz
Theta_e
308 309 309 311 316 313 312 311 309 305 302 300 298 297 296 296 295 295 294 293 293 294 296 298 299 300 301 301 302 304 306 309 312 314 320 323 327 329 328 328 328 327 327 328
309 307 305 306 306 308 307 305 304 302 300 297 295 294 294 294 294 294 292 291 291 293 295 296 296 297 299 300 301 302 303 304 306 310 314 318 322 324 325 325 326 328 327 328
312 310 310 305 304 305 304 305 307 304 299 296 294 293 293 293 293 293 290 289 291 292 293 294 294 294 297 298 299 301 301 302 303 304 306 309 312 316 320 321 324 325 326 325
311 311 307 304 301 303 302 302 302 299 297 295 293 292 291 291 291 292 289 289 289 291 292 293 294 295 295 298 298 299 300 300 300 301 301 303 306 307 309 308 308 316 321 322
311 308 306 303 300 301 303 301 300 300 298 295 293 295 291 290 290 290 289 288 288 289 291 292 292 292 294 295 296 298 298 298 299 299 299 300 301 302 303 304 306 305 304 316
310 308 307 302 298 299 300 301 299 297 296 294 297 295 292 289 289 288 288 287 287 288 289 290 291 291 293 292 292 293 294 296 298 299 299 298 298 299 300 301 302 303 304 305
307 306 303 297 298 301 304 300 298 295 294 292 292 291 289 288 288 288 287 287 286 287 287 288 289 290 290 290 288 289 291 294 296 298 298 298 298 298 299 299 299 300 302 303
304 302 303 296 298 301 298 296 297 295 293 293 291 289 288 288 287 286 286 286 286 287 287 287 288 289 289 289 288 288 290 292 293 294 295 296 297 297 298 298 298 297 298 300
300 299 296 296 296 296 295 293 294 295 293 291 289 288 287 286 285 284 284 284 285 285 286 286 286 287 287 287 288 288 289 289 290 290 292 294 295 296 296 296 296 296 295 294
298 298 296 295 293 294 292 291 292 293 291 290 288 286 285 285 284 284 283 284 284 285 285 285 285 285 285 286 286 286 287 287 287 288 289 290 291 292 292 291 291 291 291 290
298 297 296 295 293 291 291 291 290 290 289 288 288 286 285 285 284 284 284 284 284 284 283 284 284 284 285 285 286 286 286 285 286 286 286 286 287 287 286 286 286 287 287 289
297 296 296 294 292 291 291 290 289 289 288 287 286 285 285 284 283 283 283 283 283 283 284 284 284 284 284 284 284 284 284 285 284 284 284 284 285 285 285 285 285 285 285 285
297 296 295 293 291 290 290 289 288 288 286 286 285 284 284 283 283 283 283 282 282 282 282 282 283 283 283 283 283 283 283 283 283 283 283 283 283 283 284 284 284 284 284 285
296 295 293 292 290 289 289 288 287 286 285 285 284 284 283 283 282 282 282 281 280 280 280 280 281 281 282 282 282 282 282 282 282 282 282 282 282 282 282 282 282 283 283 283
294 295 294 292 290 289 288 287 287 285 284 284 284 283 283 282 282 281 280 280 279 279 279 279 279 279 279 280 280 280 280 280 280 280 280 280 280 281 281 281 281 281 281 281
293 292 291 291 289 288 287 287 287 285 284 284 283 283 282 282 281 280 280 280 280 279 278 278 278 278 278 278 278 278 278 279 279 279 279 279 279 279 279 279 279 279 279 279
293 290 290 289 289 288 287 287 286 285 283 283 282 282 281 280 280 280 279 279 278 277 277 276 276 277 276 277 277 277 277 277 277 277 277 277 277 277 277 277 277 277 277 277
293 291 290 290 289 288 286 285 284 283 283 282 281 281 280 279 279 278 278 277 277 276 276 275 275 275 275 275 275 276 276 276 276 276 276 276 276 276 275 275 275 275 274 274
292 291 290 289 288 286 285 284 283 283 282 282 281 280 280 279 279 278 277 276 276 275 275 274 274 273 273 273 274 274 274 274 274 274 275 275 275 275 274 274 274 273 273 272
292 291 289 288 286 285 285 284 283 282 282 281 280 280 279 278 277 277 276 275 275 274 274 273 272 272 272 272 273 272 272 272 273 273 273 273 273 273 273 273 272 272 271 271
289 289 288 287 285 284 283 283 282 282 281 280 279 278 277 276 276 275 275 275 274 274 273 272 272 272 271 271 271 271 271 271 271 271 272 271 271 271 271 271 271 271 270 270
288 287 286 285 284 284 283 282 282 281 280 279 278 277 277 276 275 275 274 274 273 272 272 271 271 271 270 270 270 270 270 270 270 270 270 270 270 270 269 269 269 269 269 269
286 286 285 284 283 283 282 282 281 279 278 278 277 277 277 276 276 275 275 273 272 272 271 271 270 270 270 270 270 270 269 269 269 269 269 268 269 269 268 268 268 268 268 268
285 284 283 283 283 282 281 280 279 278 278 278 278 277 277 276 276 275 274 273 272 271 271 271 270 270 270 269 269 269 269 268 268 268 268 268 268 267 267 267 267 267 267 267
285 284 283 283 282 281 279 279 279 279 278 278 278 278 277 276 276 275 274 273 272 271 271 271 270 270 269 269 269 268 268 268 267 267 267 267 267 267 267 266 266 266 266 266
284 284 283 282 281 280 280 279 279 279 278 278 277 277 277 276 276 275 274 273 272 271 271 270 270 270 269 269 269 268 268 268 267 267 267 267 266 266 266 266 266 265 265 265
283 282 282 281 280 280 280 279 279 279 278 278 276 275 275 274 274 273 273 272 272 271 271 271 270 270 270 269 269 268 268 268 267 267 267 266 266 266 266 266 266 265 265 265

GFSNGP_850_thetae_120.txt.gz
Theta_e
307 305 306 306 309 311 309 308 306 302 299 297 296 296 295 295 292 291 290 290 290 291 293 294 296 297 298 299 301 302 302 304 305 308 311 314 317 322 324 325 326 327 328 329
308 310 304 303 303 306 306 304 302 300 298 296 294 293 293 293 292 290 288 288 289 291 292 293 294 293 297 298 299 300 301 301 301 303 305 308 310 314 317 320 324 325 325 325
308 308 306 303 303 302 302 301 303 301 298 295 293 292 291 291 291 289 287 287 288 289 290 291 292 292 293 296 298 299 299 300 301 301 301 302 305 308 311 312 314 316 321 323
310 309 306 303 302 302 300 300 299 297 295 294 292 291 290 289 289 287 286 286 287 288 290 290 290 292 292 293 296 297 298 299 299 299 300 301 301 302 304 305 307 308 310 307
308 306 305 303 300 301 302 300 298 299 296 294 293 293 288 288 287 286 286 285 286 287 288 289 290 290 292 293 293 294 295 296 298 299 299 299 300 300 300 301 303 303 304 306
307 308 306 300 298 298 300 301 296 295 293 293 296 293 289 287 287 286 286 285 286 287 288 288 288 289 290 289 289 290 290 292 294 296 298 298 298 298 299 299 299 300 301 302
306 305 302 297 298 300 304 299 296 293 291 291 291 289 287 287 286 285 286 286 286 286 287 287 288 289 289 289 288 288 288 289 291 293 294 295 296 297 298 299 299 299 299 299
304 303 303 296 299 301 298 296 295 293 292 289 288 287 287 286 285 285 285 285 285 286 286 286 287 287 287 287 286 287 288 289 289 290 291 292 294 294 294 296 296 296 295 296
299 298 295 294 295 295 295 294 294 293 290 289 288 286 285 285 284 284 284 284 285 285 285 286 286 286 286 286 286 286 287 287 288 288 289 290 291 291 293 292 292 291 291 291
298 296 295 293 294 292 293 294 294 293 291 289 288 286 286 285 284 284 284 284 284 285 285 284 284 284 284 285 286 286 286 286 286 287 287 287 288 287 288 288 288 288 288 288
297 297 295 292 292 291 291 291 291 290 289 288 287 286 285 284 283 283 283 283 283 283 283 283 283 283 284 284 284 284 284 284 284 284 284 284 285 285 284 284 284 285 284 285
292 296 294 293 291 291 291 290 289 289 287 286 285 285 283 283 282 282 281 281 281 281 282 282 282 282 282 283 283 283 283 283 282 283 283 283 283 283 283 283 283 284 283 284
297 296 295 293 291 290 290 288 288 287 286 285 284 283 283 282 281 281 281 280 280 280 280 280 280 281 281 281 281 281 281 281 282 282 282 282 282 282 282 282 282 282 283 283
296 294 291 291 290 289 289 288 287 286 285 284 283 283 282 282 281 281 281 280 279 279 280 279 279 279 279 279 279 279 279 280 280 280 280 280 281 280 281 281 280 281 281 281
294 295 294 293 290 289 288 288 287 285 285 284 283 283 282 282 281 281 280 279 279 279 279 278 278 278 278 278 278 278 278 278 278 278 278 279 279 279 279 279 279 279 279 280
294 294 293 292 290 289 288 287 287 285 284 284 283 282 282 281 280 280 279 279 279 279 278 277 277 277 277 276 276 277 276 276 277 277 277 277 277 277 277 277 276 277 277 277
293 290 291 290 289 289 288 287 286 285 284 283 283 282 281 280 279 279 278 278 277 277 276 276 276 275 275 275 275 275 275 275 275 275 276 276 276 276 275 275 275 274 274 273
294 293 292 292 290 288 287 286 285 284 283 282 282 281 280 280 279 278 277 276 276 275 275 275 275 275 274 274 274 274 273 273 273 274 274 275 275 274 274 274 273 273 272 272
293 292 291 290 289 288 287 285 284 283 283 282 281 281 280 279 278 277 276 276 276 275 275 275 274 274 274 273 273 273 273 272 272 273 273 273 273 273 273 273 272 272 271 271
292 291 290 290 288 286 285 284 283 282 282 281 280 280 279 278 277 276 276 275 275 275 274 274 273 273 273 272 272 272 272 271 271 271 271 272 272 272 271 271 271 271 270 270
292 291 290 289 287 285 283 283 282 282 281 280 279 278 278 277 276 276 276 275 274 274 273 273 273 272 272 271 271 271 271 271 270 270 270 270 270 270 270 270 270 269 269 269
290 290 289 288 286 284 283 282 282 281 280 279 278 278 277 277 277 276 275 275 274 273 272 272 271 271 271 270 270 270 270 270 269 269 269 269 269 269 268 268 268 268 268 268
288 288 287 286 284 283 283 282 281 280 279 278 278 278 277 277 277 276 276 275 274 273 272 271 271 270 270 270 269 269 269 269 268 268 268 268 267 267 267 267 267 267 267 267
287 286 285 284 283 283 282 281 280 279 279 278 278 278 278 277 277 276 275 274 274 273 272 271 271 270 270 269 269 269 268 268 268 267 267 267 267 267 266 266 266 266 266 266
285 285 284 284 283 282 281 280 280 279 279 278 278 278 277 277 277 276 275 274 273 272 271 271 271 270 270 270 269 269 268 268 268 267 267 267 267 266 266 266 266 265 266 265
285 285 284 283 282 281 280 280 280 279 279 279 278 278 276 276 275 275 275 274 273 272 272 271 271 270 270 270 269 269 269 268 268 267 267 267 266 266 266 266 266 265 265 265
284 283 283 282 281 281 280 280 280 279 279 278 278 277 276 275 274 274 273 273 272 272 272 271 271 270 270 269 269 268 268 268 268 267 267 267 266 266 266 265 265 265 265 265

GFSNGP_850_thetae_123.txt.gz
Theta_e
307 305 304 303 306 307 306 307 307 301 298 296 295 294 293 292 290 289 289 288 288 290 290 291 290 290 296 299 300 300 301 302 302 303 305 307 310 313 315 318 320 322 323 324
308 308 305 303 303 304 304 302 301 299 297 295 293 292 292 290 289 288 288 287 286 289 289 289 289 288 293 296 298 299 300 300 300 301 302 303 304 306 308 312 314 316 318 319
310 308 307 304 302 302 301 300 303 301 297 294 292 291 290 289 288 287 286 285 285 286 287 288 288 288 288 292 294 298 298 299 300 300 301 301 301 303 304 304 306 308 309 311
310 310 308 303 302 301 300 300 298 297 296 293 290 288 287 286 286 285 285 284 285 287 288 288 289 290 290 291 292 294 296 297 298 299 300 300 299 300 301 302 302 303 304 305
310 307 305 304 300 301 302 299 297 298 295 294 291 292 288 285 284 284 284 285 285 286 287 288 289 289 290 290 290 291 292 293 295 297 298 298 299 298 299 299 299 299 301 302
308 308 308 301 298 298 300 301 295 294 295 294 296 297 290 284 285 285 285 285 286 286 287 288 288 288 289 288 289 289 289 291 292 293 295 295 296 296 296 297 297 297 297 297
307 306 302 297 297 299 304 301 294 292 291 292 291 289 285 285 285 284 285 285 285 285 285 286 287 288 288 288 287 287 288 289 291 291 292 292 293 294 294 294 295 295 294 294
305 305 305 295 299 302 298 296 294 292 290 289 287 286 285 285 284 284 285 285 285 285 285 285 285 286 286 286 284 286 287 287 289 289 289 289 290 291 291 291 292 292 292 293
300 300 295 294 294 295 295 295 293 291 289 288 287 285 284 283 283 284 284 284 284 284 284 284 285 285 285 284 285 285 286 286 286 286 287 287 288 288 288 288 288 288 288 288
298 296 294 293 292 293 294 293 292 290 289 287 286 285 284 284 283 283 283 283 283 283 283 283 283 283 283 283 283 283 284 284 284 284 285 285 286 285 285 285 285 285 285 286
298 296 293 292 291 291 291 292 290 288 287 286 286 284 284 283 282 281 281 282 281 281 281 281 282 282 282 282 282 281 281 282 283 283 283 283 283 283 283 283 283 283 283 284
298 296 295 293 291 291 291 290 289 289 287 286 285 284 283 282 281 281 281 281 281 280 280 280 280 280 280 280 280 280 280 280 280 281 281 282 282 282 282 282 282 283 283 283
297 295 295 293 291 291 290 289 288 288 287 286 285 284 284 283 282 281 281 281 280 280 280 279 279 279 279 279 279 279 279 279 279 279 279 279 280 281 281 281 281 282 282 282
296 295 291 291 290 289 289 288 288 287 286 285 284 284 283 282 281 281 280 280 279 279 278 278 278 278 278 278 278 278 278 278 278 278 278 278 278 278 279 279 280 280 280 280
294 295 294 292 290 289 289 288 287 286 285 285 284 283 282 281 281 280 279 279 279 278 278 277 277 277 277 276 276 276 276 276 276 276 276 276 277 276 276 276 277 277 277 278
294 294 293 292 290 289 288 287 287 286 285 284 283 282 281 280 280 279 278 278 278 277 277 276 276 275 275 275 275 275 275 275 274 275 275 275 275 275 275 275 275 274 274 274
294 291 291 289 289 289 289 288 287 286 284 283 283 282 280 280 279 278 278 277 277 276 276 275 275 275 275 275 275 275 274 274 274 274 274 274 274 274 274 273 273 273 272 272
295 294 293 293 291 290 288 287 287 285 284 283 282 281 280 279 279 278 277 276 276 275 275 275 275 274 274 274 274 274 273 273 273 273 273 273 273 273 273 272 272 272 271 271
294 293 292 291 291 289 288 287 286 284 283 283 281 280 279 279 277 277 276 276 275 275 275 274 274 274 274 273 273 273 273 273 272 272 272 272 272 272 272 271 271 271 270 270
293 292 291 290 289 288 287 285 284 284 283 281 280 279 278 277 277 276 276 275 275 275 274 274 273 273 273 273 273 272 272 272 271 271 271 270 270 270 270 270 270 270 269 269
293 292 291 290 289 287 285 284 284 283 281 280 279 278 278 277 277 276 276 275 275 275 274 273 273 272 272 272 271 271 271 270 270 270 269 269 269 269 269 269 269 269 268 268
293 292 290 289 288 286 284 283 283 281 280 279 278 278 278 277 277 277 276 276 275 274 273 273 272 271 271 271 270 270 270 269 269 269 268 268 268 268 268 268 268 267 267 267
291 290 289 289 287 285 284 283 282 281 280 279 279 278 278 277 277 277 276 276 275 274 273 272 272 271 271 270 270 270 269 269 268 268 268 267 267 267 267 267 267 267 267 266
289 288 288 287 285 284 283 282 281 280 279 279 279 278 278 277 277 277 276 276 275 274 273 272 271 271 270 270 270 270 269 269 268 268 268 267 267 267 267 266 266 266 266 266
288 287 286 285 284 283 282 281 280 279 279 279 278 278 278 277 276 276 275 275 275 274 273 272 271 271 271 270 270 270 269 269 268 268 268 267 267 267 266 266 266 266 266 265
287 286 285 284 283 282 281 280 279 279 279 279 279 278 278 277 276 275 275 274 274 273 272 272 272 271 271 270 270 270 269 269 268 268 268 268 267 267 267 266 266 265 265 265
285 285 284 283 282 282 281 280 280 279 279 279 279 278 278 276 275 275 274 274 273 273 272 272 272 271 271 270 270 270 269 269 268 268 268 267 267 267 266 266 266 265 265 265

GFSNGP_850_thetae_126.txt.gz
Theta_e
308 308 306 306 306 308 309 309 311 304 301 297 296 295 293 291 290 290 290 289 289 288 287 290 290 290 292 294 297 299 298 299 299 300 302 304 306 307 308 310 311 312 313 315
312 309 307 305 305 307 305 303 302 301 299 296 294 293 292 290 289 289 288 288 287 286 286 287 287 288 289 291 294 295 297 297 297 299 300 301 302 303 304 304 306 307 308 308
315 309 309 308 304 305 303 303 304 305 299 295 294 292 290 289 289 288 287 287 285 284 284 284 285 286 286 288 288 293 296 297 298 297 298 299 300 301 301 301 302 302 303 304
313 312 313 305 303 302 302 301 300 299 297 296 293 290 289 287 287 287 286 285 284 285 286 284 284 285 285 286 287 291 293 294 295 295 296 297 298 299 299 299 300 300 300 300
313 312 307 305 303 304 305 301 299 300 297 295 292 293 290 286 285 285 285 285 284 284 284 283 284 285 285 286 287 289 290 291 293 293 294 295 296 296 296 297 298 298 298 299
310 312 311 305 301 300 302 305 297 298 298 298 296 300 293 285 284 283 285 285 285 284 284 284 284 284 285 286 286 287 287 289 289 290 291 291 292 292 293 294 294 294 294 295
310 310 305 300 299 300 307 304 296 295 297 297 296 291 286 284 283 283 284 284 284 284 283 283 284 284 284 284 285 285 286 287 288 289 289 289 290 290 291 291 292 292 292 292
308 309 309 298 300 304 300 297 296 295 294 292 290 288 286 284 284 284 284 284 284 284 283 283 282 283 283 283 285 285 285 284 285 286 286 287 287 288 289 289 289 290 290 290
304 304 298 297 298 299 298 297 295 294 292 291 289 287 286 285 284 283 283 283 283 283 283 282 282 282 282 282 283 284 284 284 284 285 284 284 286 286 285 285 284 284 284 286
301 297 297 296 295 296 296 295 293 292 291 290 289 287 286 285 284 283 282 282 282 282 281 281 281 281 281 281 282 283 283 283 283 283 283 283 283 282 283 284 283 281 283 283
299 297 296 295 295 294 293 292 291 290 289 289 288 286 285 284 282 282 281 280 280 280 280 280 280 280 280 280 281 281 282 282 282 282 282 282 282 281 280 281 281 281 281 281
305 298 299 296 294 292 291 290 289 288 287 287 286 285 284 282 281 281 280 280 279 278 278 278 279 279 279 279 279 280 280 280 280 281 280 280 281 281 280 280 280 281 281 281
300 297 296 294 292 292 290 289 288 287 286 285 284 284 283 282 281 281 279 279 278 278 278 278 278 278 279 278 278 278 278 278 279 279 279 279 279 279 279 279 278 278 279 280
297 294 293 292 291 290 289 288 286 286 285 284 283 282 282 281 280 279 279 278 279 278 278 278 277 278 278 277 277 277 277 276 277 278 277 278 278 278 277 277 277 277 276 276
296 296 295 292 290 289 288 287 286 285 284 283 282 282 281 281 281 280 279 279 278 278 278 277 277 277 277 277 277 276 276 276 276 277 277 276 277 277 277 276 276 276 275 274
295 294 292 291 290 288 288 287 286 285 284 283 283 282 282 281 280 279 279 278 278 278 277 277 277 277 277 276 276 275 275 275 275 276 276 276 276 276 276 275 275 275 274 271
295 293 293 291 290 289 288 287 287 285 285 284 283 282 281 280 280 279 278 278 278 277 276 276 276 276 276 276 275 275 274 274 274 275 275 275 275 275 274 274 274 274 273 272
296 294 293 292 290 289 288 287 287 286 285 284 283 282 281 280 279 279 278 277 277 276 276 276 276 276 275 275 275 274 273 273 273 273 273 273 273 273 273 273 273 273 272 272
294 293 292 291 290 289 288 288 287 286 284 283 282 281 281 280 279 278 277 277 276 276 276 276 275 275 275 274 274 272 272 272 272 272 272 272 272 272 272 272 272 271 271 271
293 292 292 291 289 289 289 288 287 285 284 283 282 281 280 279 278 278 277 277 276 276 276 275 274 274 273 273 272 271 271 271 271 271 271 270 271 271 271 271 270 270 270 270
294 292 292 291 290 289 288 287 286 284 283 282 281 280 280 279 278 277 277 277 276 276 275 275 274 273 272 272 271 271 271 270 270 270 270 270 270 270 270 269 269 269 269 268
294 292 292 291 290 289 287 285 284 283 283 282 281 280 280 279 278 277 277 277 276 276 275 274 273 272 272 271 271 270 270 270 270 270 269 269 269 269 269 268 268 268 268 268
294 292 291 290 290 288 286 284 284 282 282 281 280 279 279 278 278 277 277 277 276 276 275 273 273 272 272 271 270 270 270 270 270 269 269 269 268 268 268 268 267 267 267 267
292 291 290 289 288 286 285 284 283 282 281 280 279 279 278 278 278 277 277 277 276 275 275 273 273 272 272 271 270 270 270 270 270 270 269 269 268 268 268 268 267 267 267 267
290 289 288 288 287 285 284 283 282 281 280 279 279 278 278 278 277 277 276 275 275 275 274 273 273 272 272 271 271 270 270 270 270 269 269 269 268 268 268 268 267 267 267 266
289 288 287 287 285 284 283 282 281 280 279 279 278 278 278 278 277 276 275 275 274 274 274 273 272 272 271 271 271 270 270 269 269 269 269 268 268 268 268 267 267 267 266 266
287 287 286 285 284 283 282 282 280 279 279 279 279 279 278 278 277 275 275 274 274 273 273 272 272 272 272 271 271 270 269 269 269 268 268 268 268 267 267 267 267 266 266 265